<?xml version="1.0" encoding="UTF-8" standalone="no" ?>
<gpx xmlns="http://www.topografix.com/GPX/1/1" xmlns:xsi="http://www.w3.org/2001/XMLSchema-instance" xsi:schemaLocation="http://www.topografix.com/GPX/1/1 http://www.topografix.com/GPX/1/1/gpx.xsd" version="1.1" creator="VisuGPX - https://www.visugpx.com">
  <metadata>
    <name>GR65 de Livinhac à Figeac</name>
    <desc><![CDATA[Chemin de Compostelle GR65 de Livinhac à Figeac]]></desc>
  </metadata>
  <trk>
    <name><![CDATA[J2-Livinhac-Figeac]]></name>
    <trkseg>
      <trkpt lat="44.59128" lon="2.23194">
        <ele>253</ele>
        <time>2015-08-26T05:35:49Z</time>
      </trkpt>
      <trkpt lat="44.59133" lon="2.23189">
        <ele>267</ele>
        <time>2015-08-26T05:41:49Z</time>
      </trkpt>
      <trkpt lat="44.59137" lon="2.23193">
        <ele>270</ele>
        <time>2015-08-26T05:42:07Z</time>
      </trkpt>
      <trkpt lat="44.59141" lon="2.23197">
        <ele>276</ele>
        <time>2015-08-26T05:51:49Z</time>
      </trkpt>
      <trkpt lat="44.59138" lon="2.23203">
        <ele>274</ele>
        <time>2015-08-26T05:52:18Z</time>
      </trkpt>
      <trkpt lat="44.59135" lon="2.23199">
        <ele>268</ele>
        <time>2015-08-26T05:52:42Z</time>
      </trkpt>
      <trkpt lat="44.59128" lon="2.2319">
        <ele>267</ele>
        <time>2015-08-26T05:52:49Z</time>
      </trkpt>
      <trkpt lat="44.59124" lon="2.23181">
        <ele>265</ele>
        <time>2015-08-26T05:52:55Z</time>
      </trkpt>
      <trkpt lat="44.59128" lon="2.23168">
        <ele>269</ele>
        <time>2015-08-26T05:53:06Z</time>
      </trkpt>
      <trkpt lat="44.59131" lon="2.23162">
        <ele>270</ele>
        <time>2015-08-26T05:53:12Z</time>
      </trkpt>
      <trkpt lat="44.59133" lon="2.23156">
        <ele>271</ele>
        <time>2015-08-26T05:53:29Z</time>
      </trkpt>
      <trkpt lat="44.5914" lon="2.23147">
        <ele>273</ele>
        <time>2015-08-26T05:53:39Z</time>
      </trkpt>
      <trkpt lat="44.59145" lon="2.23146">
        <ele>270</ele>
        <time>2015-08-26T05:53:49Z</time>
      </trkpt>
      <trkpt lat="44.59151" lon="2.23144">
        <ele>267</ele>
        <time>2015-08-26T05:54:56Z</time>
      </trkpt>
      <trkpt lat="44.5915" lon="2.23136">
        <ele>268</ele>
        <time>2015-08-26T05:55:03Z</time>
      </trkpt>
      <trkpt lat="44.59152" lon="2.2313">
        <ele>270</ele>
        <time>2015-08-26T05:55:49Z</time>
      </trkpt>
      <trkpt lat="44.59155" lon="2.23124">
        <ele>269</ele>
        <time>2015-08-26T05:55:55Z</time>
      </trkpt>
      <trkpt lat="44.59152" lon="2.2311">
        <ele>267</ele>
        <time>2015-08-26T05:56:03Z</time>
      </trkpt>
      <trkpt lat="44.59149" lon="2.23097">
        <ele>265</ele>
        <time>2015-08-26T05:56:13Z</time>
      </trkpt>
      <trkpt lat="44.59149" lon="2.23089">
        <ele>263</ele>
        <time>2015-08-26T05:56:26Z</time>
      </trkpt>
      <trkpt lat="44.59144" lon="2.23077">
        <ele>261</ele>
        <time>2015-08-26T05:56:35Z</time>
      </trkpt>
      <trkpt lat="44.59138" lon="2.23067">
        <ele>262</ele>
        <time>2015-08-26T05:56:44Z</time>
      </trkpt>
      <trkpt lat="44.59134" lon="2.23056">
        <ele>262</ele>
        <time>2015-08-26T05:56:55Z</time>
      </trkpt>
      <trkpt lat="44.59131" lon="2.23049">
        <ele>261</ele>
        <time>2015-08-26T05:57:01Z</time>
      </trkpt>
      <trkpt lat="44.59128" lon="2.23035">
        <ele>263</ele>
        <time>2015-08-26T05:57:11Z</time>
      </trkpt>
      <trkpt lat="44.59128" lon="2.23029">
        <ele>263</ele>
        <time>2015-08-26T05:57:21Z</time>
      </trkpt>
      <trkpt lat="44.59129" lon="2.23021">
        <ele>261</ele>
        <time>2015-08-26T05:57:30Z</time>
      </trkpt>
      <trkpt lat="44.59136" lon="2.23013">
        <ele>262</ele>
        <time>2015-08-26T05:57:37Z</time>
      </trkpt>
      <trkpt lat="44.59141" lon="2.23001">
        <ele>261</ele>
        <time>2015-08-26T05:57:45Z</time>
      </trkpt>
      <trkpt lat="44.59146" lon="2.22991">
        <ele>260</ele>
        <time>2015-08-26T05:57:54Z</time>
      </trkpt>
      <trkpt lat="44.59151" lon="2.22979">
        <ele>259</ele>
        <time>2015-08-26T05:58:04Z</time>
      </trkpt>
      <trkpt lat="44.59157" lon="2.22967">
        <ele>259</ele>
        <time>2015-08-26T05:58:15Z</time>
      </trkpt>
      <trkpt lat="44.59163" lon="2.22956">
        <ele>258</ele>
        <time>2015-08-26T05:58:23Z</time>
      </trkpt>
      <trkpt lat="44.59166" lon="2.2295">
        <ele>257</ele>
        <time>2015-08-26T05:58:29Z</time>
      </trkpt>
      <trkpt lat="44.59167" lon="2.22944">
        <ele>254</ele>
        <time>2015-08-26T05:58:35Z</time>
      </trkpt>
      <trkpt lat="44.59168" lon="2.22929">
        <ele>259</ele>
        <time>2015-08-26T05:58:43Z</time>
      </trkpt>
      <trkpt lat="44.5917" lon="2.2292">
        <ele>259</ele>
        <time>2015-08-26T05:58:49Z</time>
      </trkpt>
      <trkpt lat="44.59172" lon="2.22913">
        <ele>259</ele>
        <time>2015-08-26T05:58:55Z</time>
      </trkpt>
      <trkpt lat="44.59174" lon="2.229">
        <ele>258</ele>
        <time>2015-08-26T05:59:04Z</time>
      </trkpt>
      <trkpt lat="44.59177" lon="2.22887">
        <ele>258</ele>
        <time>2015-08-26T05:59:13Z</time>
      </trkpt>
      <trkpt lat="44.59181" lon="2.22882">
        <ele>258</ele>
        <time>2015-08-26T05:59:20Z</time>
      </trkpt>
      <trkpt lat="44.59184" lon="2.22875">
        <ele>254</ele>
        <time>2015-08-26T05:59:27Z</time>
      </trkpt>
      <trkpt lat="44.59187" lon="2.22869">
        <ele>254</ele>
        <time>2015-08-26T05:59:33Z</time>
      </trkpt>
      <trkpt lat="44.59194" lon="2.22862">
        <ele>252</ele>
        <time>2015-08-26T06:00:12Z</time>
      </trkpt>
      <trkpt lat="44.59199" lon="2.22859">
        <ele>252</ele>
        <time>2015-08-26T06:00:18Z</time>
      </trkpt>
      <trkpt lat="44.59203" lon="2.22854">
        <ele>251</ele>
        <time>2015-08-26T06:00:24Z</time>
      </trkpt>
      <trkpt lat="44.592" lon="2.22847">
        <ele>251</ele>
        <time>2015-08-26T06:00:34Z</time>
      </trkpt>
      <trkpt lat="44.59199" lon="2.22834">
        <ele>254</ele>
        <time>2015-08-26T06:00:44Z</time>
      </trkpt>
      <trkpt lat="44.59201" lon="2.22826">
        <ele>251</ele>
        <time>2015-08-26T06:01:49Z</time>
      </trkpt>
      <trkpt lat="44.59206" lon="2.22823">
        <ele>252</ele>
        <time>2015-08-26T06:02:11Z</time>
      </trkpt>
      <trkpt lat="44.59213" lon="2.22813">
        <ele>252</ele>
        <time>2015-08-26T06:02:21Z</time>
      </trkpt>
      <trkpt lat="44.59223" lon="2.22809">
        <ele>251</ele>
        <time>2015-08-26T06:02:31Z</time>
      </trkpt>
      <trkpt lat="44.59228" lon="2.22809">
        <ele>252</ele>
        <time>2015-08-26T06:02:37Z</time>
      </trkpt>
      <trkpt lat="44.59233" lon="2.22809">
        <ele>251</ele>
        <time>2015-08-26T06:02:43Z</time>
      </trkpt>
      <trkpt lat="44.5924" lon="2.22808">
        <ele>250</ele>
        <time>2015-08-26T06:02:49Z</time>
      </trkpt>
      <trkpt lat="44.59245" lon="2.22807">
        <ele>249</ele>
        <time>2015-08-26T06:02:55Z</time>
      </trkpt>
      <trkpt lat="44.59255" lon="2.22803">
        <ele>248</ele>
        <time>2015-08-26T06:03:05Z</time>
      </trkpt>
      <trkpt lat="44.59264" lon="2.22801">
        <ele>246</ele>
        <time>2015-08-26T06:03:14Z</time>
      </trkpt>
      <trkpt lat="44.59269" lon="2.22798">
        <ele>245</ele>
        <time>2015-08-26T06:03:20Z</time>
      </trkpt>
      <trkpt lat="44.59278" lon="2.22793">
        <ele>244</ele>
        <time>2015-08-26T06:03:29Z</time>
      </trkpt>
      <trkpt lat="44.59283" lon="2.22789">
        <ele>244</ele>
        <time>2015-08-26T06:03:35Z</time>
      </trkpt>
      <trkpt lat="44.59288" lon="2.22786">
        <ele>245</ele>
        <time>2015-08-26T06:03:41Z</time>
      </trkpt>
      <trkpt lat="44.59296" lon="2.22779">
        <ele>245</ele>
        <time>2015-08-26T06:03:49Z</time>
      </trkpt>
      <trkpt lat="44.59304" lon="2.22772">
        <ele>246</ele>
        <time>2015-08-26T06:03:58Z</time>
      </trkpt>
      <trkpt lat="44.59309" lon="2.22769">
        <ele>245</ele>
        <time>2015-08-26T06:04:05Z</time>
      </trkpt>
      <trkpt lat="44.59317" lon="2.22762">
        <ele>246</ele>
        <time>2015-08-26T06:04:16Z</time>
      </trkpt>
      <trkpt lat="44.59326" lon="2.22753">
        <ele>246</ele>
        <time>2015-08-26T06:04:26Z</time>
      </trkpt>
      <trkpt lat="44.59334" lon="2.22746">
        <ele>245</ele>
        <time>2015-08-26T06:04:34Z</time>
      </trkpt>
      <trkpt lat="44.59343" lon="2.22741">
        <ele>243</ele>
        <time>2015-08-26T06:04:42Z</time>
      </trkpt>
      <trkpt lat="44.59351" lon="2.22737">
        <ele>243</ele>
        <time>2015-08-26T06:04:49Z</time>
      </trkpt>
      <trkpt lat="44.5936" lon="2.22728">
        <ele>243</ele>
        <time>2015-08-26T06:04:59Z</time>
      </trkpt>
      <trkpt lat="44.59369" lon="2.22722">
        <ele>244</ele>
        <time>2015-08-26T06:05:08Z</time>
      </trkpt>
      <trkpt lat="44.59378" lon="2.22717">
        <ele>243</ele>
        <time>2015-08-26T06:05:17Z</time>
      </trkpt>
      <trkpt lat="44.59389" lon="2.22713">
        <ele>243</ele>
        <time>2015-08-26T06:05:26Z</time>
      </trkpt>
      <trkpt lat="44.59399" lon="2.22707">
        <ele>242</ele>
        <time>2015-08-26T06:05:36Z</time>
      </trkpt>
      <trkpt lat="44.59409" lon="2.22703">
        <ele>242</ele>
        <time>2015-08-26T06:05:46Z</time>
      </trkpt>
      <trkpt lat="44.59417" lon="2.22701">
        <ele>242</ele>
        <time>2015-08-26T06:05:54Z</time>
      </trkpt>
      <trkpt lat="44.59426" lon="2.22697">
        <ele>242</ele>
        <time>2015-08-26T06:06:04Z</time>
      </trkpt>
      <trkpt lat="44.59436" lon="2.22693">
        <ele>242</ele>
        <time>2015-08-26T06:06:13Z</time>
      </trkpt>
      <trkpt lat="44.59445" lon="2.22687">
        <ele>241</ele>
        <time>2015-08-26T06:06:21Z</time>
      </trkpt>
      <trkpt lat="44.59453" lon="2.22681">
        <ele>242</ele>
        <time>2015-08-26T06:06:30Z</time>
      </trkpt>
      <trkpt lat="44.59462" lon="2.22675">
        <ele>241</ele>
        <time>2015-08-26T06:06:39Z</time>
      </trkpt>
      <trkpt lat="44.5947" lon="2.22667">
        <ele>241</ele>
        <time>2015-08-26T06:06:48Z</time>
      </trkpt>
      <trkpt lat="44.5948" lon="2.22661">
        <ele>240</ele>
        <time>2015-08-26T06:06:58Z</time>
      </trkpt>
      <trkpt lat="44.59485" lon="2.22661">
        <ele>240</ele>
        <time>2015-08-26T06:07:33Z</time>
      </trkpt>
      <trkpt lat="44.59494" lon="2.2266">
        <ele>243</ele>
        <time>2015-08-26T06:07:44Z</time>
      </trkpt>
      <trkpt lat="44.59503" lon="2.2266">
        <ele>244</ele>
        <time>2015-08-26T06:07:54Z</time>
      </trkpt>
      <trkpt lat="44.59513" lon="2.2266">
        <ele>246</ele>
        <time>2015-08-26T06:08:04Z</time>
      </trkpt>
      <trkpt lat="44.59522" lon="2.2266">
        <ele>246</ele>
        <time>2015-08-26T06:08:14Z</time>
      </trkpt>
      <trkpt lat="44.59528" lon="2.22661">
        <ele>246</ele>
        <time>2015-08-26T06:08:20Z</time>
      </trkpt>
      <trkpt lat="44.59537" lon="2.22661">
        <ele>248</ele>
        <time>2015-08-26T06:08:31Z</time>
      </trkpt>
      <trkpt lat="44.59542" lon="2.22661">
        <ele>243</ele>
        <time>2015-08-26T06:08:37Z</time>
      </trkpt>
      <trkpt lat="44.59549" lon="2.22662">
        <ele>244</ele>
        <time>2015-08-26T06:08:48Z</time>
      </trkpt>
      <trkpt lat="44.59555" lon="2.22662">
        <ele>243</ele>
        <time>2015-08-26T06:08:54Z</time>
      </trkpt>
      <trkpt lat="44.59565" lon="2.22666">
        <ele>250</ele>
        <time>2015-08-26T06:09:05Z</time>
      </trkpt>
      <trkpt lat="44.5957" lon="2.22669">
        <ele>250</ele>
        <time>2015-08-26T06:09:12Z</time>
      </trkpt>
      <trkpt lat="44.59574" lon="2.22669">
        <ele>248</ele>
        <time>2015-08-26T06:09:19Z</time>
      </trkpt>
      <trkpt lat="44.59578" lon="2.22673">
        <ele>249</ele>
        <time>2015-08-26T06:09:27Z</time>
      </trkpt>
      <trkpt lat="44.59584" lon="2.22674">
        <ele>250</ele>
        <time>2015-08-26T06:09:35Z</time>
      </trkpt>
      <trkpt lat="44.59594" lon="2.22675">
        <ele>253</ele>
        <time>2015-08-26T06:09:47Z</time>
      </trkpt>
      <trkpt lat="44.59599" lon="2.22678">
        <ele>255</ele>
        <time>2015-08-26T06:09:56Z</time>
      </trkpt>
      <trkpt lat="44.59605" lon="2.22678">
        <ele>254</ele>
        <time>2015-08-26T06:10:09Z</time>
      </trkpt>
      <trkpt lat="44.59609" lon="2.2268">
        <ele>255</ele>
        <time>2015-08-26T06:10:16Z</time>
      </trkpt>
      <trkpt lat="44.59614" lon="2.22682">
        <ele>257</ele>
        <time>2015-08-26T06:10:24Z</time>
      </trkpt>
      <trkpt lat="44.5962" lon="2.22683">
        <ele>259</ele>
        <time>2015-08-26T06:10:32Z</time>
      </trkpt>
      <trkpt lat="44.59624" lon="2.22681">
        <ele>261</ele>
        <time>2015-08-26T06:10:40Z</time>
      </trkpt>
      <trkpt lat="44.59632" lon="2.22677">
        <ele>262</ele>
        <time>2015-08-26T06:10:57Z</time>
      </trkpt>
      <trkpt lat="44.59637" lon="2.22675">
        <ele>263</ele>
        <time>2015-08-26T06:11:04Z</time>
      </trkpt>
      <trkpt lat="44.59641" lon="2.22672">
        <ele>263</ele>
        <time>2015-08-26T06:11:10Z</time>
      </trkpt>
      <trkpt lat="44.59645" lon="2.22669">
        <ele>263</ele>
        <time>2015-08-26T06:11:16Z</time>
      </trkpt>
      <trkpt lat="44.5965" lon="2.22666">
        <ele>263</ele>
        <time>2015-08-26T06:11:24Z</time>
      </trkpt>
      <trkpt lat="44.59655" lon="2.22664">
        <ele>264</ele>
        <time>2015-08-26T06:11:32Z</time>
      </trkpt>
      <trkpt lat="44.59659" lon="2.22661">
        <ele>266</ele>
        <time>2015-08-26T06:11:42Z</time>
      </trkpt>
      <trkpt lat="44.59663" lon="2.22657">
        <ele>267</ele>
        <time>2015-08-26T06:11:49Z</time>
      </trkpt>
      <trkpt lat="44.59667" lon="2.22654">
        <ele>268</ele>
        <time>2015-08-26T06:11:55Z</time>
      </trkpt>
      <trkpt lat="44.5967" lon="2.22648">
        <ele>269</ele>
        <time>2015-08-26T06:12:01Z</time>
      </trkpt>
      <trkpt lat="44.59674" lon="2.22644">
        <ele>269</ele>
        <time>2015-08-26T06:12:09Z</time>
      </trkpt>
      <trkpt lat="44.59677" lon="2.2264">
        <ele>268</ele>
        <time>2015-08-26T06:12:15Z</time>
      </trkpt>
      <trkpt lat="44.59682" lon="2.22639">
        <ele>269</ele>
        <time>2015-08-26T06:12:22Z</time>
      </trkpt>
      <trkpt lat="44.59687" lon="2.22635">
        <ele>271</ele>
        <time>2015-08-26T06:12:28Z</time>
      </trkpt>
      <trkpt lat="44.59691" lon="2.22632">
        <ele>269</ele>
        <time>2015-08-26T06:12:35Z</time>
      </trkpt>
      <trkpt lat="44.59695" lon="2.22628">
        <ele>270</ele>
        <time>2015-08-26T06:12:41Z</time>
      </trkpt>
      <trkpt lat="44.59701" lon="2.22623">
        <ele>271</ele>
        <time>2015-08-26T06:12:49Z</time>
      </trkpt>
      <trkpt lat="44.59706" lon="2.22623">
        <ele>272</ele>
        <time>2015-08-26T06:13:03Z</time>
      </trkpt>
      <trkpt lat="44.59715" lon="2.22627">
        <ele>276</ele>
        <time>2015-08-26T06:13:19Z</time>
      </trkpt>
      <trkpt lat="44.59721" lon="2.22629">
        <ele>276</ele>
        <time>2015-08-26T06:13:26Z</time>
      </trkpt>
      <trkpt lat="44.59726" lon="2.2263">
        <ele>278</ele>
        <time>2015-08-26T06:13:33Z</time>
      </trkpt>
      <trkpt lat="44.59731" lon="2.2263">
        <ele>279</ele>
        <time>2015-08-26T06:13:41Z</time>
      </trkpt>
      <trkpt lat="44.59739" lon="2.22632">
        <ele>282</ele>
        <time>2015-08-26T06:13:59Z</time>
      </trkpt>
      <trkpt lat="44.59743" lon="2.22635">
        <ele>283</ele>
        <time>2015-08-26T06:14:07Z</time>
      </trkpt>
      <trkpt lat="44.59748" lon="2.22637">
        <ele>285</ele>
        <time>2015-08-26T06:14:15Z</time>
      </trkpt>
      <trkpt lat="44.59753" lon="2.22639">
        <ele>287</ele>
        <time>2015-08-26T06:14:22Z</time>
      </trkpt>
      <trkpt lat="44.59758" lon="2.22641">
        <ele>290</ele>
        <time>2015-08-26T06:14:33Z</time>
      </trkpt>
      <trkpt lat="44.59763" lon="2.22643">
        <ele>290</ele>
        <time>2015-08-26T06:14:40Z</time>
      </trkpt>
      <trkpt lat="44.59768" lon="2.22645">
        <ele>289</ele>
        <time>2015-08-26T06:14:47Z</time>
      </trkpt>
      <trkpt lat="44.59775" lon="2.22649">
        <ele>291</ele>
        <time>2015-08-26T06:14:55Z</time>
      </trkpt>
      <trkpt lat="44.59784" lon="2.22651">
        <ele>292</ele>
        <time>2015-08-26T06:15:06Z</time>
      </trkpt>
      <trkpt lat="44.59789" lon="2.22653">
        <ele>293</ele>
        <time>2015-08-26T06:15:14Z</time>
      </trkpt>
      <trkpt lat="44.59795" lon="2.22655">
        <ele>294</ele>
        <time>2015-08-26T06:15:21Z</time>
      </trkpt>
      <trkpt lat="44.598" lon="2.22657">
        <ele>295</ele>
        <time>2015-08-26T06:15:27Z</time>
      </trkpt>
      <trkpt lat="44.59804" lon="2.22657">
        <ele>297</ele>
        <time>2015-08-26T06:15:33Z</time>
      </trkpt>
      <trkpt lat="44.59808" lon="2.2266">
        <ele>298</ele>
        <time>2015-08-26T06:15:42Z</time>
      </trkpt>
      <trkpt lat="44.59813" lon="2.22662">
        <ele>299</ele>
        <time>2015-08-26T06:15:48Z</time>
      </trkpt>
      <trkpt lat="44.59819" lon="2.22664">
        <ele>299</ele>
        <time>2015-08-26T06:15:56Z</time>
      </trkpt>
      <trkpt lat="44.59825" lon="2.22665">
        <ele>299</ele>
        <time>2015-08-26T06:16:04Z</time>
      </trkpt>
      <trkpt lat="44.59829" lon="2.22669">
        <ele>301</ele>
        <time>2015-08-26T06:16:10Z</time>
      </trkpt>
      <trkpt lat="44.59834" lon="2.22669">
        <ele>300</ele>
        <time>2015-08-26T06:16:16Z</time>
      </trkpt>
      <trkpt lat="44.59839" lon="2.22672">
        <ele>301</ele>
        <time>2015-08-26T06:16:22Z</time>
      </trkpt>
      <trkpt lat="44.59847" lon="2.22677">
        <ele>300</ele>
        <time>2015-08-26T06:16:33Z</time>
      </trkpt>
      <trkpt lat="44.59851" lon="2.22678">
        <ele>300</ele>
        <time>2015-08-26T06:16:39Z</time>
      </trkpt>
      <trkpt lat="44.59856" lon="2.22679">
        <ele>301</ele>
        <time>2015-08-26T06:16:46Z</time>
      </trkpt>
      <trkpt lat="44.59862" lon="2.22683">
        <ele>301</ele>
        <time>2015-08-26T06:16:56Z</time>
      </trkpt>
      <trkpt lat="44.59867" lon="2.22685">
        <ele>305</ele>
        <time>2015-08-26T06:17:04Z</time>
      </trkpt>
      <trkpt lat="44.59872" lon="2.22688">
        <ele>307</ele>
        <time>2015-08-26T06:17:13Z</time>
      </trkpt>
      <trkpt lat="44.59876" lon="2.22691">
        <ele>305</ele>
        <time>2015-08-26T06:17:23Z</time>
      </trkpt>
      <trkpt lat="44.5988" lon="2.22693">
        <ele>307</ele>
        <time>2015-08-26T06:17:31Z</time>
      </trkpt>
      <trkpt lat="44.5989" lon="2.22693">
        <ele>309</ele>
        <time>2015-08-26T06:17:41Z</time>
      </trkpt>
      <trkpt lat="44.59895" lon="2.22695">
        <ele>311</ele>
        <time>2015-08-26T06:17:48Z</time>
      </trkpt>
      <trkpt lat="44.599" lon="2.22693">
        <ele>313</ele>
        <time>2015-08-26T06:17:59Z</time>
      </trkpt>
      <trkpt lat="44.59904" lon="2.22693">
        <ele>314</ele>
        <time>2015-08-26T06:18:05Z</time>
      </trkpt>
      <trkpt lat="44.59912" lon="2.22699">
        <ele>314</ele>
        <time>2015-08-26T06:18:23Z</time>
      </trkpt>
      <trkpt lat="44.59919" lon="2.22695">
        <ele>310</ele>
        <time>2015-08-26T06:21:40Z</time>
      </trkpt>
      <trkpt lat="44.59924" lon="2.22692">
        <ele>311</ele>
        <time>2015-08-26T06:21:46Z</time>
      </trkpt>
      <trkpt lat="44.59931" lon="2.22689">
        <ele>313</ele>
        <time>2015-08-26T06:21:55Z</time>
      </trkpt>
      <trkpt lat="44.59935" lon="2.22688">
        <ele>314</ele>
        <time>2015-08-26T06:22:01Z</time>
      </trkpt>
      <trkpt lat="44.5994" lon="2.22689">
        <ele>315</ele>
        <time>2015-08-26T06:22:07Z</time>
      </trkpt>
      <trkpt lat="44.59945" lon="2.2269">
        <ele>316</ele>
        <time>2015-08-26T06:22:13Z</time>
      </trkpt>
      <trkpt lat="44.59951" lon="2.2269">
        <ele>316</ele>
        <time>2015-08-26T06:22:19Z</time>
      </trkpt>
      <trkpt lat="44.59956" lon="2.22691">
        <ele>317</ele>
        <time>2015-08-26T06:22:25Z</time>
      </trkpt>
      <trkpt lat="44.59961" lon="2.22692">
        <ele>317</ele>
        <time>2015-08-26T06:22:31Z</time>
      </trkpt>
      <trkpt lat="44.59966" lon="2.22694">
        <ele>317</ele>
        <time>2015-08-26T06:22:37Z</time>
      </trkpt>
      <trkpt lat="44.59971" lon="2.22695">
        <ele>318</ele>
        <time>2015-08-26T06:22:43Z</time>
      </trkpt>
      <trkpt lat="44.59975" lon="2.22697">
        <ele>319</ele>
        <time>2015-08-26T06:22:49Z</time>
      </trkpt>
      <trkpt lat="44.59984" lon="2.22702">
        <ele>320</ele>
        <time>2015-08-26T06:23:00Z</time>
      </trkpt>
      <trkpt lat="44.59989" lon="2.22704">
        <ele>322</ele>
        <time>2015-08-26T06:23:07Z</time>
      </trkpt>
      <trkpt lat="44.59993" lon="2.22708">
        <ele>323</ele>
        <time>2015-08-26T06:23:13Z</time>
      </trkpt>
      <trkpt lat="44.59997" lon="2.2271">
        <ele>324</ele>
        <time>2015-08-26T06:23:19Z</time>
      </trkpt>
      <trkpt lat="44.60001" lon="2.22714">
        <ele>325</ele>
        <time>2015-08-26T06:23:25Z</time>
      </trkpt>
      <trkpt lat="44.60006" lon="2.22717">
        <ele>326</ele>
        <time>2015-08-26T06:23:31Z</time>
      </trkpt>
      <trkpt lat="44.60011" lon="2.22719">
        <ele>325</ele>
        <time>2015-08-26T06:23:37Z</time>
      </trkpt>
      <trkpt lat="44.6002" lon="2.22722">
        <ele>327</ele>
        <time>2015-08-26T06:23:48Z</time>
      </trkpt>
      <trkpt lat="44.60026" lon="2.22723">
        <ele>327</ele>
        <time>2015-08-26T06:23:55Z</time>
      </trkpt>
      <trkpt lat="44.60036" lon="2.22725">
        <ele>328</ele>
        <time>2015-08-26T06:24:07Z</time>
      </trkpt>
      <trkpt lat="44.6004" lon="2.22724">
        <ele>328</ele>
        <time>2015-08-26T06:24:13Z</time>
      </trkpt>
      <trkpt lat="44.60046" lon="2.22722">
        <ele>329</ele>
        <time>2015-08-26T06:24:20Z</time>
      </trkpt>
      <trkpt lat="44.6005" lon="2.2272">
        <ele>330</ele>
        <time>2015-08-26T06:24:26Z</time>
      </trkpt>
      <trkpt lat="44.60054" lon="2.22718">
        <ele>331</ele>
        <time>2015-08-26T06:24:32Z</time>
      </trkpt>
      <trkpt lat="44.60059" lon="2.22716">
        <ele>332</ele>
        <time>2015-08-26T06:24:38Z</time>
      </trkpt>
      <trkpt lat="44.60064" lon="2.22714">
        <ele>333</ele>
        <time>2015-08-26T06:24:44Z</time>
      </trkpt>
      <trkpt lat="44.60072" lon="2.22714">
        <ele>334</ele>
        <time>2015-08-26T06:24:55Z</time>
      </trkpt>
      <trkpt lat="44.60078" lon="2.22713">
        <ele>335</ele>
        <time>2015-08-26T06:25:01Z</time>
      </trkpt>
      <trkpt lat="44.60087" lon="2.22714">
        <ele>335</ele>
        <time>2015-08-26T06:25:12Z</time>
      </trkpt>
      <trkpt lat="44.60097" lon="2.22714">
        <ele>336</ele>
        <time>2015-08-26T06:25:22Z</time>
      </trkpt>
      <trkpt lat="44.60106" lon="2.22714">
        <ele>336</ele>
        <time>2015-08-26T06:25:33Z</time>
      </trkpt>
      <trkpt lat="44.60116" lon="2.22713">
        <ele>336</ele>
        <time>2015-08-26T06:25:44Z</time>
      </trkpt>
      <trkpt lat="44.60125" lon="2.22711">
        <ele>336</ele>
        <time>2015-08-26T06:25:55Z</time>
      </trkpt>
      <trkpt lat="44.6013" lon="2.22709">
        <ele>336</ele>
        <time>2015-08-26T06:26:01Z</time>
      </trkpt>
      <trkpt lat="44.60136" lon="2.22708">
        <ele>336</ele>
        <time>2015-08-26T06:26:07Z</time>
      </trkpt>
      <trkpt lat="44.60141" lon="2.22707">
        <ele>338</ele>
        <time>2015-08-26T06:26:13Z</time>
      </trkpt>
      <trkpt lat="44.6015" lon="2.22706">
        <ele>337</ele>
        <time>2015-08-26T06:26:24Z</time>
      </trkpt>
      <trkpt lat="44.60159" lon="2.22704">
        <ele>339</ele>
        <time>2015-08-26T06:26:34Z</time>
      </trkpt>
      <trkpt lat="44.60164" lon="2.22703">
        <ele>340</ele>
        <time>2015-08-26T06:26:40Z</time>
      </trkpt>
      <trkpt lat="44.60169" lon="2.22701">
        <ele>341</ele>
        <time>2015-08-26T06:26:46Z</time>
      </trkpt>
      <trkpt lat="44.60176" lon="2.227">
        <ele>343</ele>
        <time>2015-08-26T06:26:55Z</time>
      </trkpt>
      <trkpt lat="44.60181" lon="2.22699">
        <ele>343</ele>
        <time>2015-08-26T06:27:01Z</time>
      </trkpt>
      <trkpt lat="44.6019" lon="2.22696">
        <ele>343</ele>
        <time>2015-08-26T06:27:12Z</time>
      </trkpt>
      <trkpt lat="44.60194" lon="2.22694">
        <ele>344</ele>
        <time>2015-08-26T06:27:18Z</time>
      </trkpt>
      <trkpt lat="44.60199" lon="2.22693">
        <ele>346</ele>
        <time>2015-08-26T06:27:26Z</time>
      </trkpt>
      <trkpt lat="44.60204" lon="2.2269">
        <ele>347</ele>
        <time>2015-08-26T06:27:32Z</time>
      </trkpt>
      <trkpt lat="44.60209" lon="2.22688">
        <ele>347</ele>
        <time>2015-08-26T06:27:38Z</time>
      </trkpt>
      <trkpt lat="44.60213" lon="2.22687">
        <ele>348</ele>
        <time>2015-08-26T06:27:44Z</time>
      </trkpt>
      <trkpt lat="44.60222" lon="2.22686">
        <ele>350</ele>
        <time>2015-08-26T06:27:55Z</time>
      </trkpt>
      <trkpt lat="44.60227" lon="2.22686">
        <ele>351</ele>
        <time>2015-08-26T06:28:01Z</time>
      </trkpt>
      <trkpt lat="44.60231" lon="2.22685">
        <ele>351</ele>
        <time>2015-08-26T06:28:08Z</time>
      </trkpt>
      <trkpt lat="44.60237" lon="2.22685">
        <ele>352</ele>
        <time>2015-08-26T06:28:14Z</time>
      </trkpt>
      <trkpt lat="44.60242" lon="2.22684">
        <ele>353</ele>
        <time>2015-08-26T06:28:20Z</time>
      </trkpt>
      <trkpt lat="44.60247" lon="2.22683">
        <ele>353</ele>
        <time>2015-08-26T06:28:27Z</time>
      </trkpt>
      <trkpt lat="44.60251" lon="2.22682">
        <ele>354</ele>
        <time>2015-08-26T06:28:33Z</time>
      </trkpt>
      <trkpt lat="44.60257" lon="2.22682">
        <ele>354</ele>
        <time>2015-08-26T06:28:40Z</time>
      </trkpt>
      <trkpt lat="44.60262" lon="2.22681">
        <ele>355</ele>
        <time>2015-08-26T06:28:47Z</time>
      </trkpt>
      <trkpt lat="44.60268" lon="2.2268">
        <ele>356</ele>
        <time>2015-08-26T06:28:55Z</time>
      </trkpt>
      <trkpt lat="44.60273" lon="2.22681">
        <ele>357</ele>
        <time>2015-08-26T06:29:02Z</time>
      </trkpt>
      <trkpt lat="44.60278" lon="2.2268">
        <ele>358</ele>
        <time>2015-08-26T06:29:08Z</time>
      </trkpt>
      <trkpt lat="44.60283" lon="2.22679">
        <ele>359</ele>
        <time>2015-08-26T06:29:15Z</time>
      </trkpt>
      <trkpt lat="44.60287" lon="2.22679">
        <ele>360</ele>
        <time>2015-08-26T06:29:21Z</time>
      </trkpt>
      <trkpt lat="44.60293" lon="2.22677">
        <ele>361</ele>
        <time>2015-08-26T06:29:27Z</time>
      </trkpt>
      <trkpt lat="44.60298" lon="2.22676">
        <ele>361</ele>
        <time>2015-08-26T06:29:34Z</time>
      </trkpt>
      <trkpt lat="44.60307" lon="2.22674">
        <ele>361</ele>
        <time>2015-08-26T06:29:44Z</time>
      </trkpt>
      <trkpt lat="44.60317" lon="2.22671">
        <ele>361</ele>
        <time>2015-08-26T06:29:55Z</time>
      </trkpt>
      <trkpt lat="44.60322" lon="2.22669">
        <ele>362</ele>
        <time>2015-08-26T06:30:01Z</time>
      </trkpt>
      <trkpt lat="44.60327" lon="2.22667">
        <ele>363</ele>
        <time>2015-08-26T06:30:07Z</time>
      </trkpt>
      <trkpt lat="44.60336" lon="2.22663">
        <ele>364</ele>
        <time>2015-08-26T06:30:17Z</time>
      </trkpt>
      <trkpt lat="44.6034" lon="2.22661">
        <ele>365</ele>
        <time>2015-08-26T06:30:23Z</time>
      </trkpt>
      <trkpt lat="44.60345" lon="2.22659">
        <ele>366</ele>
        <time>2015-08-26T06:30:29Z</time>
      </trkpt>
      <trkpt lat="44.6035" lon="2.22658">
        <ele>368</ele>
        <time>2015-08-26T06:30:36Z</time>
      </trkpt>
      <trkpt lat="44.60355" lon="2.22656">
        <ele>369</ele>
        <time>2015-08-26T06:30:42Z</time>
      </trkpt>
      <trkpt lat="44.6036" lon="2.22654">
        <ele>369</ele>
        <time>2015-08-26T06:30:48Z</time>
      </trkpt>
      <trkpt lat="44.60366" lon="2.22653">
        <ele>369</ele>
        <time>2015-08-26T06:30:55Z</time>
      </trkpt>
      <trkpt lat="44.60371" lon="2.22652">
        <ele>369</ele>
        <time>2015-08-26T06:31:02Z</time>
      </trkpt>
      <trkpt lat="44.60376" lon="2.22649">
        <ele>369</ele>
        <time>2015-08-26T06:31:08Z</time>
      </trkpt>
      <trkpt lat="44.60381" lon="2.22649">
        <ele>369</ele>
        <time>2015-08-26T06:31:14Z</time>
      </trkpt>
      <trkpt lat="44.60385" lon="2.22649">
        <ele>369</ele>
        <time>2015-08-26T06:31:20Z</time>
      </trkpt>
      <trkpt lat="44.6039" lon="2.22649">
        <ele>369</ele>
        <time>2015-08-26T06:31:26Z</time>
      </trkpt>
      <trkpt lat="44.60395" lon="2.22648">
        <ele>370</ele>
        <time>2015-08-26T06:31:32Z</time>
      </trkpt>
      <trkpt lat="44.604" lon="2.22648">
        <ele>370</ele>
        <time>2015-08-26T06:31:38Z</time>
      </trkpt>
      <trkpt lat="44.60405" lon="2.22648">
        <ele>369</ele>
        <time>2015-08-26T06:31:44Z</time>
      </trkpt>
      <trkpt lat="44.60415" lon="2.22648">
        <ele>370</ele>
        <time>2015-08-26T06:31:55Z</time>
      </trkpt>
      <trkpt lat="44.6042" lon="2.22648">
        <ele>371</ele>
        <time>2015-08-26T06:32:01Z</time>
      </trkpt>
      <trkpt lat="44.60425" lon="2.22647">
        <ele>370</ele>
        <time>2015-08-26T06:32:07Z</time>
      </trkpt>
      <trkpt lat="44.60431" lon="2.22648">
        <ele>371</ele>
        <time>2015-08-26T06:32:14Z</time>
      </trkpt>
      <trkpt lat="44.60435" lon="2.22647">
        <ele>372</ele>
        <time>2015-08-26T06:32:20Z</time>
      </trkpt>
      <trkpt lat="44.6044" lon="2.22647">
        <ele>372</ele>
        <time>2015-08-26T06:32:26Z</time>
      </trkpt>
      <trkpt lat="44.6045" lon="2.22645">
        <ele>373</ele>
        <time>2015-08-26T06:32:36Z</time>
      </trkpt>
      <trkpt lat="44.60455" lon="2.22644">
        <ele>373</ele>
        <time>2015-08-26T06:32:42Z</time>
      </trkpt>
      <trkpt lat="44.60459" lon="2.22641">
        <ele>374</ele>
        <time>2015-08-26T06:32:49Z</time>
      </trkpt>
      <trkpt lat="44.60464" lon="2.22638">
        <ele>375</ele>
        <time>2015-08-26T06:32:55Z</time>
      </trkpt>
      <trkpt lat="44.60468" lon="2.22634">
        <ele>375</ele>
        <time>2015-08-26T06:33:01Z</time>
      </trkpt>
      <trkpt lat="44.60472" lon="2.22631">
        <ele>375</ele>
        <time>2015-08-26T06:33:07Z</time>
      </trkpt>
      <trkpt lat="44.60477" lon="2.22628">
        <ele>376</ele>
        <time>2015-08-26T06:33:13Z</time>
      </trkpt>
      <trkpt lat="44.60481" lon="2.22624">
        <ele>376</ele>
        <time>2015-08-26T06:33:19Z</time>
      </trkpt>
      <trkpt lat="44.60489" lon="2.22615">
        <ele>377</ele>
        <time>2015-08-26T06:33:29Z</time>
      </trkpt>
      <trkpt lat="44.60493" lon="2.22611">
        <ele>377</ele>
        <time>2015-08-26T06:33:35Z</time>
      </trkpt>
      <trkpt lat="44.60503" lon="2.22605">
        <ele>378</ele>
        <time>2015-08-26T06:33:46Z</time>
      </trkpt>
      <trkpt lat="44.6051" lon="2.22599">
        <ele>378</ele>
        <time>2015-08-26T06:33:54Z</time>
      </trkpt>
      <trkpt lat="44.60519" lon="2.22595">
        <ele>379</ele>
        <time>2015-08-26T06:34:04Z</time>
      </trkpt>
      <trkpt lat="44.60529" lon="2.2259">
        <ele>380</ele>
        <time>2015-08-26T06:34:13Z</time>
      </trkpt>
      <trkpt lat="44.60536" lon="2.22581">
        <ele>378</ele>
        <time>2015-08-26T06:34:23Z</time>
      </trkpt>
      <trkpt lat="44.6054" lon="2.22569">
        <ele>378</ele>
        <time>2015-08-26T06:34:33Z</time>
      </trkpt>
      <trkpt lat="44.60538" lon="2.22555">
        <ele>378</ele>
        <time>2015-08-26T06:34:43Z</time>
      </trkpt>
      <trkpt lat="44.60537" lon="2.22549">
        <ele>377</ele>
        <time>2015-08-26T06:34:49Z</time>
      </trkpt>
      <trkpt lat="44.6054" lon="2.22543">
        <ele>376</ele>
        <time>2015-08-26T06:34:59Z</time>
      </trkpt>
      <trkpt lat="44.6055" lon="2.22541">
        <ele>374</ele>
        <time>2015-08-26T06:35:08Z</time>
      </trkpt>
      <trkpt lat="44.60559" lon="2.22538">
        <ele>376</ele>
        <time>2015-08-26T06:35:18Z</time>
      </trkpt>
      <trkpt lat="44.60569" lon="2.22535">
        <ele>377</ele>
        <time>2015-08-26T06:35:28Z</time>
      </trkpt>
      <trkpt lat="44.6058" lon="2.22532">
        <ele>377</ele>
        <time>2015-08-26T06:35:38Z</time>
      </trkpt>
      <trkpt lat="44.60585" lon="2.22532">
        <ele>377</ele>
        <time>2015-08-26T06:35:44Z</time>
      </trkpt>
      <trkpt lat="44.60596" lon="2.22531">
        <ele>376</ele>
        <time>2015-08-26T06:35:54Z</time>
      </trkpt>
      <trkpt lat="44.60605" lon="2.2253">
        <ele>376</ele>
        <time>2015-08-26T06:36:03Z</time>
      </trkpt>
      <trkpt lat="44.60614" lon="2.22527">
        <ele>376</ele>
        <time>2015-08-26T06:36:13Z</time>
      </trkpt>
      <trkpt lat="44.60624" lon="2.22525">
        <ele>376</ele>
        <time>2015-08-26T06:36:23Z</time>
      </trkpt>
      <trkpt lat="44.60633" lon="2.22522">
        <ele>376</ele>
        <time>2015-08-26T06:36:32Z</time>
      </trkpt>
      <trkpt lat="44.60643" lon="2.22521">
        <ele>374</ele>
        <time>2015-08-26T06:36:43Z</time>
      </trkpt>
      <trkpt lat="44.60648" lon="2.22519">
        <ele>374</ele>
        <time>2015-08-26T06:36:49Z</time>
      </trkpt>
      <trkpt lat="44.60658" lon="2.22515">
        <ele>374</ele>
        <time>2015-08-26T06:36:59Z</time>
      </trkpt>
      <trkpt lat="44.60667" lon="2.2251">
        <ele>375</ele>
        <time>2015-08-26T06:37:09Z</time>
      </trkpt>
      <trkpt lat="44.60677" lon="2.22508">
        <ele>375</ele>
        <time>2015-08-26T06:37:18Z</time>
      </trkpt>
      <trkpt lat="44.60686" lon="2.22503">
        <ele>374</ele>
        <time>2015-08-26T06:37:27Z</time>
      </trkpt>
      <trkpt lat="44.60696" lon="2.22498">
        <ele>374</ele>
        <time>2015-08-26T06:37:37Z</time>
      </trkpt>
      <trkpt lat="44.60706" lon="2.22494">
        <ele>373</ele>
        <time>2015-08-26T06:37:48Z</time>
      </trkpt>
      <trkpt lat="44.60712" lon="2.22491">
        <ele>373</ele>
        <time>2015-08-26T06:37:54Z</time>
      </trkpt>
      <trkpt lat="44.60721" lon="2.22488">
        <ele>373</ele>
        <time>2015-08-26T06:38:04Z</time>
      </trkpt>
      <trkpt lat="44.60731" lon="2.22484">
        <ele>373</ele>
        <time>2015-08-26T06:38:14Z</time>
      </trkpt>
      <trkpt lat="44.60741" lon="2.22481">
        <ele>373</ele>
        <time>2015-08-26T06:38:24Z</time>
      </trkpt>
      <trkpt lat="44.60749" lon="2.22476">
        <ele>372</ele>
        <time>2015-08-26T06:38:33Z</time>
      </trkpt>
      <trkpt lat="44.60759" lon="2.22473">
        <ele>372</ele>
        <time>2015-08-26T06:38:42Z</time>
      </trkpt>
      <trkpt lat="44.60766" lon="2.2247">
        <ele>371</ele>
        <time>2015-08-26T06:38:49Z</time>
      </trkpt>
      <trkpt lat="44.60776" lon="2.22465">
        <ele>372</ele>
        <time>2015-08-26T06:38:59Z</time>
      </trkpt>
      <trkpt lat="44.60786" lon="2.22461">
        <ele>372</ele>
        <time>2015-08-26T06:39:08Z</time>
      </trkpt>
      <trkpt lat="44.60795" lon="2.22457">
        <ele>371</ele>
        <time>2015-08-26T06:39:18Z</time>
      </trkpt>
      <trkpt lat="44.60806" lon="2.22455">
        <ele>370</ele>
        <time>2015-08-26T06:39:28Z</time>
      </trkpt>
      <trkpt lat="44.60815" lon="2.22451">
        <ele>370</ele>
        <time>2015-08-26T06:39:38Z</time>
      </trkpt>
      <trkpt lat="44.60821" lon="2.22451">
        <ele>370</ele>
        <time>2015-08-26T06:39:44Z</time>
      </trkpt>
      <trkpt lat="44.60831" lon="2.22446">
        <ele>369</ele>
        <time>2015-08-26T06:39:54Z</time>
      </trkpt>
      <trkpt lat="44.6084" lon="2.22442">
        <ele>368</ele>
        <time>2015-08-26T06:40:02Z</time>
      </trkpt>
      <trkpt lat="44.60851" lon="2.22436">
        <ele>366</ele>
        <time>2015-08-26T06:40:13Z</time>
      </trkpt>
      <trkpt lat="44.6086" lon="2.22432">
        <ele>365</ele>
        <time>2015-08-26T06:40:23Z</time>
      </trkpt>
      <trkpt lat="44.6087" lon="2.22429">
        <ele>366</ele>
        <time>2015-08-26T06:40:33Z</time>
      </trkpt>
      <trkpt lat="44.60879" lon="2.22425">
        <ele>367</ele>
        <time>2015-08-26T06:40:42Z</time>
      </trkpt>
      <trkpt lat="44.60886" lon="2.22421">
        <ele>367</ele>
        <time>2015-08-26T06:40:49Z</time>
      </trkpt>
      <trkpt lat="44.60895" lon="2.22416">
        <ele>368</ele>
        <time>2015-08-26T06:40:59Z</time>
      </trkpt>
      <trkpt lat="44.60899" lon="2.22413">
        <ele>369</ele>
        <time>2015-08-26T06:41:05Z</time>
      </trkpt>
      <trkpt lat="44.60907" lon="2.22406">
        <ele>368</ele>
        <time>2015-08-26T06:41:14Z</time>
      </trkpt>
      <trkpt lat="44.60913" lon="2.22402">
        <ele>368</ele>
        <time>2015-08-26T06:41:20Z</time>
      </trkpt>
      <trkpt lat="44.60922" lon="2.22398">
        <ele>370</ele>
        <time>2015-08-26T06:41:31Z</time>
      </trkpt>
      <trkpt lat="44.60931" lon="2.22396">
        <ele>370</ele>
        <time>2015-08-26T06:41:38Z</time>
      </trkpt>
      <trkpt lat="44.60941" lon="2.22393">
        <ele>367</ele>
        <time>2015-08-26T06:41:47Z</time>
      </trkpt>
      <trkpt lat="44.60947" lon="2.22387">
        <ele>367</ele>
        <time>2015-08-26T06:41:55Z</time>
      </trkpt>
      <trkpt lat="44.60955" lon="2.22378">
        <ele>369</ele>
        <time>2015-08-26T06:42:06Z</time>
      </trkpt>
      <trkpt lat="44.60965" lon="2.22373">
        <ele>366</ele>
        <time>2015-08-26T06:42:15Z</time>
      </trkpt>
      <trkpt lat="44.60975" lon="2.22368">
        <ele>366</ele>
        <time>2015-08-26T06:42:24Z</time>
      </trkpt>
      <trkpt lat="44.60985" lon="2.22364">
        <ele>364</ele>
        <time>2015-08-26T06:42:36Z</time>
      </trkpt>
      <trkpt lat="44.60994" lon="2.2236">
        <ele>364</ele>
        <time>2015-08-26T06:42:44Z</time>
      </trkpt>
      <trkpt lat="44.61003" lon="2.22354">
        <ele>364</ele>
        <time>2015-08-26T06:42:54Z</time>
      </trkpt>
      <trkpt lat="44.61008" lon="2.22351">
        <ele>364</ele>
        <time>2015-08-26T06:43:00Z</time>
      </trkpt>
      <trkpt lat="44.61015" lon="2.2234">
        <ele>365</ele>
        <time>2015-08-26T06:43:10Z</time>
      </trkpt>
      <trkpt lat="44.61019" lon="2.22327">
        <ele>364</ele>
        <time>2015-08-26T06:43:20Z</time>
      </trkpt>
      <trkpt lat="44.61023" lon="2.22313">
        <ele>362</ele>
        <time>2015-08-26T06:43:30Z</time>
      </trkpt>
      <trkpt lat="44.61025" lon="2.223">
        <ele>362</ele>
        <time>2015-08-26T06:43:39Z</time>
      </trkpt>
      <trkpt lat="44.61025" lon="2.22286">
        <ele>362</ele>
        <time>2015-08-26T06:43:49Z</time>
      </trkpt>
      <trkpt lat="44.61026" lon="2.22279">
        <ele>364</ele>
        <time>2015-08-26T06:43:56Z</time>
      </trkpt>
      <trkpt lat="44.61028" lon="2.22264">
        <ele>363</ele>
        <time>2015-08-26T06:44:06Z</time>
      </trkpt>
      <trkpt lat="44.61028" lon="2.2225">
        <ele>362</ele>
        <time>2015-08-26T06:44:16Z</time>
      </trkpt>
      <trkpt lat="44.61031" lon="2.22235">
        <ele>360</ele>
        <time>2015-08-26T06:44:25Z</time>
      </trkpt>
      <trkpt lat="44.61032" lon="2.22221">
        <ele>361</ele>
        <time>2015-08-26T06:44:35Z</time>
      </trkpt>
      <trkpt lat="44.61033" lon="2.22206">
        <ele>361</ele>
        <time>2015-08-26T06:44:45Z</time>
      </trkpt>
      <trkpt lat="44.61033" lon="2.22193">
        <ele>362</ele>
        <time>2015-08-26T06:44:54Z</time>
      </trkpt>
      <trkpt lat="44.61033" lon="2.22178">
        <ele>363</ele>
        <time>2015-08-26T06:45:03Z</time>
      </trkpt>
      <trkpt lat="44.61036" lon="2.22165">
        <ele>362</ele>
        <time>2015-08-26T06:45:11Z</time>
      </trkpt>
      <trkpt lat="44.61042" lon="2.22153">
        <ele>361</ele>
        <time>2015-08-26T06:45:21Z</time>
      </trkpt>
      <trkpt lat="44.61049" lon="2.22143">
        <ele>361</ele>
        <time>2015-08-26T06:45:30Z</time>
      </trkpt>
      <trkpt lat="44.61055" lon="2.22133">
        <ele>360</ele>
        <time>2015-08-26T06:45:39Z</time>
      </trkpt>
      <trkpt lat="44.6106" lon="2.22121">
        <ele>361</ele>
        <time>2015-08-26T06:45:48Z</time>
      </trkpt>
      <trkpt lat="44.61063" lon="2.22115">
        <ele>362</ele>
        <time>2015-08-26T06:45:54Z</time>
      </trkpt>
      <trkpt lat="44.61069" lon="2.22104">
        <ele>363</ele>
        <time>2015-08-26T06:46:03Z</time>
      </trkpt>
      <trkpt lat="44.61076" lon="2.22093">
        <ele>362</ele>
        <time>2015-08-26T06:46:13Z</time>
      </trkpt>
      <trkpt lat="44.61082" lon="2.22083">
        <ele>362</ele>
        <time>2015-08-26T06:46:23Z</time>
      </trkpt>
      <trkpt lat="44.61089" lon="2.22071">
        <ele>363</ele>
        <time>2015-08-26T06:46:33Z</time>
      </trkpt>
      <trkpt lat="44.61096" lon="2.22061">
        <ele>362</ele>
        <time>2015-08-26T06:46:43Z</time>
      </trkpt>
      <trkpt lat="44.61099" lon="2.22053">
        <ele>363</ele>
        <time>2015-08-26T06:46:49Z</time>
      </trkpt>
      <trkpt lat="44.61105" lon="2.22043">
        <ele>363</ele>
        <time>2015-08-26T06:46:59Z</time>
      </trkpt>
      <trkpt lat="44.61108" lon="2.22037">
        <ele>363</ele>
        <time>2015-08-26T06:47:05Z</time>
      </trkpt>
      <trkpt lat="44.61115" lon="2.22026">
        <ele>363</ele>
        <time>2015-08-26T06:47:15Z</time>
      </trkpt>
      <trkpt lat="44.61121" lon="2.22015">
        <ele>363</ele>
        <time>2015-08-26T06:47:24Z</time>
      </trkpt>
      <trkpt lat="44.61127" lon="2.22005">
        <ele>363</ele>
        <time>2015-08-26T06:47:34Z</time>
      </trkpt>
      <trkpt lat="44.61133" lon="2.21994">
        <ele>363</ele>
        <time>2015-08-26T06:47:44Z</time>
      </trkpt>
      <trkpt lat="44.61139" lon="2.21982">
        <ele>363</ele>
        <time>2015-08-26T06:47:54Z</time>
      </trkpt>
      <trkpt lat="44.61142" lon="2.21976">
        <ele>364</ele>
        <time>2015-08-26T06:48:00Z</time>
      </trkpt>
      <trkpt lat="44.61148" lon="2.21965">
        <ele>364</ele>
        <time>2015-08-26T06:48:10Z</time>
      </trkpt>
      <trkpt lat="44.61155" lon="2.21954">
        <ele>365</ele>
        <time>2015-08-26T06:48:20Z</time>
      </trkpt>
      <trkpt lat="44.61161" lon="2.21942">
        <ele>365</ele>
        <time>2015-08-26T06:48:30Z</time>
      </trkpt>
      <trkpt lat="44.61167" lon="2.21931">
        <ele>366</ele>
        <time>2015-08-26T06:48:41Z</time>
      </trkpt>
      <trkpt lat="44.61172" lon="2.21921">
        <ele>366</ele>
        <time>2015-08-26T06:48:49Z</time>
      </trkpt>
      <trkpt lat="44.61179" lon="2.21911">
        <ele>366</ele>
        <time>2015-08-26T06:48:59Z</time>
      </trkpt>
      <trkpt lat="44.61186" lon="2.219">
        <ele>367</ele>
        <time>2015-08-26T06:49:09Z</time>
      </trkpt>
      <trkpt lat="44.61192" lon="2.21889">
        <ele>367</ele>
        <time>2015-08-26T06:49:19Z</time>
      </trkpt>
      <trkpt lat="44.61198" lon="2.21879">
        <ele>369</ele>
        <time>2015-08-26T06:49:30Z</time>
      </trkpt>
      <trkpt lat="44.61206" lon="2.2187">
        <ele>368</ele>
        <time>2015-08-26T06:49:39Z</time>
      </trkpt>
      <trkpt lat="44.6121" lon="2.21867">
        <ele>366</ele>
        <time>2015-08-26T06:49:45Z</time>
      </trkpt>
      <trkpt lat="44.61217" lon="2.21859">
        <ele>371</ele>
        <time>2015-08-26T07:01:25Z</time>
      </trkpt>
      <trkpt lat="44.61219" lon="2.21853">
        <ele>371</ele>
        <time>2015-08-26T07:01:31Z</time>
      </trkpt>
      <trkpt lat="44.61222" lon="2.21848">
        <ele>371</ele>
        <time>2015-08-26T07:01:37Z</time>
      </trkpt>
      <trkpt lat="44.61228" lon="2.21837">
        <ele>372</ele>
        <time>2015-08-26T07:01:47Z</time>
      </trkpt>
      <trkpt lat="44.61233" lon="2.2183">
        <ele>369</ele>
        <time>2015-08-26T07:01:54Z</time>
      </trkpt>
      <trkpt lat="44.61241" lon="2.21821">
        <ele>368</ele>
        <time>2015-08-26T07:02:02Z</time>
      </trkpt>
      <trkpt lat="44.61249" lon="2.21813">
        <ele>369</ele>
        <time>2015-08-26T07:02:12Z</time>
      </trkpt>
      <trkpt lat="44.61253" lon="2.21808">
        <ele>370</ele>
        <time>2015-08-26T07:02:18Z</time>
      </trkpt>
      <trkpt lat="44.6126" lon="2.21798">
        <ele>370</ele>
        <time>2015-08-26T07:02:27Z</time>
      </trkpt>
      <trkpt lat="44.61267" lon="2.21788">
        <ele>371</ele>
        <time>2015-08-26T07:02:37Z</time>
      </trkpt>
      <trkpt lat="44.61274" lon="2.21777">
        <ele>372</ele>
        <time>2015-08-26T07:02:47Z</time>
      </trkpt>
      <trkpt lat="44.61278" lon="2.21769">
        <ele>372</ele>
        <time>2015-08-26T07:02:54Z</time>
      </trkpt>
      <trkpt lat="44.61283" lon="2.21757">
        <ele>374</ele>
        <time>2015-08-26T07:03:04Z</time>
      </trkpt>
      <trkpt lat="44.61284" lon="2.21744">
        <ele>374</ele>
        <time>2015-08-26T07:03:14Z</time>
      </trkpt>
      <trkpt lat="44.61284" lon="2.21729">
        <ele>373</ele>
        <time>2015-08-26T07:03:23Z</time>
      </trkpt>
      <trkpt lat="44.61286" lon="2.21716">
        <ele>372</ele>
        <time>2015-08-26T07:03:32Z</time>
      </trkpt>
      <trkpt lat="44.61287" lon="2.21703">
        <ele>372</ele>
        <time>2015-08-26T07:03:42Z</time>
      </trkpt>
      <trkpt lat="44.61288" lon="2.21693">
        <ele>372</ele>
        <time>2015-08-26T07:03:49Z</time>
      </trkpt>
      <trkpt lat="44.61291" lon="2.21679">
        <ele>371</ele>
        <time>2015-08-26T07:03:58Z</time>
      </trkpt>
      <trkpt lat="44.61293" lon="2.21666">
        <ele>372</ele>
        <time>2015-08-26T07:04:06Z</time>
      </trkpt>
      <trkpt lat="44.61295" lon="2.21652">
        <ele>372</ele>
        <time>2015-08-26T07:04:17Z</time>
      </trkpt>
      <trkpt lat="44.61297" lon="2.21638">
        <ele>372</ele>
        <time>2015-08-26T07:04:27Z</time>
      </trkpt>
      <trkpt lat="44.613" lon="2.21625">
        <ele>373</ele>
        <time>2015-08-26T07:04:37Z</time>
      </trkpt>
      <trkpt lat="44.61303" lon="2.21612">
        <ele>372</ele>
        <time>2015-08-26T07:04:47Z</time>
      </trkpt>
      <trkpt lat="44.61307" lon="2.21604">
        <ele>371</ele>
        <time>2015-08-26T07:04:54Z</time>
      </trkpt>
      <trkpt lat="44.61312" lon="2.21592">
        <ele>373</ele>
        <time>2015-08-26T07:05:04Z</time>
      </trkpt>
      <trkpt lat="44.61315" lon="2.21578">
        <ele>374</ele>
        <time>2015-08-26T07:05:15Z</time>
      </trkpt>
      <trkpt lat="44.61314" lon="2.21571">
        <ele>375</ele>
        <time>2015-08-26T07:05:21Z</time>
      </trkpt>
      <trkpt lat="44.61316" lon="2.21564">
        <ele>374</ele>
        <time>2015-08-26T07:05:27Z</time>
      </trkpt>
      <trkpt lat="44.61317" lon="2.21558">
        <ele>374</ele>
        <time>2015-08-26T07:05:33Z</time>
      </trkpt>
      <trkpt lat="44.61318" lon="2.21543">
        <ele>375</ele>
        <time>2015-08-26T07:05:43Z</time>
      </trkpt>
      <trkpt lat="44.61317" lon="2.21535">
        <ele>375</ele>
        <time>2015-08-26T07:05:49Z</time>
      </trkpt>
      <trkpt lat="44.61316" lon="2.21522">
        <ele>375</ele>
        <time>2015-08-26T07:05:59Z</time>
      </trkpt>
      <trkpt lat="44.61314" lon="2.21508">
        <ele>376</ele>
        <time>2015-08-26T07:06:10Z</time>
      </trkpt>
      <trkpt lat="44.61314" lon="2.21501">
        <ele>376</ele>
        <time>2015-08-26T07:06:16Z</time>
      </trkpt>
      <trkpt lat="44.61313" lon="2.21487">
        <ele>377</ele>
        <time>2015-08-26T07:06:26Z</time>
      </trkpt>
      <trkpt lat="44.61311" lon="2.21474">
        <ele>377</ele>
        <time>2015-08-26T07:06:37Z</time>
      </trkpt>
      <trkpt lat="44.6131" lon="2.21461">
        <ele>377</ele>
        <time>2015-08-26T07:06:47Z</time>
      </trkpt>
      <trkpt lat="44.61309" lon="2.21451">
        <ele>377</ele>
        <time>2015-08-26T07:06:54Z</time>
      </trkpt>
      <trkpt lat="44.61308" lon="2.21438">
        <ele>378</ele>
        <time>2015-08-26T07:07:04Z</time>
      </trkpt>
      <trkpt lat="44.61308" lon="2.2143">
        <ele>377</ele>
        <time>2015-08-26T07:07:10Z</time>
      </trkpt>
      <trkpt lat="44.61306" lon="2.21424">
        <ele>376</ele>
        <time>2015-08-26T07:07:17Z</time>
      </trkpt>
      <trkpt lat="44.61307" lon="2.21417">
        <ele>378</ele>
        <time>2015-08-26T07:07:27Z</time>
      </trkpt>
      <trkpt lat="44.61313" lon="2.21407">
        <ele>378</ele>
        <time>2015-08-26T07:07:37Z</time>
      </trkpt>
      <trkpt lat="44.61319" lon="2.21396">
        <ele>379</ele>
        <time>2015-08-26T07:07:47Z</time>
      </trkpt>
      <trkpt lat="44.61325" lon="2.21389">
        <ele>379</ele>
        <time>2015-08-26T07:07:54Z</time>
      </trkpt>
      <trkpt lat="44.61332" lon="2.2138">
        <ele>381</ele>
        <time>2015-08-26T07:08:03Z</time>
      </trkpt>
      <trkpt lat="44.61335" lon="2.21375">
        <ele>383</ele>
        <time>2015-08-26T07:08:09Z</time>
      </trkpt>
      <trkpt lat="44.61341" lon="2.21364">
        <ele>382</ele>
        <time>2015-08-26T07:08:19Z</time>
      </trkpt>
      <trkpt lat="44.61344" lon="2.21358">
        <ele>383</ele>
        <time>2015-08-26T07:08:25Z</time>
      </trkpt>
      <trkpt lat="44.61351" lon="2.2135">
        <ele>384</ele>
        <time>2015-08-26T07:08:34Z</time>
      </trkpt>
      <trkpt lat="44.61358" lon="2.2134">
        <ele>384</ele>
        <time>2015-08-26T07:08:44Z</time>
      </trkpt>
      <trkpt lat="44.61366" lon="2.2133">
        <ele>385</ele>
        <time>2015-08-26T07:08:54Z</time>
      </trkpt>
      <trkpt lat="44.61371" lon="2.21319">
        <ele>385</ele>
        <time>2015-08-26T07:09:04Z</time>
      </trkpt>
      <trkpt lat="44.61377" lon="2.21309">
        <ele>383</ele>
        <time>2015-08-26T07:09:14Z</time>
      </trkpt>
      <trkpt lat="44.61382" lon="2.21298">
        <ele>383</ele>
        <time>2015-08-26T07:09:23Z</time>
      </trkpt>
      <trkpt lat="44.61385" lon="2.21286">
        <ele>386</ele>
        <time>2015-08-26T07:09:33Z</time>
      </trkpt>
      <trkpt lat="44.61387" lon="2.21279">
        <ele>387</ele>
        <time>2015-08-26T07:09:39Z</time>
      </trkpt>
      <trkpt lat="44.61389" lon="2.21272">
        <ele>387</ele>
        <time>2015-08-26T07:09:45Z</time>
      </trkpt>
      <trkpt lat="44.61393" lon="2.21261">
        <ele>387</ele>
        <time>2015-08-26T07:09:54Z</time>
      </trkpt>
      <trkpt lat="44.61395" lon="2.21255">
        <ele>387</ele>
        <time>2015-08-26T07:10:00Z</time>
      </trkpt>
      <trkpt lat="44.61395" lon="2.21247">
        <ele>387</ele>
        <time>2015-08-26T07:10:06Z</time>
      </trkpt>
      <trkpt lat="44.61399" lon="2.21235">
        <ele>388</ele>
        <time>2015-08-26T07:10:16Z</time>
      </trkpt>
      <trkpt lat="44.61402" lon="2.21223">
        <ele>390</ele>
        <time>2015-08-26T07:10:27Z</time>
      </trkpt>
      <trkpt lat="44.61404" lon="2.21216">
        <ele>390</ele>
        <time>2015-08-26T07:10:34Z</time>
      </trkpt>
      <trkpt lat="44.61407" lon="2.21203">
        <ele>391</ele>
        <time>2015-08-26T07:10:44Z</time>
      </trkpt>
      <trkpt lat="44.6141" lon="2.21191">
        <ele>393</ele>
        <time>2015-08-26T07:10:55Z</time>
      </trkpt>
      <trkpt lat="44.61412" lon="2.21186">
        <ele>393</ele>
        <time>2015-08-26T07:11:01Z</time>
      </trkpt>
      <trkpt lat="44.61416" lon="2.21172">
        <ele>393</ele>
        <time>2015-08-26T07:11:12Z</time>
      </trkpt>
      <trkpt lat="44.61418" lon="2.2116">
        <ele>393</ele>
        <time>2015-08-26T07:11:23Z</time>
      </trkpt>
      <trkpt lat="44.6142" lon="2.21153">
        <ele>394</ele>
        <time>2015-08-26T07:11:29Z</time>
      </trkpt>
      <trkpt lat="44.61422" lon="2.21146">
        <ele>395</ele>
        <time>2015-08-26T07:11:35Z</time>
      </trkpt>
      <trkpt lat="44.61427" lon="2.21134">
        <ele>396</ele>
        <time>2015-08-26T07:11:46Z</time>
      </trkpt>
      <trkpt lat="44.61431" lon="2.21125">
        <ele>397</ele>
        <time>2015-08-26T07:11:54Z</time>
      </trkpt>
      <trkpt lat="44.61434" lon="2.2112">
        <ele>398</ele>
        <time>2015-08-26T07:12:00Z</time>
      </trkpt>
      <trkpt lat="44.6144" lon="2.21109">
        <ele>399</ele>
        <time>2015-08-26T07:12:11Z</time>
      </trkpt>
      <trkpt lat="44.61445" lon="2.21098">
        <ele>401</ele>
        <time>2015-08-26T07:12:22Z</time>
      </trkpt>
      <trkpt lat="44.61449" lon="2.21086">
        <ele>401</ele>
        <time>2015-08-26T07:12:32Z</time>
      </trkpt>
      <trkpt lat="44.61452" lon="2.21081">
        <ele>401</ele>
        <time>2015-08-26T07:12:38Z</time>
      </trkpt>
      <trkpt lat="44.61456" lon="2.21074">
        <ele>401</ele>
        <time>2015-08-26T07:12:44Z</time>
      </trkpt>
      <trkpt lat="44.61461" lon="2.21064">
        <ele>403</ele>
        <time>2015-08-26T07:12:55Z</time>
      </trkpt>
      <trkpt lat="44.61464" lon="2.21059">
        <ele>404</ele>
        <time>2015-08-26T07:13:01Z</time>
      </trkpt>
      <trkpt lat="44.61466" lon="2.21053">
        <ele>405</ele>
        <time>2015-08-26T07:13:07Z</time>
      </trkpt>
      <trkpt lat="44.61469" lon="2.21047">
        <ele>405</ele>
        <time>2015-08-26T07:13:13Z</time>
      </trkpt>
      <trkpt lat="44.61471" lon="2.21041">
        <ele>405</ele>
        <time>2015-08-26T07:13:20Z</time>
      </trkpt>
      <trkpt lat="44.61473" lon="2.21034">
        <ele>406</ele>
        <time>2015-08-26T07:13:26Z</time>
      </trkpt>
      <trkpt lat="44.61476" lon="2.21029">
        <ele>406</ele>
        <time>2015-08-26T07:13:32Z</time>
      </trkpt>
      <trkpt lat="44.61479" lon="2.21023">
        <ele>406</ele>
        <time>2015-08-26T07:13:38Z</time>
      </trkpt>
      <trkpt lat="44.61484" lon="2.21012">
        <ele>407</ele>
        <time>2015-08-26T07:13:48Z</time>
      </trkpt>
      <trkpt lat="44.61488" lon="2.21004">
        <ele>410</ele>
        <time>2015-08-26T07:13:55Z</time>
      </trkpt>
      <trkpt lat="44.61489" lon="2.20991">
        <ele>410</ele>
        <time>2015-08-26T07:14:04Z</time>
      </trkpt>
      <trkpt lat="44.61491" lon="2.20978">
        <ele>410</ele>
        <time>2015-08-26T07:14:14Z</time>
      </trkpt>
      <trkpt lat="44.61496" lon="2.20965">
        <ele>414</ele>
        <time>2015-08-26T07:14:24Z</time>
      </trkpt>
      <trkpt lat="44.61499" lon="2.20951">
        <ele>413</ele>
        <time>2015-08-26T07:14:34Z</time>
      </trkpt>
      <trkpt lat="44.61504" lon="2.20939">
        <ele>413</ele>
        <time>2015-08-26T07:14:44Z</time>
      </trkpt>
      <trkpt lat="44.6151" lon="2.20928">
        <ele>413</ele>
        <time>2015-08-26T07:14:54Z</time>
      </trkpt>
      <trkpt lat="44.61513" lon="2.20922">
        <ele>413</ele>
        <time>2015-08-26T07:15:00Z</time>
      </trkpt>
      <trkpt lat="44.61519" lon="2.20911">
        <ele>414</ele>
        <time>2015-08-26T07:15:11Z</time>
      </trkpt>
      <trkpt lat="44.61523" lon="2.20906">
        <ele>414</ele>
        <time>2015-08-26T07:15:17Z</time>
      </trkpt>
      <trkpt lat="44.61529" lon="2.20895">
        <ele>413</ele>
        <time>2015-08-26T07:15:27Z</time>
      </trkpt>
      <trkpt lat="44.61536" lon="2.20884">
        <ele>414</ele>
        <time>2015-08-26T07:15:38Z</time>
      </trkpt>
      <trkpt lat="44.61542" lon="2.20875">
        <ele>415</ele>
        <time>2015-08-26T07:15:49Z</time>
      </trkpt>
      <trkpt lat="44.61549" lon="2.20865">
        <ele>415</ele>
        <time>2015-08-26T07:15:59Z</time>
      </trkpt>
      <trkpt lat="44.61554" lon="2.20854">
        <ele>417</ele>
        <time>2015-08-26T07:16:10Z</time>
      </trkpt>
      <trkpt lat="44.61557" lon="2.20847">
        <ele>417</ele>
        <time>2015-08-26T07:16:16Z</time>
      </trkpt>
      <trkpt lat="44.6156" lon="2.20842">
        <ele>418</ele>
        <time>2015-08-26T07:16:23Z</time>
      </trkpt>
      <trkpt lat="44.61565" lon="2.2083">
        <ele>419</ele>
        <time>2015-08-26T07:16:33Z</time>
      </trkpt>
      <trkpt lat="44.61567" lon="2.20825">
        <ele>421</ele>
        <time>2015-08-26T07:16:39Z</time>
      </trkpt>
      <trkpt lat="44.6157" lon="2.20819">
        <ele>422</ele>
        <time>2015-08-26T07:16:46Z</time>
      </trkpt>
      <trkpt lat="44.61573" lon="2.20809">
        <ele>421</ele>
        <time>2015-08-26T07:16:55Z</time>
      </trkpt>
      <trkpt lat="44.61575" lon="2.20803">
        <ele>421</ele>
        <time>2015-08-26T07:17:02Z</time>
      </trkpt>
      <trkpt lat="44.61578" lon="2.20791">
        <ele>420</ele>
        <time>2015-08-26T07:17:12Z</time>
      </trkpt>
      <trkpt lat="44.61579" lon="2.20778">
        <ele>421</ele>
        <time>2015-08-26T07:17:23Z</time>
      </trkpt>
      <trkpt lat="44.6158" lon="2.2077">
        <ele>420</ele>
        <time>2015-08-26T07:17:30Z</time>
      </trkpt>
      <trkpt lat="44.61581" lon="2.20757">
        <ele>422</ele>
        <time>2015-08-26T07:17:40Z</time>
      </trkpt>
      <trkpt lat="44.61581" lon="2.2075">
        <ele>422</ele>
        <time>2015-08-26T07:17:46Z</time>
      </trkpt>
      <trkpt lat="44.61583" lon="2.20741">
        <ele>423</ele>
        <time>2015-08-26T07:17:55Z</time>
      </trkpt>
      <trkpt lat="44.61584" lon="2.20734">
        <ele>423</ele>
        <time>2015-08-26T07:18:01Z</time>
      </trkpt>
      <trkpt lat="44.61586" lon="2.20721">
        <ele>424</ele>
        <time>2015-08-26T07:18:12Z</time>
      </trkpt>
      <trkpt lat="44.6159" lon="2.2071">
        <ele>425</ele>
        <time>2015-08-26T07:18:23Z</time>
      </trkpt>
      <trkpt lat="44.6159" lon="2.20699">
        <ele>422</ele>
        <time>2015-08-26T07:24:43Z</time>
      </trkpt>
      <trkpt lat="44.61591" lon="2.20693">
        <ele>424</ele>
        <time>2015-08-26T07:24:49Z</time>
      </trkpt>
      <trkpt lat="44.61592" lon="2.20679">
        <ele>425</ele>
        <time>2015-08-26T07:25:00Z</time>
      </trkpt>
      <trkpt lat="44.61594" lon="2.20673">
        <ele>426</ele>
        <time>2015-08-26T07:25:06Z</time>
      </trkpt>
      <trkpt lat="44.61599" lon="2.20661">
        <ele>427</ele>
        <time>2015-08-26T07:25:17Z</time>
      </trkpt>
      <trkpt lat="44.61602" lon="2.20647">
        <ele>427</ele>
        <time>2015-08-26T07:25:27Z</time>
      </trkpt>
      <trkpt lat="44.61607" lon="2.20636">
        <ele>428</ele>
        <time>2015-08-26T07:25:37Z</time>
      </trkpt>
      <trkpt lat="44.6161" lon="2.20624">
        <ele>429</ele>
        <time>2015-08-26T07:25:46Z</time>
      </trkpt>
      <trkpt lat="44.61614" lon="2.20614">
        <ele>430</ele>
        <time>2015-08-26T07:25:53Z</time>
      </trkpt>
      <trkpt lat="44.61618" lon="2.206">
        <ele>430</ele>
        <time>2015-08-26T07:26:03Z</time>
      </trkpt>
      <trkpt lat="44.61623" lon="2.20589">
        <ele>430</ele>
        <time>2015-08-26T07:26:11Z</time>
      </trkpt>
      <trkpt lat="44.61628" lon="2.20576">
        <ele>431</ele>
        <time>2015-08-26T07:26:21Z</time>
      </trkpt>
      <trkpt lat="44.61634" lon="2.20565">
        <ele>433</ele>
        <time>2015-08-26T07:26:31Z</time>
      </trkpt>
      <trkpt lat="44.61639" lon="2.20552">
        <ele>434</ele>
        <time>2015-08-26T07:26:41Z</time>
      </trkpt>
      <trkpt lat="44.61643" lon="2.20542">
        <ele>435</ele>
        <time>2015-08-26T07:26:49Z</time>
      </trkpt>
      <trkpt lat="44.61647" lon="2.20529">
        <ele>437</ele>
        <time>2015-08-26T07:26:59Z</time>
      </trkpt>
      <trkpt lat="44.61651" lon="2.20517">
        <ele>438</ele>
        <time>2015-08-26T07:27:07Z</time>
      </trkpt>
      <trkpt lat="44.61656" lon="2.20505">
        <ele>441</ele>
        <time>2015-08-26T07:27:17Z</time>
      </trkpt>
      <trkpt lat="44.6166" lon="2.20492">
        <ele>443</ele>
        <time>2015-08-26T07:27:27Z</time>
      </trkpt>
      <trkpt lat="44.6166" lon="2.20478">
        <ele>443</ele>
        <time>2015-08-26T07:27:37Z</time>
      </trkpt>
      <trkpt lat="44.61662" lon="2.20464">
        <ele>441</ele>
        <time>2015-08-26T07:27:45Z</time>
      </trkpt>
      <trkpt lat="44.61663" lon="2.2045">
        <ele>441</ele>
        <time>2015-08-26T07:27:54Z</time>
      </trkpt>
      <trkpt lat="44.61666" lon="2.20437">
        <ele>439</ele>
        <time>2015-08-26T07:28:02Z</time>
      </trkpt>
      <trkpt lat="44.61668" lon="2.20423">
        <ele>439</ele>
        <time>2015-08-26T07:28:12Z</time>
      </trkpt>
      <trkpt lat="44.61668" lon="2.20409">
        <ele>439</ele>
        <time>2015-08-26T07:28:21Z</time>
      </trkpt>
      <trkpt lat="44.61669" lon="2.20396">
        <ele>439</ele>
        <time>2015-08-26T07:28:30Z</time>
      </trkpt>
      <trkpt lat="44.6167" lon="2.20382">
        <ele>439</ele>
        <time>2015-08-26T07:28:38Z</time>
      </trkpt>
      <trkpt lat="44.61671" lon="2.20367">
        <ele>438</ele>
        <time>2015-08-26T07:28:48Z</time>
      </trkpt>
      <trkpt lat="44.61672" lon="2.20357">
        <ele>438</ele>
        <time>2015-08-26T07:28:54Z</time>
      </trkpt>
      <trkpt lat="44.61672" lon="2.20342">
        <ele>438</ele>
        <time>2015-08-26T07:29:04Z</time>
      </trkpt>
      <trkpt lat="44.61674" lon="2.20329">
        <ele>437</ele>
        <time>2015-08-26T07:29:13Z</time>
      </trkpt>
      <trkpt lat="44.61674" lon="2.20321">
        <ele>438</ele>
        <time>2015-08-26T07:29:19Z</time>
      </trkpt>
      <trkpt lat="44.61674" lon="2.20308">
        <ele>438</ele>
        <time>2015-08-26T07:29:28Z</time>
      </trkpt>
      <trkpt lat="44.61675" lon="2.20295">
        <ele>439</ele>
        <time>2015-08-26T07:29:36Z</time>
      </trkpt>
      <trkpt lat="44.61676" lon="2.20281">
        <ele>440</ele>
        <time>2015-08-26T07:29:46Z</time>
      </trkpt>
      <trkpt lat="44.61677" lon="2.20268">
        <ele>442</ele>
        <time>2015-08-26T07:29:54Z</time>
      </trkpt>
      <trkpt lat="44.61678" lon="2.20255">
        <ele>441</ele>
        <time>2015-08-26T07:30:03Z</time>
      </trkpt>
      <trkpt lat="44.61679" lon="2.20241">
        <ele>441</ele>
        <time>2015-08-26T07:30:12Z</time>
      </trkpt>
      <trkpt lat="44.61681" lon="2.20227">
        <ele>442</ele>
        <time>2015-08-26T07:30:21Z</time>
      </trkpt>
      <trkpt lat="44.61681" lon="2.20214">
        <ele>443</ele>
        <time>2015-08-26T07:30:30Z</time>
      </trkpt>
      <trkpt lat="44.61683" lon="2.20199">
        <ele>442</ele>
        <time>2015-08-26T07:30:39Z</time>
      </trkpt>
      <trkpt lat="44.61683" lon="2.20185">
        <ele>444</ele>
        <time>2015-08-26T07:30:48Z</time>
      </trkpt>
      <trkpt lat="44.61684" lon="2.20176">
        <ele>444</ele>
        <time>2015-08-26T07:30:54Z</time>
      </trkpt>
      <trkpt lat="44.61685" lon="2.20162">
        <ele>444</ele>
        <time>2015-08-26T07:31:03Z</time>
      </trkpt>
      <trkpt lat="44.61685" lon="2.20146">
        <ele>444</ele>
        <time>2015-08-26T07:31:13Z</time>
      </trkpt>
      <trkpt lat="44.61685" lon="2.20132">
        <ele>443</ele>
        <time>2015-08-26T07:31:22Z</time>
      </trkpt>
      <trkpt lat="44.61683" lon="2.20119">
        <ele>443</ele>
        <time>2015-08-26T07:31:30Z</time>
      </trkpt>
      <trkpt lat="44.61681" lon="2.20106">
        <ele>442</ele>
        <time>2015-08-26T07:31:38Z</time>
      </trkpt>
      <trkpt lat="44.61678" lon="2.20092">
        <ele>442</ele>
        <time>2015-08-26T07:31:48Z</time>
      </trkpt>
      <trkpt lat="44.61676" lon="2.20078">
        <ele>442</ele>
        <time>2015-08-26T07:31:58Z</time>
      </trkpt>
      <trkpt lat="44.61672" lon="2.20064">
        <ele>442</ele>
        <time>2015-08-26T07:32:07Z</time>
      </trkpt>
      <trkpt lat="44.6167" lon="2.20051">
        <ele>442</ele>
        <time>2015-08-26T07:32:17Z</time>
      </trkpt>
      <trkpt lat="44.61668" lon="2.20037">
        <ele>442</ele>
        <time>2015-08-26T07:32:27Z</time>
      </trkpt>
      <trkpt lat="44.61665" lon="2.20023">
        <ele>443</ele>
        <time>2015-08-26T07:32:36Z</time>
      </trkpt>
      <trkpt lat="44.61663" lon="2.20008">
        <ele>443</ele>
        <time>2015-08-26T07:32:46Z</time>
      </trkpt>
      <trkpt lat="44.61659" lon="2.19997">
        <ele>444</ele>
        <time>2015-08-26T07:32:54Z</time>
      </trkpt>
      <trkpt lat="44.61654" lon="2.19986">
        <ele>444</ele>
        <time>2015-08-26T07:33:03Z</time>
      </trkpt>
      <trkpt lat="44.61648" lon="2.19975">
        <ele>443</ele>
        <time>2015-08-26T07:33:12Z</time>
      </trkpt>
      <trkpt lat="44.61641" lon="2.19965">
        <ele>442</ele>
        <time>2015-08-26T07:33:20Z</time>
      </trkpt>
      <trkpt lat="44.61632" lon="2.19957">
        <ele>444</ele>
        <time>2015-08-26T07:33:30Z</time>
      </trkpt>
      <trkpt lat="44.61623" lon="2.19949">
        <ele>442</ele>
        <time>2015-08-26T07:33:40Z</time>
      </trkpt>
      <trkpt lat="44.61614" lon="2.19942">
        <ele>444</ele>
        <time>2015-08-26T07:33:49Z</time>
      </trkpt>
      <trkpt lat="44.61604" lon="2.19937">
        <ele>442</ele>
        <time>2015-08-26T07:33:59Z</time>
      </trkpt>
      <trkpt lat="44.61594" lon="2.19932">
        <ele>442</ele>
        <time>2015-08-26T07:34:09Z</time>
      </trkpt>
      <trkpt lat="44.61586" lon="2.19922">
        <ele>440</ele>
        <time>2015-08-26T07:34:19Z</time>
      </trkpt>
      <trkpt lat="44.61579" lon="2.19912">
        <ele>442</ele>
        <time>2015-08-26T07:34:29Z</time>
      </trkpt>
      <trkpt lat="44.6158" lon="2.19899">
        <ele>438</ele>
        <time>2015-08-26T07:34:37Z</time>
      </trkpt>
      <trkpt lat="44.61585" lon="2.19886">
        <ele>441</ele>
        <time>2015-08-26T07:34:47Z</time>
      </trkpt>
      <trkpt lat="44.61589" lon="2.19877">
        <ele>444</ele>
        <time>2015-08-26T07:34:54Z</time>
      </trkpt>
      <trkpt lat="44.61591" lon="2.1987">
        <ele>447</ele>
        <time>2015-08-26T07:35:00Z</time>
      </trkpt>
      <trkpt lat="44.61594" lon="2.19863">
        <ele>447</ele>
        <time>2015-08-26T07:35:06Z</time>
      </trkpt>
      <trkpt lat="44.616" lon="2.19851">
        <ele>449</ele>
        <time>2015-08-26T07:35:15Z</time>
      </trkpt>
      <trkpt lat="44.61605" lon="2.1984">
        <ele>447</ele>
        <time>2015-08-26T07:35:24Z</time>
      </trkpt>
      <trkpt lat="44.61611" lon="2.19826">
        <ele>444</ele>
        <time>2015-08-26T07:35:33Z</time>
      </trkpt>
      <trkpt lat="44.61616" lon="2.19814">
        <ele>443</ele>
        <time>2015-08-26T07:35:42Z</time>
      </trkpt>
      <trkpt lat="44.61621" lon="2.19805">
        <ele>443</ele>
        <time>2015-08-26T07:35:49Z</time>
      </trkpt>
      <trkpt lat="44.61628" lon="2.19794">
        <ele>445</ele>
        <time>2015-08-26T07:35:58Z</time>
      </trkpt>
      <trkpt lat="44.61632" lon="2.19783">
        <ele>445</ele>
        <time>2015-08-26T07:36:06Z</time>
      </trkpt>
      <trkpt lat="44.61637" lon="2.19771">
        <ele>444</ele>
        <time>2015-08-26T07:36:15Z</time>
      </trkpt>
      <trkpt lat="44.61641" lon="2.19757">
        <ele>443</ele>
        <time>2015-08-26T07:36:25Z</time>
      </trkpt>
      <trkpt lat="44.61641" lon="2.19744">
        <ele>441</ele>
        <time>2015-08-26T07:36:35Z</time>
      </trkpt>
      <trkpt lat="44.61641" lon="2.19737">
        <ele>443</ele>
        <time>2015-08-26T07:36:41Z</time>
      </trkpt>
      <trkpt lat="44.61639" lon="2.19724">
        <ele>443</ele>
        <time>2015-08-26T07:36:49Z</time>
      </trkpt>
      <trkpt lat="44.61636" lon="2.1971">
        <ele>440</ele>
        <time>2015-08-26T07:36:59Z</time>
      </trkpt>
      <trkpt lat="44.61634" lon="2.19697">
        <ele>439</ele>
        <time>2015-08-26T07:37:08Z</time>
      </trkpt>
      <trkpt lat="44.61633" lon="2.19683">
        <ele>441</ele>
        <time>2015-08-26T07:37:17Z</time>
      </trkpt>
      <trkpt lat="44.61637" lon="2.19669">
        <ele>440</ele>
        <time>2015-08-26T07:37:26Z</time>
      </trkpt>
      <trkpt lat="44.61643" lon="2.1966">
        <ele>442</ele>
        <time>2015-08-26T07:37:35Z</time>
      </trkpt>
      <trkpt lat="44.61652" lon="2.19653">
        <ele>444</ele>
        <time>2015-08-26T07:37:43Z</time>
      </trkpt>
      <trkpt lat="44.61658" lon="2.19647">
        <ele>445</ele>
        <time>2015-08-26T07:37:49Z</time>
      </trkpt>
      <trkpt lat="44.61666" lon="2.19637">
        <ele>443</ele>
        <time>2015-08-26T07:37:59Z</time>
      </trkpt>
      <trkpt lat="44.61674" lon="2.19627">
        <ele>444</ele>
        <time>2015-08-26T07:38:09Z</time>
      </trkpt>
      <trkpt lat="44.61678" lon="2.19614">
        <ele>444</ele>
        <time>2015-08-26T07:38:19Z</time>
      </trkpt>
      <trkpt lat="44.6168" lon="2.19601">
        <ele>444</ele>
        <time>2015-08-26T07:38:29Z</time>
      </trkpt>
      <trkpt lat="44.61684" lon="2.19587">
        <ele>445</ele>
        <time>2015-08-26T07:38:39Z</time>
      </trkpt>
      <trkpt lat="44.61687" lon="2.19575">
        <ele>445</ele>
        <time>2015-08-26T07:38:48Z</time>
      </trkpt>
      <trkpt lat="44.61689" lon="2.19566">
        <ele>445</ele>
        <time>2015-08-26T07:38:54Z</time>
      </trkpt>
      <trkpt lat="44.61692" lon="2.19554">
        <ele>446</ele>
        <time>2015-08-26T07:39:02Z</time>
      </trkpt>
      <trkpt lat="44.61693" lon="2.19539">
        <ele>446</ele>
        <time>2015-08-26T07:39:12Z</time>
      </trkpt>
      <trkpt lat="44.61695" lon="2.19524">
        <ele>446</ele>
        <time>2015-08-26T07:39:22Z</time>
      </trkpt>
      <trkpt lat="44.61695" lon="2.19511">
        <ele>446</ele>
        <time>2015-08-26T07:39:30Z</time>
      </trkpt>
      <trkpt lat="44.61697" lon="2.19496">
        <ele>446</ele>
        <time>2015-08-26T07:39:40Z</time>
      </trkpt>
      <trkpt lat="44.61698" lon="2.19483">
        <ele>447</ele>
        <time>2015-08-26T07:39:49Z</time>
      </trkpt>
      <trkpt lat="44.61699" lon="2.19469">
        <ele>447</ele>
        <time>2015-08-26T07:39:58Z</time>
      </trkpt>
      <trkpt lat="44.61699" lon="2.19455">
        <ele>446</ele>
        <time>2015-08-26T07:40:09Z</time>
      </trkpt>
      <trkpt lat="44.61699" lon="2.1944">
        <ele>446</ele>
        <time>2015-08-26T07:40:19Z</time>
      </trkpt>
      <trkpt lat="44.61698" lon="2.19426">
        <ele>444</ele>
        <time>2015-08-26T07:40:29Z</time>
      </trkpt>
      <trkpt lat="44.61697" lon="2.19419">
        <ele>443</ele>
        <time>2015-08-26T07:40:35Z</time>
      </trkpt>
      <trkpt lat="44.61695" lon="2.19406">
        <ele>441</ele>
        <time>2015-08-26T07:40:45Z</time>
      </trkpt>
      <trkpt lat="44.61695" lon="2.19393">
        <ele>441</ele>
        <time>2015-08-26T07:40:54Z</time>
      </trkpt>
      <trkpt lat="44.61695" lon="2.19386">
        <ele>440</ele>
        <time>2015-08-26T07:41:00Z</time>
      </trkpt>
      <trkpt lat="44.61697" lon="2.19379">
        <ele>440</ele>
        <time>2015-08-26T07:41:08Z</time>
      </trkpt>
      <trkpt lat="44.61697" lon="2.19365">
        <ele>439</ele>
        <time>2015-08-26T07:41:18Z</time>
      </trkpt>
      <trkpt lat="44.61695" lon="2.19351">
        <ele>439</ele>
        <time>2015-08-26T07:41:28Z</time>
      </trkpt>
      <trkpt lat="44.61695" lon="2.19337">
        <ele>437</ele>
        <time>2015-08-26T07:41:37Z</time>
      </trkpt>
      <trkpt lat="44.61698" lon="2.19325">
        <ele>435</ele>
        <time>2015-08-26T07:41:46Z</time>
      </trkpt>
      <trkpt lat="44.61698" lon="2.19313">
        <ele>435</ele>
        <time>2015-08-26T07:41:54Z</time>
      </trkpt>
      <trkpt lat="44.617" lon="2.19299">
        <ele>434</ele>
        <time>2015-08-26T07:42:03Z</time>
      </trkpt>
      <trkpt lat="44.61702" lon="2.19286">
        <ele>434</ele>
        <time>2015-08-26T07:42:12Z</time>
      </trkpt>
      <trkpt lat="44.61705" lon="2.19273">
        <ele>435</ele>
        <time>2015-08-26T07:42:21Z</time>
      </trkpt>
      <trkpt lat="44.61712" lon="2.19262">
        <ele>435</ele>
        <time>2015-08-26T07:42:29Z</time>
      </trkpt>
      <trkpt lat="44.61721" lon="2.19255">
        <ele>437</ele>
        <time>2015-08-26T07:42:38Z</time>
      </trkpt>
      <trkpt lat="44.61731" lon="2.19249">
        <ele>439</ele>
        <time>2015-08-26T07:42:47Z</time>
      </trkpt>
      <trkpt lat="44.61737" lon="2.19245">
        <ele>441</ele>
        <time>2015-08-26T07:42:54Z</time>
      </trkpt>
      <trkpt lat="44.61742" lon="2.19243">
        <ele>439</ele>
        <time>2015-08-26T07:43:00Z</time>
      </trkpt>
      <trkpt lat="44.61749" lon="2.19234">
        <ele>440</ele>
        <time>2015-08-26T07:43:11Z</time>
      </trkpt>
      <trkpt lat="44.61757" lon="2.19225">
        <ele>442</ele>
        <time>2015-08-26T07:43:21Z</time>
      </trkpt>
      <trkpt lat="44.61765" lon="2.19217">
        <ele>443</ele>
        <time>2015-08-26T07:43:31Z</time>
      </trkpt>
      <trkpt lat="44.61769" lon="2.19213">
        <ele>444</ele>
        <time>2015-08-26T07:43:37Z</time>
      </trkpt>
      <trkpt lat="44.61773" lon="2.19209">
        <ele>445</ele>
        <time>2015-08-26T07:43:43Z</time>
      </trkpt>
      <trkpt lat="44.61776" lon="2.19203">
        <ele>444</ele>
        <time>2015-08-26T07:43:49Z</time>
      </trkpt>
      <trkpt lat="44.61782" lon="2.19193">
        <ele>445</ele>
        <time>2015-08-26T07:44:00Z</time>
      </trkpt>
      <trkpt lat="44.61784" lon="2.19187">
        <ele>444</ele>
        <time>2015-08-26T07:44:06Z</time>
      </trkpt>
      <trkpt lat="44.6179" lon="2.19178">
        <ele>445</ele>
        <time>2015-08-26T07:44:16Z</time>
      </trkpt>
      <trkpt lat="44.61794" lon="2.19172">
        <ele>445</ele>
        <time>2015-08-26T07:44:22Z</time>
      </trkpt>
      <trkpt lat="44.61797" lon="2.19166">
        <ele>447</ele>
        <time>2015-08-26T07:44:28Z</time>
      </trkpt>
      <trkpt lat="44.618" lon="2.1916">
        <ele>448</ele>
        <time>2015-08-26T07:44:35Z</time>
      </trkpt>
      <trkpt lat="44.61802" lon="2.19153">
        <ele>449</ele>
        <time>2015-08-26T07:44:42Z</time>
      </trkpt>
      <trkpt lat="44.61805" lon="2.19143">
        <ele>449</ele>
        <time>2015-08-26T07:44:53Z</time>
      </trkpt>
      <trkpt lat="44.61811" lon="2.19132">
        <ele>449</ele>
        <time>2015-08-26T07:45:04Z</time>
      </trkpt>
      <trkpt lat="44.61815" lon="2.19128">
        <ele>449</ele>
        <time>2015-08-26T07:45:10Z</time>
      </trkpt>
      <trkpt lat="44.61816" lon="2.19121">
        <ele>450</ele>
        <time>2015-08-26T07:45:20Z</time>
      </trkpt>
      <trkpt lat="44.61819" lon="2.19114">
        <ele>453</ele>
        <time>2015-08-26T07:45:28Z</time>
      </trkpt>
      <trkpt lat="44.61825" lon="2.19103">
        <ele>454</ele>
        <time>2015-08-26T07:45:38Z</time>
      </trkpt>
      <trkpt lat="44.61828" lon="2.19099">
        <ele>453</ele>
        <time>2015-08-26T07:45:44Z</time>
      </trkpt>
      <trkpt lat="44.6183" lon="2.19084">
        <ele>455</ele>
        <time>2015-08-26T07:45:55Z</time>
      </trkpt>
      <trkpt lat="44.61824" lon="2.19073">
        <ele>459</ele>
        <time>2015-08-26T07:46:04Z</time>
      </trkpt>
      <trkpt lat="44.61821" lon="2.19061">
        <ele>459</ele>
        <time>2015-08-26T07:46:14Z</time>
      </trkpt>
      <trkpt lat="44.61816" lon="2.19048">
        <ele>459</ele>
        <time>2015-08-26T07:46:25Z</time>
      </trkpt>
      <trkpt lat="44.61813" lon="2.19041">
        <ele>465</ele>
        <time>2015-08-26T08:04:14Z</time>
      </trkpt>
      <trkpt lat="44.61806" lon="2.19033">
        <ele>462</ele>
        <time>2015-08-26T08:04:23Z</time>
      </trkpt>
      <trkpt lat="44.618" lon="2.19032">
        <ele>462</ele>
        <time>2015-08-26T08:04:29Z</time>
      </trkpt>
      <trkpt lat="44.61792" lon="2.19037">
        <ele>464</ele>
        <time>2015-08-26T08:04:40Z</time>
      </trkpt>
      <trkpt lat="44.61787" lon="2.19037">
        <ele>464</ele>
        <time>2015-08-26T08:04:46Z</time>
      </trkpt>
      <trkpt lat="44.61783" lon="2.19046">
        <ele>464</ele>
        <time>2015-08-26T08:04:54Z</time>
      </trkpt>
      <trkpt lat="44.61781" lon="2.19052">
        <ele>463</ele>
        <time>2015-08-26T08:05:00Z</time>
      </trkpt>
      <trkpt lat="44.61782" lon="2.19067">
        <ele>461</ele>
        <time>2015-08-26T08:05:11Z</time>
      </trkpt>
      <trkpt lat="44.61782" lon="2.1906">
        <ele>463</ele>
        <time>2015-08-26T08:05:35Z</time>
      </trkpt>
      <trkpt lat="44.61782" lon="2.19052">
        <ele>461</ele>
        <time>2015-08-26T08:05:41Z</time>
      </trkpt>
      <trkpt lat="44.61784" lon="2.19042">
        <ele>460</ele>
        <time>2015-08-26T08:05:49Z</time>
      </trkpt>
      <trkpt lat="44.61786" lon="2.19029">
        <ele>461</ele>
        <time>2015-08-26T08:05:58Z</time>
      </trkpt>
      <trkpt lat="44.61786" lon="2.19015">
        <ele>461</ele>
        <time>2015-08-26T08:06:09Z</time>
      </trkpt>
      <trkpt lat="44.61777" lon="2.1901">
        <ele>458</ele>
        <time>2015-08-26T08:06:18Z</time>
      </trkpt>
      <trkpt lat="44.61768" lon="2.19001">
        <ele>459</ele>
        <time>2015-08-26T08:06:27Z</time>
      </trkpt>
      <trkpt lat="44.61762" lon="2.1899">
        <ele>459</ele>
        <time>2015-08-26T08:06:37Z</time>
      </trkpt>
      <trkpt lat="44.61756" lon="2.18979">
        <ele>458</ele>
        <time>2015-08-26T08:06:47Z</time>
      </trkpt>
      <trkpt lat="44.61752" lon="2.18971">
        <ele>458</ele>
        <time>2015-08-26T08:06:54Z</time>
      </trkpt>
      <trkpt lat="44.61747" lon="2.18959">
        <ele>457</ele>
        <time>2015-08-26T08:07:04Z</time>
      </trkpt>
      <trkpt lat="44.61741" lon="2.18947">
        <ele>456</ele>
        <time>2015-08-26T08:07:15Z</time>
      </trkpt>
      <trkpt lat="44.61734" lon="2.18938">
        <ele>454</ele>
        <time>2015-08-26T08:07:25Z</time>
      </trkpt>
      <trkpt lat="44.61728" lon="2.18927">
        <ele>453</ele>
        <time>2015-08-26T08:07:34Z</time>
      </trkpt>
      <trkpt lat="44.61721" lon="2.18917">
        <ele>453</ele>
        <time>2015-08-26T08:07:44Z</time>
      </trkpt>
      <trkpt lat="44.61716" lon="2.18906">
        <ele>451</ele>
        <time>2015-08-26T08:07:54Z</time>
      </trkpt>
      <trkpt lat="44.61711" lon="2.18895">
        <ele>449</ele>
        <time>2015-08-26T08:08:04Z</time>
      </trkpt>
      <trkpt lat="44.61707" lon="2.18884">
        <ele>449</ele>
        <time>2015-08-26T08:08:14Z</time>
      </trkpt>
      <trkpt lat="44.61702" lon="2.18872">
        <ele>447</ele>
        <time>2015-08-26T08:08:23Z</time>
      </trkpt>
      <trkpt lat="44.617" lon="2.18859">
        <ele>446</ele>
        <time>2015-08-26T08:08:33Z</time>
      </trkpt>
      <trkpt lat="44.61697" lon="2.18853">
        <ele>446</ele>
        <time>2015-08-26T08:08:39Z</time>
      </trkpt>
      <trkpt lat="44.61699" lon="2.18847">
        <ele>446</ele>
        <time>2015-08-26T08:08:45Z</time>
      </trkpt>
      <trkpt lat="44.61702" lon="2.18834">
        <ele>442</ele>
        <time>2015-08-26T08:08:54Z</time>
      </trkpt>
      <trkpt lat="44.61705" lon="2.18828">
        <ele>439</ele>
        <time>2015-08-26T08:09:01Z</time>
      </trkpt>
      <trkpt lat="44.61704" lon="2.18821">
        <ele>437</ele>
        <time>2015-08-26T08:09:07Z</time>
      </trkpt>
      <trkpt lat="44.6171" lon="2.1881">
        <ele>437</ele>
        <time>2015-08-26T08:09:17Z</time>
      </trkpt>
      <trkpt lat="44.61719" lon="2.188">
        <ele>437</ele>
        <time>2015-08-26T08:09:27Z</time>
      </trkpt>
      <trkpt lat="44.61727" lon="2.18793">
        <ele>436</ele>
        <time>2015-08-26T08:09:37Z</time>
      </trkpt>
      <trkpt lat="44.61735" lon="2.18785">
        <ele>436</ele>
        <time>2015-08-26T08:09:47Z</time>
      </trkpt>
      <trkpt lat="44.61741" lon="2.18782">
        <ele>435</ele>
        <time>2015-08-26T08:09:53Z</time>
      </trkpt>
      <trkpt lat="44.6175" lon="2.18777">
        <ele>433</ele>
        <time>2015-08-26T08:10:04Z</time>
      </trkpt>
      <trkpt lat="44.61756" lon="2.18777">
        <ele>433</ele>
        <time>2015-08-26T08:10:10Z</time>
      </trkpt>
      <trkpt lat="44.61761" lon="2.18778">
        <ele>434</ele>
        <time>2015-08-26T08:10:16Z</time>
      </trkpt>
      <trkpt lat="44.61765" lon="2.18778">
        <ele>435</ele>
        <time>2015-08-26T08:10:23Z</time>
      </trkpt>
      <trkpt lat="44.6177" lon="2.18779">
        <ele>436</ele>
        <time>2015-08-26T08:11:19Z</time>
      </trkpt>
      <trkpt lat="44.61775" lon="2.18779">
        <ele>436</ele>
        <time>2015-08-26T08:11:25Z</time>
      </trkpt>
      <trkpt lat="44.6178" lon="2.18779">
        <ele>436</ele>
        <time>2015-08-26T08:11:31Z</time>
      </trkpt>
      <trkpt lat="44.61785" lon="2.18779">
        <ele>435</ele>
        <time>2015-08-26T08:11:37Z</time>
      </trkpt>
      <trkpt lat="44.6179" lon="2.18779">
        <ele>434</ele>
        <time>2015-08-26T08:11:43Z</time>
      </trkpt>
      <trkpt lat="44.61796" lon="2.18779">
        <ele>435</ele>
        <time>2015-08-26T08:11:49Z</time>
      </trkpt>
      <trkpt lat="44.618" lon="2.1878">
        <ele>434</ele>
        <time>2015-08-26T08:11:55Z</time>
      </trkpt>
      <trkpt lat="44.6181" lon="2.1878">
        <ele>432</ele>
        <time>2015-08-26T08:12:05Z</time>
      </trkpt>
      <trkpt lat="44.61815" lon="2.1878">
        <ele>431</ele>
        <time>2015-08-26T08:12:12Z</time>
      </trkpt>
      <trkpt lat="44.61821" lon="2.1878">
        <ele>429</ele>
        <time>2015-08-26T08:12:18Z</time>
      </trkpt>
      <trkpt lat="44.61831" lon="2.1878">
        <ele>427</ele>
        <time>2015-08-26T08:12:28Z</time>
      </trkpt>
      <trkpt lat="44.61835" lon="2.18778">
        <ele>426</ele>
        <time>2015-08-26T08:12:35Z</time>
      </trkpt>
      <trkpt lat="44.6184" lon="2.18778">
        <ele>426</ele>
        <time>2015-08-26T08:12:41Z</time>
      </trkpt>
      <trkpt lat="44.61849" lon="2.18775">
        <ele>425</ele>
        <time>2015-08-26T08:12:49Z</time>
      </trkpt>
      <trkpt lat="44.61858" lon="2.18769">
        <ele>425</ele>
        <time>2015-08-26T08:12:58Z</time>
      </trkpt>
      <trkpt lat="44.61866" lon="2.18764">
        <ele>421</ele>
        <time>2015-08-26T08:13:08Z</time>
      </trkpt>
      <trkpt lat="44.61871" lon="2.1876">
        <ele>420</ele>
        <time>2015-08-26T08:13:15Z</time>
      </trkpt>
      <trkpt lat="44.61877" lon="2.1875">
        <ele>420</ele>
        <time>2015-08-26T08:13:25Z</time>
      </trkpt>
      <trkpt lat="44.61885" lon="2.18741">
        <ele>417</ele>
        <time>2015-08-26T08:13:35Z</time>
      </trkpt>
      <trkpt lat="44.61892" lon="2.1873">
        <ele>417</ele>
        <time>2015-08-26T08:13:45Z</time>
      </trkpt>
      <trkpt lat="44.61897" lon="2.1872">
        <ele>417</ele>
        <time>2015-08-26T08:13:54Z</time>
      </trkpt>
      <trkpt lat="44.61902" lon="2.18707">
        <ele>415</ele>
        <time>2015-08-26T08:14:04Z</time>
      </trkpt>
      <trkpt lat="44.61907" lon="2.18694">
        <ele>414</ele>
        <time>2015-08-26T08:14:14Z</time>
      </trkpt>
      <trkpt lat="44.61911" lon="2.18681">
        <ele>411</ele>
        <time>2015-08-26T08:14:24Z</time>
      </trkpt>
      <trkpt lat="44.61913" lon="2.18674">
        <ele>410</ele>
        <time>2015-08-26T08:14:30Z</time>
      </trkpt>
      <trkpt lat="44.61913" lon="2.18659">
        <ele>409</ele>
        <time>2015-08-26T08:14:40Z</time>
      </trkpt>
      <trkpt lat="44.61909" lon="2.18647">
        <ele>410</ele>
        <time>2015-08-26T08:14:49Z</time>
      </trkpt>
      <trkpt lat="44.61904" lon="2.18635">
        <ele>410</ele>
        <time>2015-08-26T08:14:58Z</time>
      </trkpt>
      <trkpt lat="44.61905" lon="2.18621">
        <ele>409</ele>
        <time>2015-08-26T08:15:07Z</time>
      </trkpt>
      <trkpt lat="44.61907" lon="2.18608">
        <ele>408</ele>
        <time>2015-08-26T08:15:17Z</time>
      </trkpt>
      <trkpt lat="44.6191" lon="2.18593">
        <ele>408</ele>
        <time>2015-08-26T08:15:26Z</time>
      </trkpt>
      <trkpt lat="44.61912" lon="2.1858">
        <ele>408</ele>
        <time>2015-08-26T08:15:35Z</time>
      </trkpt>
      <trkpt lat="44.61911" lon="2.18565">
        <ele>409</ele>
        <time>2015-08-26T08:15:44Z</time>
      </trkpt>
      <trkpt lat="44.61911" lon="2.18551">
        <ele>409</ele>
        <time>2015-08-26T08:15:53Z</time>
      </trkpt>
      <trkpt lat="44.61913" lon="2.18536">
        <ele>409</ele>
        <time>2015-08-26T08:16:03Z</time>
      </trkpt>
      <trkpt lat="44.61913" lon="2.18523">
        <ele>410</ele>
        <time>2015-08-26T08:16:13Z</time>
      </trkpt>
      <trkpt lat="44.61912" lon="2.18509">
        <ele>411</ele>
        <time>2015-08-26T08:16:23Z</time>
      </trkpt>
      <trkpt lat="44.61912" lon="2.18501">
        <ele>410</ele>
        <time>2015-08-26T08:16:29Z</time>
      </trkpt>
      <trkpt lat="44.61914" lon="2.18488">
        <ele>411</ele>
        <time>2015-08-26T08:16:39Z</time>
      </trkpt>
      <trkpt lat="44.61915" lon="2.18474">
        <ele>412</ele>
        <time>2015-08-26T08:16:49Z</time>
      </trkpt>
      <trkpt lat="44.61915" lon="2.18459">
        <ele>414</ele>
        <time>2015-08-26T08:16:59Z</time>
      </trkpt>
      <trkpt lat="44.61916" lon="2.18445">
        <ele>415</ele>
        <time>2015-08-26T08:17:09Z</time>
      </trkpt>
      <trkpt lat="44.61917" lon="2.1843">
        <ele>417</ele>
        <time>2015-08-26T08:17:18Z</time>
      </trkpt>
      <trkpt lat="44.61917" lon="2.18416">
        <ele>417</ele>
        <time>2015-08-26T08:17:28Z</time>
      </trkpt>
      <trkpt lat="44.61918" lon="2.18402">
        <ele>418</ele>
        <time>2015-08-26T08:17:38Z</time>
      </trkpt>
      <trkpt lat="44.61918" lon="2.18395">
        <ele>419</ele>
        <time>2015-08-26T08:17:44Z</time>
      </trkpt>
      <trkpt lat="44.61918" lon="2.18385">
        <ele>420</ele>
        <time>2015-08-26T08:17:50Z</time>
      </trkpt>
      <trkpt lat="44.61919" lon="2.18371">
        <ele>421</ele>
        <time>2015-08-26T08:18:00Z</time>
      </trkpt>
      <trkpt lat="44.61919" lon="2.18358">
        <ele>422</ele>
        <time>2015-08-26T08:18:10Z</time>
      </trkpt>
      <trkpt lat="44.61919" lon="2.18344">
        <ele>423</ele>
        <time>2015-08-26T08:18:20Z</time>
      </trkpt>
      <trkpt lat="44.61919" lon="2.18331">
        <ele>423</ele>
        <time>2015-08-26T08:18:30Z</time>
      </trkpt>
      <trkpt lat="44.6192" lon="2.18316">
        <ele>424</ele>
        <time>2015-08-26T08:18:41Z</time>
      </trkpt>
      <trkpt lat="44.6192" lon="2.18304">
        <ele>424</ele>
        <time>2015-08-26T08:18:50Z</time>
      </trkpt>
      <trkpt lat="44.61921" lon="2.18291">
        <ele>425</ele>
        <time>2015-08-26T08:19:00Z</time>
      </trkpt>
      <trkpt lat="44.61921" lon="2.18278">
        <ele>425</ele>
        <time>2015-08-26T08:19:10Z</time>
      </trkpt>
      <trkpt lat="44.61922" lon="2.18264">
        <ele>427</ele>
        <time>2015-08-26T08:19:20Z</time>
      </trkpt>
      <trkpt lat="44.61924" lon="2.18251">
        <ele>428</ele>
        <time>2015-08-26T08:19:30Z</time>
      </trkpt>
      <trkpt lat="44.61927" lon="2.18238">
        <ele>428</ele>
        <time>2015-08-26T08:19:40Z</time>
      </trkpt>
      <trkpt lat="44.61929" lon="2.18231">
        <ele>427</ele>
        <time>2015-08-26T08:19:46Z</time>
      </trkpt>
      <trkpt lat="44.61931" lon="2.18218">
        <ele>428</ele>
        <time>2015-08-26T08:19:55Z</time>
      </trkpt>
      <trkpt lat="44.61934" lon="2.18204">
        <ele>429</ele>
        <time>2015-08-26T08:20:05Z</time>
      </trkpt>
      <trkpt lat="44.61932" lon="2.18191">
        <ele>430</ele>
        <time>2015-08-26T08:20:15Z</time>
      </trkpt>
      <trkpt lat="44.61926" lon="2.18179">
        <ele>431</ele>
        <time>2015-08-26T08:20:25Z</time>
      </trkpt>
      <trkpt lat="44.61919" lon="2.18168">
        <ele>431</ele>
        <time>2015-08-26T08:20:34Z</time>
      </trkpt>
      <trkpt lat="44.61912" lon="2.1816">
        <ele>432</ele>
        <time>2015-08-26T08:20:43Z</time>
      </trkpt>
      <trkpt lat="44.61905" lon="2.18156">
        <ele>433</ele>
        <time>2015-08-26T08:20:50Z</time>
      </trkpt>
      <trkpt lat="44.61895" lon="2.18152">
        <ele>432</ele>
        <time>2015-08-26T08:21:00Z</time>
      </trkpt>
      <trkpt lat="44.61884" lon="2.18153">
        <ele>429</ele>
        <time>2015-08-26T08:21:09Z</time>
      </trkpt>
      <trkpt lat="44.61874" lon="2.1815">
        <ele>430</ele>
        <time>2015-08-26T08:21:19Z</time>
      </trkpt>
      <trkpt lat="44.61864" lon="2.18148">
        <ele>433</ele>
        <time>2015-08-26T08:21:28Z</time>
      </trkpt>
      <trkpt lat="44.61859" lon="2.18148">
        <ele>432</ele>
        <time>2015-08-26T08:21:34Z</time>
      </trkpt>
      <trkpt lat="44.61848" lon="2.18143">
        <ele>433</ele>
        <time>2015-08-26T08:21:45Z</time>
      </trkpt>
      <trkpt lat="44.61838" lon="2.18142">
        <ele>436</ele>
        <time>2015-08-26T08:21:54Z</time>
      </trkpt>
      <trkpt lat="44.61828" lon="2.18142">
        <ele>436</ele>
        <time>2015-08-26T08:22:05Z</time>
      </trkpt>
      <trkpt lat="44.61817" lon="2.18141">
        <ele>436</ele>
        <time>2015-08-26T08:22:14Z</time>
      </trkpt>
      <trkpt lat="44.61807" lon="2.18137">
        <ele>436</ele>
        <time>2015-08-26T08:22:23Z</time>
      </trkpt>
      <trkpt lat="44.61798" lon="2.18132">
        <ele>436</ele>
        <time>2015-08-26T08:22:32Z</time>
      </trkpt>
      <trkpt lat="44.61788" lon="2.18126">
        <ele>438</ele>
        <time>2015-08-26T08:22:43Z</time>
      </trkpt>
      <trkpt lat="44.61781" lon="2.1812">
        <ele>437</ele>
        <time>2015-08-26T08:22:50Z</time>
      </trkpt>
      <trkpt lat="44.61774" lon="2.18111">
        <ele>438</ele>
        <time>2015-08-26T08:22:59Z</time>
      </trkpt>
      <trkpt lat="44.61765" lon="2.18105">
        <ele>440</ele>
        <time>2015-08-26T08:23:09Z</time>
      </trkpt>
      <trkpt lat="44.61757" lon="2.18097">
        <ele>440</ele>
        <time>2015-08-26T08:23:18Z</time>
      </trkpt>
      <trkpt lat="44.61749" lon="2.1809">
        <ele>441</ele>
        <time>2015-08-26T08:23:27Z</time>
      </trkpt>
      <trkpt lat="44.61739" lon="2.18084">
        <ele>441</ele>
        <time>2015-08-26T08:23:37Z</time>
      </trkpt>
      <trkpt lat="44.61731" lon="2.18076">
        <ele>441</ele>
        <time>2015-08-26T08:23:46Z</time>
      </trkpt>
      <trkpt lat="44.61723" lon="2.18069">
        <ele>441</ele>
        <time>2015-08-26T08:23:54Z</time>
      </trkpt>
      <trkpt lat="44.61715" lon="2.18059">
        <ele>443</ele>
        <time>2015-08-26T08:24:03Z</time>
      </trkpt>
      <trkpt lat="44.61707" lon="2.18052">
        <ele>443</ele>
        <time>2015-08-26T08:24:11Z</time>
      </trkpt>
      <trkpt lat="44.61697" lon="2.18045">
        <ele>444</ele>
        <time>2015-08-26T08:24:20Z</time>
      </trkpt>
      <trkpt lat="44.61689" lon="2.18037">
        <ele>443</ele>
        <time>2015-08-26T08:24:29Z</time>
      </trkpt>
      <trkpt lat="44.61681" lon="2.18026">
        <ele>444</ele>
        <time>2015-08-26T08:24:39Z</time>
      </trkpt>
      <trkpt lat="44.6168" lon="2.18012">
        <ele>442</ele>
        <time>2015-08-26T08:24:49Z</time>
      </trkpt>
      <trkpt lat="44.61682" lon="2.18004">
        <ele>442</ele>
        <time>2015-08-26T08:24:55Z</time>
      </trkpt>
      <trkpt lat="44.61687" lon="2.17991">
        <ele>442</ele>
        <time>2015-08-26T08:25:05Z</time>
      </trkpt>
      <trkpt lat="44.61691" lon="2.17978">
        <ele>442</ele>
        <time>2015-08-26T08:25:14Z</time>
      </trkpt>
      <trkpt lat="44.61697" lon="2.17965">
        <ele>441</ele>
        <time>2015-08-26T08:25:24Z</time>
      </trkpt>
      <trkpt lat="44.61701" lon="2.17952">
        <ele>441</ele>
        <time>2015-08-26T08:25:34Z</time>
      </trkpt>
      <trkpt lat="44.61707" lon="2.17939">
        <ele>443</ele>
        <time>2015-08-26T08:25:43Z</time>
      </trkpt>
      <trkpt lat="44.61712" lon="2.17929">
        <ele>443</ele>
        <time>2015-08-26T08:25:50Z</time>
      </trkpt>
      <trkpt lat="44.61714" lon="2.17915">
        <ele>442</ele>
        <time>2015-08-26T08:26:00Z</time>
      </trkpt>
      <trkpt lat="44.61708" lon="2.17905">
        <ele>443</ele>
        <time>2015-08-26T08:26:09Z</time>
      </trkpt>
      <trkpt lat="44.61702" lon="2.17894">
        <ele>442</ele>
        <time>2015-08-26T08:26:18Z</time>
      </trkpt>
      <trkpt lat="44.61695" lon="2.17884">
        <ele>442</ele>
        <time>2015-08-26T08:26:26Z</time>
      </trkpt>
      <trkpt lat="44.61696" lon="2.17873">
        <ele>442</ele>
        <time>2015-08-26T08:26:37Z</time>
      </trkpt>
      <trkpt lat="44.61704" lon="2.17865">
        <ele>440</ele>
        <time>2015-08-26T08:26:47Z</time>
      </trkpt>
      <trkpt lat="44.61709" lon="2.17858">
        <ele>438</ele>
        <time>2015-08-26T08:26:55Z</time>
      </trkpt>
      <trkpt lat="44.61718" lon="2.17849">
        <ele>439</ele>
        <time>2015-08-26T08:27:07Z</time>
      </trkpt>
      <trkpt lat="44.61727" lon="2.17849">
        <ele>441</ele>
        <time>2015-08-26T08:27:15Z</time>
      </trkpt>
      <trkpt lat="44.61736" lon="2.17853">
        <ele>441</ele>
        <time>2015-08-26T08:27:25Z</time>
      </trkpt>
      <trkpt lat="44.61745" lon="2.17849">
        <ele>440</ele>
        <time>2015-08-26T08:27:34Z</time>
      </trkpt>
      <trkpt lat="44.61754" lon="2.17844">
        <ele>438</ele>
        <time>2015-08-26T08:27:41Z</time>
      </trkpt>
      <trkpt lat="44.61761" lon="2.17832">
        <ele>435</ele>
        <time>2015-08-26T08:27:50Z</time>
      </trkpt>
      <trkpt lat="44.61767" lon="2.17822">
        <ele>436</ele>
        <time>2015-08-26T08:27:59Z</time>
      </trkpt>
      <trkpt lat="44.61767" lon="2.17814">
        <ele>436</ele>
        <time>2015-08-26T08:28:05Z</time>
      </trkpt>
      <trkpt lat="44.61772" lon="2.17802">
        <ele>435</ele>
        <time>2015-08-26T08:28:15Z</time>
      </trkpt>
      <trkpt lat="44.61777" lon="2.17791">
        <ele>432</ele>
        <time>2015-08-26T08:28:25Z</time>
      </trkpt>
      <trkpt lat="44.61782" lon="2.17789">
        <ele>431</ele>
        <time>2015-08-26T08:28:48Z</time>
      </trkpt>
      <trkpt lat="44.61787" lon="2.17781">
        <ele>429</ele>
        <time>2015-08-26T08:28:55Z</time>
      </trkpt>
      <trkpt lat="44.61794" lon="2.17773">
        <ele>428</ele>
        <time>2015-08-26T08:29:06Z</time>
      </trkpt>
      <trkpt lat="44.618" lon="2.17773">
        <ele>428</ele>
        <time>2015-08-26T08:29:12Z</time>
      </trkpt>
      <trkpt lat="44.61809" lon="2.17775">
        <ele>427</ele>
        <time>2015-08-26T08:29:22Z</time>
      </trkpt>
      <trkpt lat="44.61819" lon="2.17777">
        <ele>426</ele>
        <time>2015-08-26T08:29:33Z</time>
      </trkpt>
      <trkpt lat="44.61829" lon="2.17774">
        <ele>424</ele>
        <time>2015-08-26T08:29:43Z</time>
      </trkpt>
      <trkpt lat="44.61834" lon="2.17773">
        <ele>424</ele>
        <time>2015-08-26T08:29:49Z</time>
      </trkpt>
      <trkpt lat="44.6184" lon="2.17769">
        <ele>423</ele>
        <time>2015-08-26T08:29:55Z</time>
      </trkpt>
      <trkpt lat="44.61847" lon="2.1776">
        <ele>423</ele>
        <time>2015-08-26T08:30:05Z</time>
      </trkpt>
      <trkpt lat="44.6185" lon="2.17755">
        <ele>423</ele>
        <time>2015-08-26T08:30:13Z</time>
      </trkpt>
      <trkpt lat="44.61858" lon="2.17744">
        <ele>424</ele>
        <time>2015-08-26T08:30:23Z</time>
      </trkpt>
      <trkpt lat="44.61864" lon="2.17732">
        <ele>424</ele>
        <time>2015-08-26T08:30:33Z</time>
      </trkpt>
      <trkpt lat="44.61868" lon="2.1772">
        <ele>427</ele>
        <time>2015-08-26T08:30:43Z</time>
      </trkpt>
      <trkpt lat="44.61869" lon="2.17713">
        <ele>429</ele>
        <time>2015-08-26T08:30:49Z</time>
      </trkpt>
      <trkpt lat="44.61869" lon="2.17706">
        <ele>430</ele>
        <time>2015-08-26T08:30:56Z</time>
      </trkpt>
      <trkpt lat="44.61869" lon="2.17698">
        <ele>431</ele>
        <time>2015-08-26T08:31:02Z</time>
      </trkpt>
      <trkpt lat="44.61869" lon="2.17691">
        <ele>430</ele>
        <time>2015-08-26T08:31:08Z</time>
      </trkpt>
      <trkpt lat="44.61875" lon="2.17681">
        <ele>430</ele>
        <time>2015-08-26T08:31:18Z</time>
      </trkpt>
      <trkpt lat="44.61882" lon="2.17672">
        <ele>430</ele>
        <time>2015-08-26T08:31:28Z</time>
      </trkpt>
      <trkpt lat="44.61887" lon="2.17659">
        <ele>430</ele>
        <time>2015-08-26T08:31:38Z</time>
      </trkpt>
      <trkpt lat="44.61891" lon="2.17645">
        <ele>430</ele>
        <time>2015-08-26T08:31:48Z</time>
      </trkpt>
      <trkpt lat="44.61891" lon="2.17636">
        <ele>430</ele>
        <time>2015-08-26T08:31:55Z</time>
      </trkpt>
      <trkpt lat="44.61892" lon="2.17622">
        <ele>430</ele>
        <time>2015-08-26T08:32:05Z</time>
      </trkpt>
      <trkpt lat="44.61897" lon="2.17609">
        <ele>429</ele>
        <time>2015-08-26T08:32:15Z</time>
      </trkpt>
      <trkpt lat="44.61906" lon="2.17603">
        <ele>428</ele>
        <time>2015-08-26T08:32:26Z</time>
      </trkpt>
      <trkpt lat="44.61915" lon="2.17596">
        <ele>427</ele>
        <time>2015-08-26T08:32:36Z</time>
      </trkpt>
      <trkpt lat="44.61924" lon="2.1759">
        <ele>427</ele>
        <time>2015-08-26T08:32:44Z</time>
      </trkpt>
      <trkpt lat="44.61929" lon="2.17584">
        <ele>428</ele>
        <time>2015-08-26T08:32:50Z</time>
      </trkpt>
      <trkpt lat="44.61935" lon="2.17572">
        <ele>427</ele>
        <time>2015-08-26T08:33:00Z</time>
      </trkpt>
      <trkpt lat="44.6194" lon="2.1756">
        <ele>427</ele>
        <time>2015-08-26T08:33:10Z</time>
      </trkpt>
      <trkpt lat="44.61946" lon="2.17548">
        <ele>427</ele>
        <time>2015-08-26T08:33:20Z</time>
      </trkpt>
      <trkpt lat="44.61951" lon="2.17536">
        <ele>426</ele>
        <time>2015-08-26T08:33:29Z</time>
      </trkpt>
      <trkpt lat="44.61956" lon="2.17525">
        <ele>425</ele>
        <time>2015-08-26T08:33:38Z</time>
      </trkpt>
      <trkpt lat="44.61961" lon="2.17513">
        <ele>424</ele>
        <time>2015-08-26T08:33:48Z</time>
      </trkpt>
      <trkpt lat="44.61965" lon="2.17505">
        <ele>424</ele>
        <time>2015-08-26T08:33:55Z</time>
      </trkpt>
      <trkpt lat="44.6197" lon="2.17493">
        <ele>424</ele>
        <time>2015-08-26T08:34:05Z</time>
      </trkpt>
      <trkpt lat="44.61975" lon="2.17481">
        <ele>423</ele>
        <time>2015-08-26T08:34:15Z</time>
      </trkpt>
      <trkpt lat="44.6198" lon="2.1747">
        <ele>423</ele>
        <time>2015-08-26T08:34:24Z</time>
      </trkpt>
      <trkpt lat="44.61985" lon="2.17459">
        <ele>422</ele>
        <time>2015-08-26T08:34:32Z</time>
      </trkpt>
      <trkpt lat="44.61991" lon="2.17447">
        <ele>422</ele>
        <time>2015-08-26T08:34:42Z</time>
      </trkpt>
      <trkpt lat="44.61995" lon="2.17436">
        <ele>421</ele>
        <time>2015-08-26T08:34:50Z</time>
      </trkpt>
      <trkpt lat="44.61996" lon="2.17422">
        <ele>421</ele>
        <time>2015-08-26T08:35:00Z</time>
      </trkpt>
      <trkpt lat="44.61996" lon="2.17414">
        <ele>421</ele>
        <time>2015-08-26T08:35:06Z</time>
      </trkpt>
      <trkpt lat="44.61995" lon="2.17401">
        <ele>421</ele>
        <time>2015-08-26T08:35:16Z</time>
      </trkpt>
      <trkpt lat="44.61992" lon="2.17386">
        <ele>419</ele>
        <time>2015-08-26T08:35:26Z</time>
      </trkpt>
      <trkpt lat="44.61987" lon="2.17373">
        <ele>419</ele>
        <time>2015-08-26T08:35:35Z</time>
      </trkpt>
      <trkpt lat="44.61982" lon="2.17361">
        <ele>420</ele>
        <time>2015-08-26T08:35:45Z</time>
      </trkpt>
      <trkpt lat="44.61977" lon="2.17349">
        <ele>419</ele>
        <time>2015-08-26T08:35:55Z</time>
      </trkpt>
      <trkpt lat="44.61974" lon="2.17336">
        <ele>418</ele>
        <time>2015-08-26T08:36:05Z</time>
      </trkpt>
      <trkpt lat="44.61971" lon="2.17329">
        <ele>418</ele>
        <time>2015-08-26T08:36:11Z</time>
      </trkpt>
      <trkpt lat="44.61967" lon="2.17317">
        <ele>417</ele>
        <time>2015-08-26T08:36:21Z</time>
      </trkpt>
      <trkpt lat="44.61964" lon="2.1731">
        <ele>417</ele>
        <time>2015-08-26T08:36:27Z</time>
      </trkpt>
      <trkpt lat="44.6196" lon="2.17297">
        <ele>416</ele>
        <time>2015-08-26T08:36:37Z</time>
      </trkpt>
      <trkpt lat="44.61955" lon="2.17284">
        <ele>416</ele>
        <time>2015-08-26T08:36:47Z</time>
      </trkpt>
      <trkpt lat="44.61951" lon="2.17274">
        <ele>415</ele>
        <time>2015-08-26T08:36:55Z</time>
      </trkpt>
      <trkpt lat="44.61948" lon="2.17261">
        <ele>416</ele>
        <time>2015-08-26T08:37:05Z</time>
      </trkpt>
      <trkpt lat="44.61943" lon="2.17248">
        <ele>415</ele>
        <time>2015-08-26T08:37:15Z</time>
      </trkpt>
      <trkpt lat="44.61939" lon="2.17236">
        <ele>415</ele>
        <time>2015-08-26T08:37:24Z</time>
      </trkpt>
      <trkpt lat="44.61934" lon="2.17223">
        <ele>414</ele>
        <time>2015-08-26T08:37:34Z</time>
      </trkpt>
      <trkpt lat="44.6193" lon="2.17212">
        <ele>413</ele>
        <time>2015-08-26T08:37:44Z</time>
      </trkpt>
      <trkpt lat="44.61928" lon="2.17204">
        <ele>413</ele>
        <time>2015-08-26T08:37:50Z</time>
      </trkpt>
      <trkpt lat="44.61924" lon="2.1719">
        <ele>411</ele>
        <time>2015-08-26T08:38:00Z</time>
      </trkpt>
      <trkpt lat="44.61921" lon="2.17178">
        <ele>410</ele>
        <time>2015-08-26T08:38:10Z</time>
      </trkpt>
      <trkpt lat="44.61917" lon="2.17164">
        <ele>407</ele>
        <time>2015-08-26T08:38:20Z</time>
      </trkpt>
      <trkpt lat="44.61916" lon="2.1715">
        <ele>408</ele>
        <time>2015-08-26T08:38:30Z</time>
      </trkpt>
      <trkpt lat="44.61914" lon="2.17136">
        <ele>407</ele>
        <time>2015-08-26T08:38:39Z</time>
      </trkpt>
      <trkpt lat="44.61912" lon="2.17123">
        <ele>406</ele>
        <time>2015-08-26T08:38:49Z</time>
      </trkpt>
      <trkpt lat="44.61912" lon="2.17114">
        <ele>405</ele>
        <time>2015-08-26T08:38:55Z</time>
      </trkpt>
      <trkpt lat="44.61909" lon="2.17101">
        <ele>405</ele>
        <time>2015-08-26T08:39:05Z</time>
      </trkpt>
      <trkpt lat="44.61908" lon="2.17087">
        <ele>404</ele>
        <time>2015-08-26T08:39:14Z</time>
      </trkpt>
      <trkpt lat="44.61906" lon="2.17073">
        <ele>403</ele>
        <time>2015-08-26T08:39:24Z</time>
      </trkpt>
      <trkpt lat="44.61906" lon="2.17058">
        <ele>402</ele>
        <time>2015-08-26T08:39:34Z</time>
      </trkpt>
      <trkpt lat="44.61906" lon="2.17044">
        <ele>400</ele>
        <time>2015-08-26T08:39:44Z</time>
      </trkpt>
      <trkpt lat="44.61908" lon="2.17036">
        <ele>400</ele>
        <time>2015-08-26T08:39:50Z</time>
      </trkpt>
      <trkpt lat="44.61909" lon="2.17022">
        <ele>399</ele>
        <time>2015-08-26T08:39:59Z</time>
      </trkpt>
      <trkpt lat="44.61911" lon="2.17008">
        <ele>398</ele>
        <time>2015-08-26T08:40:09Z</time>
      </trkpt>
      <trkpt lat="44.61913" lon="2.16994">
        <ele>397</ele>
        <time>2015-08-26T08:40:19Z</time>
      </trkpt>
      <trkpt lat="44.61915" lon="2.16979">
        <ele>397</ele>
        <time>2015-08-26T08:40:29Z</time>
      </trkpt>
      <trkpt lat="44.61916" lon="2.16966">
        <ele>398</ele>
        <time>2015-08-26T08:40:38Z</time>
      </trkpt>
      <trkpt lat="44.61918" lon="2.16951">
        <ele>398</ele>
        <time>2015-08-26T08:40:48Z</time>
      </trkpt>
      <trkpt lat="44.61918" lon="2.16941">
        <ele>398</ele>
        <time>2015-08-26T08:40:54Z</time>
      </trkpt>
      <trkpt lat="44.61921" lon="2.16927">
        <ele>397</ele>
        <time>2015-08-26T08:41:03Z</time>
      </trkpt>
      <trkpt lat="44.61922" lon="2.16913">
        <ele>398</ele>
        <time>2015-08-26T08:41:13Z</time>
      </trkpt>
      <trkpt lat="44.61922" lon="2.16898">
        <ele>398</ele>
        <time>2015-08-26T08:41:23Z</time>
      </trkpt>
      <trkpt lat="44.61924" lon="2.16883">
        <ele>397</ele>
        <time>2015-08-26T08:41:33Z</time>
      </trkpt>
      <trkpt lat="44.61927" lon="2.1687">
        <ele>398</ele>
        <time>2015-08-26T08:41:42Z</time>
      </trkpt>
      <trkpt lat="44.61927" lon="2.1686">
        <ele>397</ele>
        <time>2015-08-26T08:41:50Z</time>
      </trkpt>
      <trkpt lat="44.61919" lon="2.16852">
        <ele>398</ele>
        <time>2015-08-26T08:41:59Z</time>
      </trkpt>
      <trkpt lat="44.6191" lon="2.16847">
        <ele>399</ele>
        <time>2015-08-26T08:42:08Z</time>
      </trkpt>
      <trkpt lat="44.619" lon="2.16842">
        <ele>399</ele>
        <time>2015-08-26T08:42:18Z</time>
      </trkpt>
      <trkpt lat="44.61891" lon="2.16837">
        <ele>399</ele>
        <time>2015-08-26T08:42:28Z</time>
      </trkpt>
      <trkpt lat="44.6188" lon="2.16833">
        <ele>399</ele>
        <time>2015-08-26T08:42:39Z</time>
      </trkpt>
      <trkpt lat="44.6187" lon="2.16831">
        <ele>400</ele>
        <time>2015-08-26T08:42:49Z</time>
      </trkpt>
      <trkpt lat="44.6186" lon="2.1683">
        <ele>398</ele>
        <time>2015-08-26T08:42:59Z</time>
      </trkpt>
      <trkpt lat="44.6185" lon="2.16828">
        <ele>397</ele>
        <time>2015-08-26T08:43:09Z</time>
      </trkpt>
      <trkpt lat="44.61845" lon="2.16825">
        <ele>398</ele>
        <time>2015-08-26T08:43:15Z</time>
      </trkpt>
      <trkpt lat="44.6184" lon="2.16825">
        <ele>398</ele>
        <time>2015-08-26T08:43:28Z</time>
      </trkpt>
      <trkpt lat="44.6183" lon="2.16823">
        <ele>398</ele>
        <time>2015-08-26T08:43:37Z</time>
      </trkpt>
      <trkpt lat="44.6182" lon="2.16819">
        <ele>397</ele>
        <time>2015-08-26T08:43:47Z</time>
      </trkpt>
      <trkpt lat="44.61813" lon="2.16818">
        <ele>397</ele>
        <time>2015-08-26T08:43:55Z</time>
      </trkpt>
      <trkpt lat="44.61803" lon="2.16814">
        <ele>395</ele>
        <time>2015-08-26T08:44:05Z</time>
      </trkpt>
      <trkpt lat="44.61792" lon="2.16813">
        <ele>395</ele>
        <time>2015-08-26T08:44:15Z</time>
      </trkpt>
      <trkpt lat="44.61788" lon="2.16813">
        <ele>394</ele>
        <time>2015-08-26T08:44:21Z</time>
      </trkpt>
      <trkpt lat="44.61778" lon="2.16814">
        <ele>392</ele>
        <time>2015-08-26T08:44:30Z</time>
      </trkpt>
      <trkpt lat="44.61773" lon="2.16816">
        <ele>391</ele>
        <time>2015-08-26T08:44:36Z</time>
      </trkpt>
      <trkpt lat="44.61768" lon="2.16817">
        <ele>392</ele>
        <time>2015-08-26T08:44:42Z</time>
      </trkpt>
      <trkpt lat="44.6176" lon="2.1682">
        <ele>391</ele>
        <time>2015-08-26T08:44:50Z</time>
      </trkpt>
      <trkpt lat="44.6175" lon="2.16823">
        <ele>390</ele>
        <time>2015-08-26T08:45:00Z</time>
      </trkpt>
      <trkpt lat="44.61742" lon="2.16829">
        <ele>390</ele>
        <time>2015-08-26T08:45:08Z</time>
      </trkpt>
      <trkpt lat="44.61734" lon="2.16836">
        <ele>388</ele>
        <time>2015-08-26T08:45:18Z</time>
      </trkpt>
      <trkpt lat="44.61725" lon="2.16843">
        <ele>388</ele>
        <time>2015-08-26T08:45:28Z</time>
      </trkpt>
      <trkpt lat="44.6172" lon="2.16846">
        <ele>387</ele>
        <time>2015-08-26T08:45:34Z</time>
      </trkpt>
      <trkpt lat="44.61711" lon="2.1685">
        <ele>388</ele>
        <time>2015-08-26T08:45:50Z</time>
      </trkpt>
      <trkpt lat="44.61701" lon="2.16849">
        <ele>388</ele>
        <time>2015-08-26T08:45:59Z</time>
      </trkpt>
      <trkpt lat="44.61691" lon="2.16848">
        <ele>388</ele>
        <time>2015-08-26T08:46:09Z</time>
      </trkpt>
      <trkpt lat="44.61684" lon="2.1684">
        <ele>388</ele>
        <time>2015-08-26T08:46:24Z</time>
      </trkpt>
      <trkpt lat="44.61687" lon="2.16833">
        <ele>385</ele>
        <time>2015-08-26T08:59:35Z</time>
      </trkpt>
      <trkpt lat="44.61686" lon="2.16827">
        <ele>385</ele>
        <time>2015-08-26T08:59:41Z</time>
      </trkpt>
      <trkpt lat="44.61686" lon="2.16819">
        <ele>384</ele>
        <time>2015-08-26T08:59:48Z</time>
      </trkpt>
      <trkpt lat="44.61684" lon="2.1681">
        <ele>384</ele>
        <time>2015-08-26T08:59:55Z</time>
      </trkpt>
      <trkpt lat="44.61683" lon="2.16804">
        <ele>385</ele>
        <time>2015-08-26T09:00:01Z</time>
      </trkpt>
      <trkpt lat="44.61682" lon="2.16796">
        <ele>385</ele>
        <time>2015-08-26T09:00:07Z</time>
      </trkpt>
      <trkpt lat="44.61681" lon="2.1679">
        <ele>384</ele>
        <time>2015-08-26T09:00:16Z</time>
      </trkpt>
      <trkpt lat="44.61681" lon="2.16783">
        <ele>384</ele>
        <time>2015-08-26T09:00:22Z</time>
      </trkpt>
      <trkpt lat="44.61683" lon="2.16769">
        <ele>380</ele>
        <time>2015-08-26T09:00:34Z</time>
      </trkpt>
      <trkpt lat="44.61683" lon="2.16756">
        <ele>379</ele>
        <time>2015-08-26T09:00:43Z</time>
      </trkpt>
      <trkpt lat="44.61681" lon="2.16748">
        <ele>378</ele>
        <time>2015-08-26T09:00:49Z</time>
      </trkpt>
      <trkpt lat="44.61681" lon="2.1674">
        <ele>378</ele>
        <time>2015-08-26T09:00:55Z</time>
      </trkpt>
      <trkpt lat="44.61682" lon="2.16733">
        <ele>377</ele>
        <time>2015-08-26T09:01:01Z</time>
      </trkpt>
      <trkpt lat="44.61681" lon="2.16726">
        <ele>378</ele>
        <time>2015-08-26T09:01:07Z</time>
      </trkpt>
      <trkpt lat="44.61681" lon="2.16719">
        <ele>378</ele>
        <time>2015-08-26T09:01:13Z</time>
      </trkpt>
      <trkpt lat="44.61679" lon="2.16712">
        <ele>378</ele>
        <time>2015-08-26T09:01:19Z</time>
      </trkpt>
      <trkpt lat="44.61675" lon="2.16698">
        <ele>378</ele>
        <time>2015-08-26T09:01:30Z</time>
      </trkpt>
      <trkpt lat="44.61673" lon="2.16692">
        <ele>377</ele>
        <time>2015-08-26T09:01:43Z</time>
      </trkpt>
      <trkpt lat="44.61671" lon="2.16686">
        <ele>376</ele>
        <time>2015-08-26T09:01:49Z</time>
      </trkpt>
      <trkpt lat="44.61669" lon="2.16678">
        <ele>375</ele>
        <time>2015-08-26T09:01:56Z</time>
      </trkpt>
      <trkpt lat="44.61668" lon="2.16665">
        <ele>373</ele>
        <time>2015-08-26T09:02:07Z</time>
      </trkpt>
      <trkpt lat="44.61666" lon="2.16658">
        <ele>372</ele>
        <time>2015-08-26T09:02:14Z</time>
      </trkpt>
      <trkpt lat="44.61665" lon="2.16651">
        <ele>372</ele>
        <time>2015-08-26T09:02:21Z</time>
      </trkpt>
      <trkpt lat="44.61663" lon="2.16644">
        <ele>372</ele>
        <time>2015-08-26T09:02:27Z</time>
      </trkpt>
      <trkpt lat="44.61663" lon="2.16638">
        <ele>370</ele>
        <time>2015-08-26T09:02:33Z</time>
      </trkpt>
      <trkpt lat="44.61662" lon="2.16631">
        <ele>369</ele>
        <time>2015-08-26T09:02:39Z</time>
      </trkpt>
      <trkpt lat="44.6166" lon="2.16624">
        <ele>369</ele>
        <time>2015-08-26T09:02:45Z</time>
      </trkpt>
      <trkpt lat="44.61658" lon="2.16611">
        <ele>369</ele>
        <time>2015-08-26T09:03:02Z</time>
      </trkpt>
      <trkpt lat="44.61656" lon="2.16604">
        <ele>367</ele>
        <time>2015-08-26T09:03:10Z</time>
      </trkpt>
      <trkpt lat="44.61654" lon="2.16598">
        <ele>368</ele>
        <time>2015-08-26T09:03:17Z</time>
      </trkpt>
      <trkpt lat="44.61652" lon="2.16593">
        <ele>368</ele>
        <time>2015-08-26T09:03:24Z</time>
      </trkpt>
      <trkpt lat="44.61649" lon="2.16581">
        <ele>364</ele>
        <time>2015-08-26T09:03:38Z</time>
      </trkpt>
      <trkpt lat="44.61647" lon="2.16574">
        <ele>361</ele>
        <time>2015-08-26T09:03:47Z</time>
      </trkpt>
      <trkpt lat="44.61644" lon="2.16568">
        <ele>361</ele>
        <time>2015-08-26T09:03:57Z</time>
      </trkpt>
      <trkpt lat="44.61642" lon="2.16561">
        <ele>363</ele>
        <time>2015-08-26T09:04:07Z</time>
      </trkpt>
      <trkpt lat="44.61639" lon="2.16556">
        <ele>361</ele>
        <time>2015-08-26T09:04:18Z</time>
      </trkpt>
      <trkpt lat="44.61637" lon="2.1655">
        <ele>361</ele>
        <time>2015-08-26T09:04:29Z</time>
      </trkpt>
      <trkpt lat="44.61636" lon="2.16544">
        <ele>360</ele>
        <time>2015-08-26T09:04:38Z</time>
      </trkpt>
      <trkpt lat="44.61628" lon="2.16537">
        <ele>358</ele>
        <time>2015-08-26T09:04:49Z</time>
      </trkpt>
      <trkpt lat="44.61624" lon="2.16533">
        <ele>357</ele>
        <time>2015-08-26T09:04:55Z</time>
      </trkpt>
      <trkpt lat="44.61623" lon="2.16526">
        <ele>356</ele>
        <time>2015-08-26T09:05:02Z</time>
      </trkpt>
      <trkpt lat="44.6162" lon="2.16521">
        <ele>353</ele>
        <time>2015-08-26T09:05:09Z</time>
      </trkpt>
      <trkpt lat="44.61617" lon="2.16515">
        <ele>353</ele>
        <time>2015-08-26T09:05:17Z</time>
      </trkpt>
      <trkpt lat="44.61614" lon="2.1651">
        <ele>351</ele>
        <time>2015-08-26T09:05:23Z</time>
      </trkpt>
      <trkpt lat="44.61614" lon="2.16504">
        <ele>350</ele>
        <time>2015-08-26T09:05:34Z</time>
      </trkpt>
      <trkpt lat="44.6161" lon="2.16499">
        <ele>351</ele>
        <time>2015-08-26T09:05:40Z</time>
      </trkpt>
      <trkpt lat="44.61604" lon="2.16492">
        <ele>353</ele>
        <time>2015-08-26T09:05:50Z</time>
      </trkpt>
      <trkpt lat="44.61601" lon="2.16486">
        <ele>353</ele>
        <time>2015-08-26T09:05:59Z</time>
      </trkpt>
      <trkpt lat="44.61604" lon="2.16475">
        <ele>352</ele>
        <time>2015-08-26T09:06:08Z</time>
      </trkpt>
      <trkpt lat="44.61607" lon="2.1647">
        <ele>346</ele>
        <time>2015-08-26T09:06:46Z</time>
      </trkpt>
      <trkpt lat="44.6161" lon="2.16465">
        <ele>344</ele>
        <time>2015-08-26T09:06:58Z</time>
      </trkpt>
      <trkpt lat="44.61612" lon="2.16459">
        <ele>345</ele>
        <time>2015-08-26T09:07:04Z</time>
      </trkpt>
      <trkpt lat="44.61614" lon="2.16453">
        <ele>345</ele>
        <time>2015-08-26T09:07:10Z</time>
      </trkpt>
      <trkpt lat="44.61613" lon="2.16446">
        <ele>343</ele>
        <time>2015-08-26T09:07:34Z</time>
      </trkpt>
      <trkpt lat="44.61606" lon="2.16437">
        <ele>343</ele>
        <time>2015-08-26T09:07:44Z</time>
      </trkpt>
      <trkpt lat="44.61604" lon="2.16426">
        <ele>344</ele>
        <time>2015-08-26T09:08:32Z</time>
      </trkpt>
      <trkpt lat="44.61597" lon="2.16415">
        <ele>343</ele>
        <time>2015-08-26T09:08:42Z</time>
      </trkpt>
      <trkpt lat="44.61593" lon="2.16406">
        <ele>343</ele>
        <time>2015-08-26T09:08:50Z</time>
      </trkpt>
      <trkpt lat="44.61586" lon="2.16398">
        <ele>342</ele>
        <time>2015-08-26T09:09:00Z</time>
      </trkpt>
      <trkpt lat="44.61581" lon="2.16397">
        <ele>341</ele>
        <time>2015-08-26T09:09:06Z</time>
      </trkpt>
      <trkpt lat="44.6157" lon="2.16395">
        <ele>340</ele>
        <time>2015-08-26T09:09:16Z</time>
      </trkpt>
      <trkpt lat="44.61565" lon="2.16395">
        <ele>340</ele>
        <time>2015-08-26T09:09:22Z</time>
      </trkpt>
      <trkpt lat="44.61555" lon="2.16393">
        <ele>339</ele>
        <time>2015-08-26T09:09:32Z</time>
      </trkpt>
      <trkpt lat="44.61546" lon="2.16391">
        <ele>338</ele>
        <time>2015-08-26T09:09:42Z</time>
      </trkpt>
      <trkpt lat="44.6154" lon="2.1639">
        <ele>338</ele>
        <time>2015-08-26T09:09:48Z</time>
      </trkpt>
      <trkpt lat="44.61533" lon="2.16389">
        <ele>336</ele>
        <time>2015-08-26T09:09:54Z</time>
      </trkpt>
      <trkpt lat="44.61523" lon="2.16388">
        <ele>336</ele>
        <time>2015-08-26T09:10:03Z</time>
      </trkpt>
      <trkpt lat="44.61513" lon="2.16387">
        <ele>336</ele>
        <time>2015-08-26T09:10:13Z</time>
      </trkpt>
      <trkpt lat="44.61508" lon="2.16387">
        <ele>336</ele>
        <time>2015-08-26T09:10:19Z</time>
      </trkpt>
      <trkpt lat="44.61498" lon="2.16387">
        <ele>336</ele>
        <time>2015-08-26T09:10:27Z</time>
      </trkpt>
      <trkpt lat="44.61489" lon="2.16388">
        <ele>335</ele>
        <time>2015-08-26T09:10:35Z</time>
      </trkpt>
      <trkpt lat="44.61478" lon="2.1639">
        <ele>335</ele>
        <time>2015-08-26T09:10:44Z</time>
      </trkpt>
      <trkpt lat="44.61472" lon="2.16391">
        <ele>334</ele>
        <time>2015-08-26T09:10:50Z</time>
      </trkpt>
      <trkpt lat="44.61462" lon="2.16394">
        <ele>333</ele>
        <time>2015-08-26T09:10:59Z</time>
      </trkpt>
      <trkpt lat="44.61453" lon="2.16397">
        <ele>333</ele>
        <time>2015-08-26T09:11:07Z</time>
      </trkpt>
      <trkpt lat="44.61443" lon="2.164">
        <ele>332</ele>
        <time>2015-08-26T09:11:15Z</time>
      </trkpt>
      <trkpt lat="44.61434" lon="2.16405">
        <ele>333</ele>
        <time>2015-08-26T09:11:24Z</time>
      </trkpt>
      <trkpt lat="44.61425" lon="2.16411">
        <ele>332</ele>
        <time>2015-08-26T09:11:33Z</time>
      </trkpt>
      <trkpt lat="44.61415" lon="2.16418">
        <ele>332</ele>
        <time>2015-08-26T09:11:43Z</time>
      </trkpt>
      <trkpt lat="44.61409" lon="2.16421">
        <ele>332</ele>
        <time>2015-08-26T09:11:50Z</time>
      </trkpt>
      <trkpt lat="44.614" lon="2.16424">
        <ele>330</ele>
        <time>2015-08-26T09:11:58Z</time>
      </trkpt>
      <trkpt lat="44.61391" lon="2.16418">
        <ele>329</ele>
        <time>2015-08-26T09:12:09Z</time>
      </trkpt>
      <trkpt lat="44.61387" lon="2.16405">
        <ele>329</ele>
        <time>2015-08-26T09:12:19Z</time>
      </trkpt>
      <trkpt lat="44.61386" lon="2.16398">
        <ele>329</ele>
        <time>2015-08-26T09:12:25Z</time>
      </trkpt>
      <trkpt lat="44.61382" lon="2.16385">
        <ele>329</ele>
        <time>2015-08-26T09:12:35Z</time>
      </trkpt>
      <trkpt lat="44.61381" lon="2.16377">
        <ele>328</ele>
        <time>2015-08-26T09:12:41Z</time>
      </trkpt>
      <trkpt lat="44.61374" lon="2.16379">
        <ele>328</ele>
        <time>2015-08-26T09:13:50Z</time>
      </trkpt>
      <trkpt lat="44.61377" lon="2.16371">
        <ele>329</ele>
        <time>2015-08-26T09:17:40Z</time>
      </trkpt>
      <trkpt lat="44.61378" lon="2.16364">
        <ele>329</ele>
        <time>2015-08-26T09:17:46Z</time>
      </trkpt>
      <trkpt lat="44.6138" lon="2.16351">
        <ele>328</ele>
        <time>2015-08-26T09:17:55Z</time>
      </trkpt>
      <trkpt lat="44.61385" lon="2.16339">
        <ele>328</ele>
        <time>2015-08-26T09:18:04Z</time>
      </trkpt>
      <trkpt lat="44.61392" lon="2.16327">
        <ele>326</ele>
        <time>2015-08-26T09:18:14Z</time>
      </trkpt>
      <trkpt lat="44.61396" lon="2.16314">
        <ele>326</ele>
        <time>2015-08-26T09:18:24Z</time>
      </trkpt>
      <trkpt lat="44.614" lon="2.16301">
        <ele>326</ele>
        <time>2015-08-26T09:18:34Z</time>
      </trkpt>
      <trkpt lat="44.61402" lon="2.16286">
        <ele>326</ele>
        <time>2015-08-26T09:18:44Z</time>
      </trkpt>
      <trkpt lat="44.61403" lon="2.16278">
        <ele>326</ele>
        <time>2015-08-26T09:18:50Z</time>
      </trkpt>
      <trkpt lat="44.61404" lon="2.1627">
        <ele>326</ele>
        <time>2015-08-26T09:18:56Z</time>
      </trkpt>
      <trkpt lat="44.61413" lon="2.16267">
        <ele>326</ele>
        <time>2015-08-26T09:19:12Z</time>
      </trkpt>
      <trkpt lat="44.61423" lon="2.16268">
        <ele>328</ele>
        <time>2015-08-26T09:19:22Z</time>
      </trkpt>
      <trkpt lat="44.61432" lon="2.16268">
        <ele>326</ele>
        <time>2015-08-26T09:19:30Z</time>
      </trkpt>
      <trkpt lat="44.61437" lon="2.16267">
        <ele>325</ele>
        <time>2015-08-26T09:19:37Z</time>
      </trkpt>
      <trkpt lat="44.61447" lon="2.16265">
        <ele>327</ele>
        <time>2015-08-26T09:19:45Z</time>
      </trkpt>
      <trkpt lat="44.61457" lon="2.16266">
        <ele>329</ele>
        <time>2015-08-26T09:19:56Z</time>
      </trkpt>
      <trkpt lat="44.61462" lon="2.16265">
        <ele>330</ele>
        <time>2015-08-26T09:20:02Z</time>
      </trkpt>
      <trkpt lat="44.61472" lon="2.16264">
        <ele>332</ele>
        <time>2015-08-26T09:20:13Z</time>
      </trkpt>
      <trkpt lat="44.61481" lon="2.16261">
        <ele>335</ele>
        <time>2015-08-26T09:20:24Z</time>
      </trkpt>
      <trkpt lat="44.61485" lon="2.16258">
        <ele>337</ele>
        <time>2015-08-26T09:20:30Z</time>
      </trkpt>
      <trkpt lat="44.61495" lon="2.16253">
        <ele>338</ele>
        <time>2015-08-26T09:20:40Z</time>
      </trkpt>
      <trkpt lat="44.615" lon="2.16251">
        <ele>337</ele>
        <time>2015-08-26T09:20:46Z</time>
      </trkpt>
      <trkpt lat="44.61507" lon="2.16244">
        <ele>339</ele>
        <time>2015-08-26T09:20:55Z</time>
      </trkpt>
      <trkpt lat="44.61515" lon="2.16235">
        <ele>340</ele>
        <time>2015-08-26T09:21:04Z</time>
      </trkpt>
      <trkpt lat="44.61523" lon="2.16227">
        <ele>340</ele>
        <time>2015-08-26T09:21:13Z</time>
      </trkpt>
      <trkpt lat="44.61531" lon="2.16219">
        <ele>337</ele>
        <time>2015-08-26T09:21:22Z</time>
      </trkpt>
      <trkpt lat="44.61537" lon="2.16208">
        <ele>340</ele>
        <time>2015-08-26T09:21:32Z</time>
      </trkpt>
      <trkpt lat="44.61544" lon="2.16197">
        <ele>344</ele>
        <time>2015-08-26T09:21:44Z</time>
      </trkpt>
      <trkpt lat="44.6155" lon="2.16193">
        <ele>340</ele>
        <time>2015-08-26T09:22:09Z</time>
      </trkpt>
      <trkpt lat="44.61557" lon="2.16184">
        <ele>339</ele>
        <time>2015-08-26T09:22:20Z</time>
      </trkpt>
      <trkpt lat="44.61559" lon="2.16178">
        <ele>340</ele>
        <time>2015-08-26T09:22:26Z</time>
      </trkpt>
      <trkpt lat="44.61564" lon="2.16171">
        <ele>340</ele>
        <time>2015-08-26T09:23:03Z</time>
      </trkpt>
      <trkpt lat="44.6157" lon="2.1616">
        <ele>335</ele>
        <time>2015-08-26T09:23:14Z</time>
      </trkpt>
      <trkpt lat="44.61583" lon="2.16156">
        <ele>332</ele>
        <time>2015-08-26T09:23:22Z</time>
      </trkpt>
      <trkpt lat="44.61588" lon="2.16154">
        <ele>328</ele>
        <time>2015-08-26T09:23:28Z</time>
      </trkpt>
      <trkpt lat="44.61597" lon="2.16152">
        <ele>333</ele>
        <time>2015-08-26T09:23:39Z</time>
      </trkpt>
      <trkpt lat="44.61604" lon="2.1616">
        <ele>334</ele>
        <time>2015-08-26T09:23:49Z</time>
      </trkpt>
      <trkpt lat="44.61605" lon="2.16168">
        <ele>334</ele>
        <time>2015-08-26T09:23:55Z</time>
      </trkpt>
      <trkpt lat="44.61609" lon="2.1618">
        <ele>336</ele>
        <time>2015-08-26T09:24:06Z</time>
      </trkpt>
      <trkpt lat="44.61615" lon="2.16191">
        <ele>332</ele>
        <time>2015-08-26T09:24:25Z</time>
      </trkpt>
      <trkpt lat="44.6162" lon="2.16204">
        <ele>331</ele>
        <time>2015-08-26T09:24:34Z</time>
      </trkpt>
      <trkpt lat="44.61626" lon="2.16215">
        <ele>331</ele>
        <time>2015-08-26T09:24:43Z</time>
      </trkpt>
      <trkpt lat="44.6163" lon="2.16223">
        <ele>332</ele>
        <time>2015-08-26T09:24:50Z</time>
      </trkpt>
      <trkpt lat="44.61636" lon="2.16233">
        <ele>335</ele>
        <time>2015-08-26T09:24:59Z</time>
      </trkpt>
      <trkpt lat="44.61645" lon="2.16231">
        <ele>335</ele>
        <time>2015-08-26T09:25:07Z</time>
      </trkpt>
      <trkpt lat="44.61654" lon="2.16223">
        <ele>334</ele>
        <time>2015-08-26T09:25:17Z</time>
      </trkpt>
      <trkpt lat="44.61662" lon="2.16215">
        <ele>336</ele>
        <time>2015-08-26T09:25:27Z</time>
      </trkpt>
      <trkpt lat="44.61671" lon="2.16207">
        <ele>336</ele>
        <time>2015-08-26T09:25:37Z</time>
      </trkpt>
      <trkpt lat="44.61679" lon="2.16201">
        <ele>339</ele>
        <time>2015-08-26T09:25:45Z</time>
      </trkpt>
      <trkpt lat="44.61687" lon="2.16195">
        <ele>341</ele>
        <time>2015-08-26T09:25:55Z</time>
      </trkpt>
      <trkpt lat="44.61695" lon="2.16189">
        <ele>339</ele>
        <time>2015-08-26T09:26:04Z</time>
      </trkpt>
      <trkpt lat="44.61699" lon="2.16186">
        <ele>337</ele>
        <time>2015-08-26T09:26:10Z</time>
      </trkpt>
      <trkpt lat="44.61707" lon="2.16178">
        <ele>338</ele>
        <time>2015-08-26T09:26:23Z</time>
      </trkpt>
      <trkpt lat="44.61716" lon="2.16171">
        <ele>335</ele>
        <time>2015-08-26T09:26:32Z</time>
      </trkpt>
      <trkpt lat="44.61724" lon="2.16164">
        <ele>334</ele>
        <time>2015-08-26T09:26:41Z</time>
      </trkpt>
      <trkpt lat="44.61731" lon="2.16155">
        <ele>335</ele>
        <time>2015-08-26T09:26:49Z</time>
      </trkpt>
      <trkpt lat="44.6174" lon="2.16148">
        <ele>335</ele>
        <time>2015-08-26T09:26:59Z</time>
      </trkpt>
      <trkpt lat="44.61748" lon="2.16141">
        <ele>335</ele>
        <time>2015-08-26T09:27:08Z</time>
      </trkpt>
      <trkpt lat="44.61757" lon="2.16133">
        <ele>339</ele>
        <time>2015-08-26T09:27:19Z</time>
      </trkpt>
      <trkpt lat="44.61765" lon="2.16125">
        <ele>337</ele>
        <time>2015-08-26T09:27:28Z</time>
      </trkpt>
      <trkpt lat="44.61773" lon="2.16117">
        <ele>337</ele>
        <time>2015-08-26T09:27:39Z</time>
      </trkpt>
      <trkpt lat="44.61782" lon="2.16108">
        <ele>337</ele>
        <time>2015-08-26T09:27:50Z</time>
      </trkpt>
      <trkpt lat="44.6179" lon="2.16099">
        <ele>336</ele>
        <time>2015-08-26T09:28:00Z</time>
      </trkpt>
      <trkpt lat="44.61793" lon="2.16087">
        <ele>336</ele>
        <time>2015-08-26T09:28:09Z</time>
      </trkpt>
      <trkpt lat="44.61795" lon="2.16072">
        <ele>336</ele>
        <time>2015-08-26T09:28:20Z</time>
      </trkpt>
      <trkpt lat="44.618" lon="2.1606">
        <ele>335</ele>
        <time>2015-08-26T09:28:30Z</time>
      </trkpt>
      <trkpt lat="44.61808" lon="2.16054">
        <ele>335</ele>
        <time>2015-08-26T09:28:40Z</time>
      </trkpt>
      <trkpt lat="44.61818" lon="2.16049">
        <ele>334</ele>
        <time>2015-08-26T09:28:50Z</time>
      </trkpt>
      <trkpt lat="44.61826" lon="2.16042">
        <ele>332</ele>
        <time>2015-08-26T09:29:00Z</time>
      </trkpt>
      <trkpt lat="44.61831" lon="2.16039">
        <ele>332</ele>
        <time>2015-08-26T09:29:06Z</time>
      </trkpt>
      <trkpt lat="44.61839" lon="2.16033">
        <ele>333</ele>
        <time>2015-08-26T09:29:17Z</time>
      </trkpt>
      <trkpt lat="44.61848" lon="2.16024">
        <ele>335</ele>
        <time>2015-08-26T09:29:27Z</time>
      </trkpt>
      <trkpt lat="44.61856" lon="2.16016">
        <ele>334</ele>
        <time>2015-08-26T09:29:37Z</time>
      </trkpt>
      <trkpt lat="44.61866" lon="2.16011">
        <ele>334</ele>
        <time>2015-08-26T09:29:47Z</time>
      </trkpt>
      <trkpt lat="44.61871" lon="2.16005">
        <ele>334</ele>
        <time>2015-08-26T09:29:55Z</time>
      </trkpt>
      <trkpt lat="44.61879" lon="2.15997">
        <ele>334</ele>
        <time>2015-08-26T09:30:05Z</time>
      </trkpt>
      <trkpt lat="44.61883" lon="2.15993">
        <ele>334</ele>
        <time>2015-08-26T09:30:11Z</time>
      </trkpt>
      <trkpt lat="44.61893" lon="2.15986">
        <ele>333</ele>
        <time>2015-08-26T09:30:21Z</time>
      </trkpt>
      <trkpt lat="44.61901" lon="2.15978">
        <ele>331</ele>
        <time>2015-08-26T09:30:30Z</time>
      </trkpt>
      <trkpt lat="44.61909" lon="2.15968">
        <ele>330</ele>
        <time>2015-08-26T09:30:40Z</time>
      </trkpt>
      <trkpt lat="44.61914" lon="2.15963">
        <ele>330</ele>
        <time>2015-08-26T09:30:46Z</time>
      </trkpt>
      <trkpt lat="44.6192" lon="2.15956">
        <ele>331</ele>
        <time>2015-08-26T09:30:54Z</time>
      </trkpt>
      <trkpt lat="44.61928" lon="2.15948">
        <ele>330</ele>
        <time>2015-08-26T09:31:02Z</time>
      </trkpt>
      <trkpt lat="44.61935" lon="2.1594">
        <ele>328</ele>
        <time>2015-08-26T09:31:10Z</time>
      </trkpt>
      <trkpt lat="44.61945" lon="2.15933">
        <ele>326</ele>
        <time>2015-08-26T09:31:20Z</time>
      </trkpt>
      <trkpt lat="44.61953" lon="2.15928">
        <ele>327</ele>
        <time>2015-08-26T09:31:30Z</time>
      </trkpt>
      <trkpt lat="44.61963" lon="2.1592">
        <ele>329</ele>
        <time>2015-08-26T09:31:40Z</time>
      </trkpt>
      <trkpt lat="44.61967" lon="2.15907">
        <ele>329</ele>
        <time>2015-08-26T09:31:50Z</time>
      </trkpt>
      <trkpt lat="44.6197" lon="2.15893">
        <ele>328</ele>
        <time>2015-08-26T09:32:00Z</time>
      </trkpt>
      <trkpt lat="44.61972" lon="2.15879">
        <ele>328</ele>
        <time>2015-08-26T09:32:09Z</time>
      </trkpt>
      <trkpt lat="44.61976" lon="2.15866">
        <ele>327</ele>
        <time>2015-08-26T09:32:19Z</time>
      </trkpt>
      <trkpt lat="44.6198" lon="2.15854">
        <ele>327</ele>
        <time>2015-08-26T09:32:29Z</time>
      </trkpt>
      <trkpt lat="44.61983" lon="2.15841">
        <ele>328</ele>
        <time>2015-08-26T09:32:48Z</time>
      </trkpt>
      <trkpt lat="44.61985" lon="2.15831">
        <ele>328</ele>
        <time>2015-08-26T09:32:56Z</time>
      </trkpt>
      <trkpt lat="44.61987" lon="2.15824">
        <ele>328</ele>
        <time>2015-08-26T09:33:02Z</time>
      </trkpt>
      <trkpt lat="44.6199" lon="2.15811">
        <ele>326</ele>
        <time>2015-08-26T09:33:11Z</time>
      </trkpt>
      <trkpt lat="44.61993" lon="2.15797">
        <ele>333</ele>
        <time>2015-08-26T09:33:21Z</time>
      </trkpt>
      <trkpt lat="44.61996" lon="2.15784">
        <ele>332</ele>
        <time>2015-08-26T09:33:29Z</time>
      </trkpt>
      <trkpt lat="44.61999" lon="2.1577">
        <ele>331</ele>
        <time>2015-08-26T09:33:39Z</time>
      </trkpt>
      <trkpt lat="44.62001" lon="2.15757">
        <ele>330</ele>
        <time>2015-08-26T09:33:49Z</time>
      </trkpt>
      <trkpt lat="44.62003" lon="2.15749">
        <ele>329</ele>
        <time>2015-08-26T09:33:55Z</time>
      </trkpt>
      <trkpt lat="44.62006" lon="2.15736">
        <ele>329</ele>
        <time>2015-08-26T09:34:05Z</time>
      </trkpt>
      <trkpt lat="44.62008" lon="2.15722">
        <ele>329</ele>
        <time>2015-08-26T09:34:15Z</time>
      </trkpt>
      <trkpt lat="44.6201" lon="2.15708">
        <ele>329</ele>
        <time>2015-08-26T09:34:26Z</time>
      </trkpt>
      <trkpt lat="44.62011" lon="2.15694">
        <ele>330</ele>
        <time>2015-08-26T09:34:36Z</time>
      </trkpt>
      <trkpt lat="44.62013" lon="2.15681">
        <ele>331</ele>
        <time>2015-08-26T09:34:46Z</time>
      </trkpt>
      <trkpt lat="44.62014" lon="2.15668">
        <ele>331</ele>
        <time>2015-08-26T09:34:55Z</time>
      </trkpt>
      <trkpt lat="44.62015" lon="2.15655">
        <ele>331</ele>
        <time>2015-08-26T09:35:04Z</time>
      </trkpt>
      <trkpt lat="44.62017" lon="2.15641">
        <ele>332</ele>
        <time>2015-08-26T09:35:14Z</time>
      </trkpt>
      <trkpt lat="44.62019" lon="2.15627">
        <ele>333</ele>
        <time>2015-08-26T09:35:24Z</time>
      </trkpt>
      <trkpt lat="44.62021" lon="2.15613">
        <ele>333</ele>
        <time>2015-08-26T09:35:34Z</time>
      </trkpt>
      <trkpt lat="44.62022" lon="2.15599">
        <ele>334</ele>
        <time>2015-08-26T09:35:44Z</time>
      </trkpt>
      <trkpt lat="44.62022" lon="2.15591">
        <ele>334</ele>
        <time>2015-08-26T09:35:50Z</time>
      </trkpt>
      <trkpt lat="44.62022" lon="2.15577">
        <ele>336</ele>
        <time>2015-08-26T09:36:01Z</time>
      </trkpt>
      <trkpt lat="44.62021" lon="2.15563">
        <ele>336</ele>
        <time>2015-08-26T09:36:11Z</time>
      </trkpt>
      <trkpt lat="44.62021" lon="2.1555">
        <ele>337</ele>
        <time>2015-08-26T09:36:21Z</time>
      </trkpt>
      <trkpt lat="44.62021" lon="2.15536">
        <ele>338</ele>
        <time>2015-08-26T09:36:31Z</time>
      </trkpt>
      <trkpt lat="44.62022" lon="2.15523">
        <ele>339</ele>
        <time>2015-08-26T09:36:41Z</time>
      </trkpt>
      <trkpt lat="44.62022" lon="2.15509">
        <ele>338</ele>
        <time>2015-08-26T09:36:50Z</time>
      </trkpt>
      <trkpt lat="44.62021" lon="2.15495">
        <ele>337</ele>
        <time>2015-08-26T09:36:59Z</time>
      </trkpt>
      <trkpt lat="44.62021" lon="2.1548">
        <ele>337</ele>
        <time>2015-08-26T09:37:09Z</time>
      </trkpt>
      <trkpt lat="44.6202" lon="2.15466">
        <ele>337</ele>
        <time>2015-08-26T09:37:19Z</time>
      </trkpt>
      <trkpt lat="44.6202" lon="2.15451">
        <ele>337</ele>
        <time>2015-08-26T09:37:29Z</time>
      </trkpt>
      <trkpt lat="44.6202" lon="2.15437">
        <ele>336</ele>
        <time>2015-08-26T09:37:39Z</time>
      </trkpt>
      <trkpt lat="44.6202" lon="2.15423">
        <ele>337</ele>
        <time>2015-08-26T09:37:49Z</time>
      </trkpt>
      <trkpt lat="44.6202" lon="2.15414">
        <ele>337</ele>
        <time>2015-08-26T09:37:55Z</time>
      </trkpt>
      <trkpt lat="44.62019" lon="2.15399">
        <ele>338</ele>
        <time>2015-08-26T09:38:05Z</time>
      </trkpt>
      <trkpt lat="44.62019" lon="2.15386">
        <ele>337</ele>
        <time>2015-08-26T09:38:15Z</time>
      </trkpt>
      <trkpt lat="44.62018" lon="2.15372">
        <ele>337</ele>
        <time>2015-08-26T09:38:25Z</time>
      </trkpt>
      <trkpt lat="44.62017" lon="2.15357">
        <ele>337</ele>
        <time>2015-08-26T09:38:35Z</time>
      </trkpt>
      <trkpt lat="44.62016" lon="2.15343">
        <ele>337</ele>
        <time>2015-08-26T09:38:45Z</time>
      </trkpt>
      <trkpt lat="44.62017" lon="2.15331">
        <ele>336</ele>
        <time>2015-08-26T09:38:55Z</time>
      </trkpt>
      <trkpt lat="44.62018" lon="2.15317">
        <ele>336</ele>
        <time>2015-08-26T09:39:05Z</time>
      </trkpt>
      <trkpt lat="44.62018" lon="2.1531">
        <ele>336</ele>
        <time>2015-08-26T09:39:11Z</time>
      </trkpt>
      <trkpt lat="44.6202" lon="2.15303">
        <ele>336</ele>
        <time>2015-08-26T09:39:17Z</time>
      </trkpt>
      <trkpt lat="44.62021" lon="2.15297">
        <ele>335</ele>
        <time>2015-08-26T09:39:33Z</time>
      </trkpt>
      <trkpt lat="44.62022" lon="2.1529">
        <ele>337</ele>
        <time>2015-08-26T09:52:58Z</time>
      </trkpt>
      <trkpt lat="44.62026" lon="2.15285">
        <ele>338</ele>
        <time>2015-08-26T09:53:04Z</time>
      </trkpt>
      <trkpt lat="44.62028" lon="2.15279">
        <ele>337</ele>
        <time>2015-08-26T09:53:10Z</time>
      </trkpt>
      <trkpt lat="44.62031" lon="2.15273">
        <ele>338</ele>
        <time>2015-08-26T09:53:16Z</time>
      </trkpt>
      <trkpt lat="44.62038" lon="2.15263">
        <ele>338</ele>
        <time>2015-08-26T09:53:27Z</time>
      </trkpt>
      <trkpt lat="44.62041" lon="2.15257">
        <ele>338</ele>
        <time>2015-08-26T09:53:33Z</time>
      </trkpt>
      <trkpt lat="44.62044" lon="2.15252">
        <ele>338</ele>
        <time>2015-08-26T09:53:39Z</time>
      </trkpt>
      <trkpt lat="44.62051" lon="2.15242">
        <ele>337</ele>
        <time>2015-08-26T09:53:49Z</time>
      </trkpt>
      <trkpt lat="44.62055" lon="2.15236">
        <ele>337</ele>
        <time>2015-08-26T09:53:56Z</time>
      </trkpt>
      <trkpt lat="44.62061" lon="2.15225">
        <ele>336</ele>
        <time>2015-08-26T09:54:06Z</time>
      </trkpt>
      <trkpt lat="44.62067" lon="2.15214">
        <ele>336</ele>
        <time>2015-08-26T09:54:16Z</time>
      </trkpt>
      <trkpt lat="44.62072" lon="2.15202">
        <ele>336</ele>
        <time>2015-08-26T09:54:26Z</time>
      </trkpt>
      <trkpt lat="44.62077" lon="2.15191">
        <ele>336</ele>
        <time>2015-08-26T09:54:36Z</time>
      </trkpt>
      <trkpt lat="44.62083" lon="2.15181">
        <ele>335</ele>
        <time>2015-08-26T09:54:45Z</time>
      </trkpt>
      <trkpt lat="44.62089" lon="2.15169">
        <ele>335</ele>
        <time>2015-08-26T09:54:55Z</time>
      </trkpt>
      <trkpt lat="44.62094" lon="2.15157">
        <ele>334</ele>
        <time>2015-08-26T09:55:05Z</time>
      </trkpt>
      <trkpt lat="44.62101" lon="2.15146">
        <ele>334</ele>
        <time>2015-08-26T09:55:15Z</time>
      </trkpt>
      <trkpt lat="44.62106" lon="2.15134">
        <ele>333</ele>
        <time>2015-08-26T09:55:25Z</time>
      </trkpt>
      <trkpt lat="44.62112" lon="2.15123">
        <ele>333</ele>
        <time>2015-08-26T09:55:35Z</time>
      </trkpt>
      <trkpt lat="44.62117" lon="2.1511">
        <ele>332</ele>
        <time>2015-08-26T09:55:45Z</time>
      </trkpt>
      <trkpt lat="44.62123" lon="2.15098">
        <ele>332</ele>
        <time>2015-08-26T09:55:55Z</time>
      </trkpt>
      <trkpt lat="44.62126" lon="2.15085">
        <ele>331</ele>
        <time>2015-08-26T09:56:04Z</time>
      </trkpt>
      <trkpt lat="44.6213" lon="2.15072">
        <ele>331</ele>
        <time>2015-08-26T09:56:13Z</time>
      </trkpt>
      <trkpt lat="44.62133" lon="2.15058">
        <ele>331</ele>
        <time>2015-08-26T09:56:23Z</time>
      </trkpt>
      <trkpt lat="44.62133" lon="2.15044">
        <ele>330</ele>
        <time>2015-08-26T09:56:33Z</time>
      </trkpt>
      <trkpt lat="44.62133" lon="2.1503">
        <ele>329</ele>
        <time>2015-08-26T09:56:43Z</time>
      </trkpt>
      <trkpt lat="44.62134" lon="2.15023">
        <ele>328</ele>
        <time>2015-08-26T09:56:49Z</time>
      </trkpt>
      <trkpt lat="44.62135" lon="2.15015">
        <ele>328</ele>
        <time>2015-08-26T09:56:56Z</time>
      </trkpt>
      <trkpt lat="44.62139" lon="2.15001">
        <ele>328</ele>
        <time>2015-08-26T09:57:06Z</time>
      </trkpt>
      <trkpt lat="44.62143" lon="2.14989">
        <ele>327</ele>
        <time>2015-08-26T09:57:15Z</time>
      </trkpt>
      <trkpt lat="44.62148" lon="2.14976">
        <ele>326</ele>
        <time>2015-08-26T09:57:25Z</time>
      </trkpt>
      <trkpt lat="44.62151" lon="2.14962">
        <ele>326</ele>
        <time>2015-08-26T09:57:35Z</time>
      </trkpt>
      <trkpt lat="44.62154" lon="2.14949">
        <ele>324</ele>
        <time>2015-08-26T09:57:45Z</time>
      </trkpt>
      <trkpt lat="44.62157" lon="2.14935">
        <ele>324</ele>
        <time>2015-08-26T09:57:56Z</time>
      </trkpt>
      <trkpt lat="44.62159" lon="2.14923">
        <ele>323</ele>
        <time>2015-08-26T09:58:05Z</time>
      </trkpt>
      <trkpt lat="44.62162" lon="2.14909">
        <ele>322</ele>
        <time>2015-08-26T09:58:15Z</time>
      </trkpt>
      <trkpt lat="44.62165" lon="2.14895">
        <ele>321</ele>
        <time>2015-08-26T09:58:26Z</time>
      </trkpt>
      <trkpt lat="44.62168" lon="2.14882">
        <ele>320</ele>
        <time>2015-08-26T09:58:36Z</time>
      </trkpt>
      <trkpt lat="44.62169" lon="2.14876">
        <ele>319</ele>
        <time>2015-08-26T09:58:42Z</time>
      </trkpt>
      <trkpt lat="44.6217" lon="2.14869">
        <ele>319</ele>
        <time>2015-08-26T09:58:48Z</time>
      </trkpt>
      <trkpt lat="44.62172" lon="2.14861">
        <ele>318</ele>
        <time>2015-08-26T09:58:56Z</time>
      </trkpt>
      <trkpt lat="44.62174" lon="2.14848">
        <ele>316</ele>
        <time>2015-08-26T09:59:07Z</time>
      </trkpt>
      <trkpt lat="44.62175" lon="2.14841">
        <ele>315</ele>
        <time>2015-08-26T09:59:19Z</time>
      </trkpt>
      <trkpt lat="44.62177" lon="2.14827">
        <ele>315</ele>
        <time>2015-08-26T09:59:32Z</time>
      </trkpt>
      <trkpt lat="44.62178" lon="2.1482">
        <ele>314</ele>
        <time>2015-08-26T09:59:38Z</time>
      </trkpt>
      <trkpt lat="44.62181" lon="2.14807">
        <ele>313</ele>
        <time>2015-08-26T09:59:49Z</time>
      </trkpt>
      <trkpt lat="44.62181" lon="2.14799">
        <ele>312</ele>
        <time>2015-08-26T09:59:56Z</time>
      </trkpt>
      <trkpt lat="44.62183" lon="2.14793">
        <ele>311</ele>
        <time>2015-08-26T10:00:02Z</time>
      </trkpt>
      <trkpt lat="44.62186" lon="2.1478">
        <ele>310</ele>
        <time>2015-08-26T10:00:12Z</time>
      </trkpt>
      <trkpt lat="44.62187" lon="2.14772">
        <ele>310</ele>
        <time>2015-08-26T10:00:18Z</time>
      </trkpt>
      <trkpt lat="44.62189" lon="2.14766">
        <ele>311</ele>
        <time>2015-08-26T10:00:24Z</time>
      </trkpt>
      <trkpt lat="44.62192" lon="2.14761">
        <ele>311</ele>
        <time>2015-08-26T10:00:30Z</time>
      </trkpt>
      <trkpt lat="44.62197" lon="2.14759">
        <ele>311</ele>
        <time>2015-08-26T10:00:40Z</time>
      </trkpt>
      <trkpt lat="44.62204" lon="2.14764">
        <ele>312</ele>
        <time>2015-08-26T10:00:50Z</time>
      </trkpt>
      <trkpt lat="44.62207" lon="2.1477">
        <ele>312</ele>
        <time>2015-08-26T10:00:56Z</time>
      </trkpt>
      <trkpt lat="44.6221" lon="2.14775">
        <ele>312</ele>
        <time>2015-08-26T10:01:02Z</time>
      </trkpt>
      <trkpt lat="44.62214" lon="2.1478">
        <ele>311</ele>
        <time>2015-08-26T10:01:08Z</time>
      </trkpt>
      <trkpt lat="44.62221" lon="2.14789">
        <ele>313</ele>
        <time>2015-08-26T10:01:18Z</time>
      </trkpt>
      <trkpt lat="44.62225" lon="2.14794">
        <ele>313</ele>
        <time>2015-08-26T10:01:24Z</time>
      </trkpt>
      <trkpt lat="44.62228" lon="2.14798">
        <ele>315</ele>
        <time>2015-08-26T10:01:30Z</time>
      </trkpt>
      <trkpt lat="44.62232" lon="2.14803">
        <ele>316</ele>
        <time>2015-08-26T10:01:36Z</time>
      </trkpt>
      <trkpt lat="44.62237" lon="2.14805">
        <ele>317</ele>
        <time>2015-08-26T10:01:42Z</time>
      </trkpt>
      <trkpt lat="44.62244" lon="2.14808">
        <ele>318</ele>
        <time>2015-08-26T10:01:50Z</time>
      </trkpt>
      <trkpt lat="44.62254" lon="2.14812">
        <ele>321</ele>
        <time>2015-08-26T10:02:00Z</time>
      </trkpt>
      <trkpt lat="44.62264" lon="2.14812">
        <ele>322</ele>
        <time>2015-08-26T10:02:11Z</time>
      </trkpt>
      <trkpt lat="44.62269" lon="2.14814">
        <ele>323</ele>
        <time>2015-08-26T10:02:17Z</time>
      </trkpt>
      <trkpt lat="44.62278" lon="2.14816">
        <ele>324</ele>
        <time>2015-08-26T10:02:27Z</time>
      </trkpt>
      <trkpt lat="44.62288" lon="2.14821">
        <ele>325</ele>
        <time>2015-08-26T10:02:38Z</time>
      </trkpt>
      <trkpt lat="44.62297" lon="2.14825">
        <ele>326</ele>
        <time>2015-08-26T10:02:48Z</time>
      </trkpt>
      <trkpt lat="44.62302" lon="2.14832">
        <ele>325</ele>
        <time>2015-08-26T10:02:56Z</time>
      </trkpt>
      <trkpt lat="44.62306" lon="2.14836">
        <ele>325</ele>
        <time>2015-08-26T10:03:02Z</time>
      </trkpt>
      <trkpt lat="44.62315" lon="2.14843">
        <ele>325</ele>
        <time>2015-08-26T10:03:12Z</time>
      </trkpt>
      <trkpt lat="44.62323" lon="2.1485">
        <ele>324</ele>
        <time>2015-08-26T10:03:22Z</time>
      </trkpt>
      <trkpt lat="44.62331" lon="2.14857">
        <ele>324</ele>
        <time>2015-08-26T10:03:33Z</time>
      </trkpt>
      <trkpt lat="44.62336" lon="2.14861">
        <ele>324</ele>
        <time>2015-08-26T10:03:39Z</time>
      </trkpt>
      <trkpt lat="44.62344" lon="2.14869">
        <ele>324</ele>
        <time>2015-08-26T10:03:50Z</time>
      </trkpt>
      <trkpt lat="44.62353" lon="2.14878">
        <ele>325</ele>
        <time>2015-08-26T10:04:00Z</time>
      </trkpt>
      <trkpt lat="44.62361" lon="2.14887">
        <ele>325</ele>
        <time>2015-08-26T10:04:09Z</time>
      </trkpt>
      <trkpt lat="44.62369" lon="2.14894">
        <ele>326</ele>
        <time>2015-08-26T10:04:19Z</time>
      </trkpt>
      <trkpt lat="44.62377" lon="2.14902">
        <ele>326</ele>
        <time>2015-08-26T10:04:30Z</time>
      </trkpt>
      <trkpt lat="44.62386" lon="2.1491">
        <ele>327</ele>
        <time>2015-08-26T10:04:41Z</time>
      </trkpt>
      <trkpt lat="44.62394" lon="2.14917">
        <ele>328</ele>
        <time>2015-08-26T10:04:50Z</time>
      </trkpt>
      <trkpt lat="44.62402" lon="2.14925">
        <ele>328</ele>
        <time>2015-08-26T10:05:01Z</time>
      </trkpt>
      <trkpt lat="44.62406" lon="2.14929">
        <ele>328</ele>
        <time>2015-08-26T10:05:07Z</time>
      </trkpt>
      <trkpt lat="44.62413" lon="2.14936">
        <ele>329</ele>
        <time>2015-08-26T10:05:17Z</time>
      </trkpt>
      <trkpt lat="44.62422" lon="2.14943">
        <ele>329</ele>
        <time>2015-08-26T10:05:27Z</time>
      </trkpt>
      <trkpt lat="44.62431" lon="2.14948">
        <ele>330</ele>
        <time>2015-08-26T10:05:37Z</time>
      </trkpt>
      <trkpt lat="44.62442" lon="2.14952">
        <ele>330</ele>
        <time>2015-08-26T10:05:47Z</time>
      </trkpt>
      <trkpt lat="44.6245" lon="2.14953">
        <ele>331</ele>
        <time>2015-08-26T10:05:55Z</time>
      </trkpt>
      <trkpt lat="44.6246" lon="2.14957">
        <ele>331</ele>
        <time>2015-08-26T10:06:05Z</time>
      </trkpt>
      <trkpt lat="44.6247" lon="2.1496">
        <ele>331</ele>
        <time>2015-08-26T10:06:15Z</time>
      </trkpt>
      <trkpt lat="44.6248" lon="2.14963">
        <ele>331</ele>
        <time>2015-08-26T10:06:25Z</time>
      </trkpt>
      <trkpt lat="44.6249" lon="2.14965">
        <ele>331</ele>
        <time>2015-08-26T10:06:35Z</time>
      </trkpt>
      <trkpt lat="44.625" lon="2.14967">
        <ele>332</ele>
        <time>2015-08-26T10:06:45Z</time>
      </trkpt>
      <trkpt lat="44.62511" lon="2.1497">
        <ele>332</ele>
        <time>2015-08-26T10:06:55Z</time>
      </trkpt>
      <trkpt lat="44.62521" lon="2.14973">
        <ele>332</ele>
        <time>2015-08-26T10:07:05Z</time>
      </trkpt>
      <trkpt lat="44.62531" lon="2.14975">
        <ele>331</ele>
        <time>2015-08-26T10:07:14Z</time>
      </trkpt>
      <trkpt lat="44.6254" lon="2.14977">
        <ele>331</ele>
        <time>2015-08-26T10:07:24Z</time>
      </trkpt>
      <trkpt lat="44.62549" lon="2.14981">
        <ele>330</ele>
        <time>2015-08-26T10:07:33Z</time>
      </trkpt>
      <trkpt lat="44.62559" lon="2.14985">
        <ele>331</ele>
        <time>2015-08-26T10:07:42Z</time>
      </trkpt>
      <trkpt lat="44.62564" lon="2.14987">
        <ele>331</ele>
        <time>2015-08-26T10:07:48Z</time>
      </trkpt>
      <trkpt lat="44.6257" lon="2.14991">
        <ele>330</ele>
        <time>2015-08-26T10:07:55Z</time>
      </trkpt>
      <trkpt lat="44.62579" lon="2.14993">
        <ele>331</ele>
        <time>2015-08-26T10:08:10Z</time>
      </trkpt>
      <trkpt lat="44.62584" lon="2.14979">
        <ele>332</ele>
        <time>2015-08-26T10:08:20Z</time>
      </trkpt>
      <trkpt lat="44.62582" lon="2.14965">
        <ele>333</ele>
        <time>2015-08-26T10:08:30Z</time>
      </trkpt>
      <trkpt lat="44.62581" lon="2.14958">
        <ele>334</ele>
        <time>2015-08-26T10:08:44Z</time>
      </trkpt>
      <trkpt lat="44.62579" lon="2.1495">
        <ele>334</ele>
        <time>2015-08-26T10:08:50Z</time>
      </trkpt>
      <trkpt lat="44.62577" lon="2.14937">
        <ele>333</ele>
        <time>2015-08-26T10:09:00Z</time>
      </trkpt>
      <trkpt lat="44.62574" lon="2.14925">
        <ele>333</ele>
        <time>2015-08-26T10:09:10Z</time>
      </trkpt>
      <trkpt lat="44.62573" lon="2.14917">
        <ele>332</ele>
        <time>2015-08-26T10:09:16Z</time>
      </trkpt>
      <trkpt lat="44.62572" lon="2.14911">
        <ele>331</ele>
        <time>2015-08-26T10:09:23Z</time>
      </trkpt>
      <trkpt lat="44.62571" lon="2.14904">
        <ele>331</ele>
        <time>2015-08-26T10:09:29Z</time>
      </trkpt>
      <trkpt lat="44.6257" lon="2.14897">
        <ele>330</ele>
        <time>2015-08-26T10:09:35Z</time>
      </trkpt>
      <trkpt lat="44.6257" lon="2.1489">
        <ele>330</ele>
        <time>2015-08-26T10:09:45Z</time>
      </trkpt>
      <trkpt lat="44.62567" lon="2.14885">
        <ele>329</ele>
        <time>2015-08-26T10:10:48Z</time>
      </trkpt>
      <trkpt lat="44.62566" lon="2.14876">
        <ele>329</ele>
        <time>2015-08-26T10:10:55Z</time>
      </trkpt>
      <trkpt lat="44.62563" lon="2.14864">
        <ele>328</ele>
        <time>2015-08-26T10:11:05Z</time>
      </trkpt>
      <trkpt lat="44.62563" lon="2.14851">
        <ele>327</ele>
        <time>2015-08-26T10:11:15Z</time>
      </trkpt>
      <trkpt lat="44.62564" lon="2.14838">
        <ele>327</ele>
        <time>2015-08-26T10:11:25Z</time>
      </trkpt>
      <trkpt lat="44.62569" lon="2.14828">
        <ele>325</ele>
        <time>2015-08-26T10:12:16Z</time>
      </trkpt>
      <trkpt lat="44.62569" lon="2.14821">
        <ele>324</ele>
        <time>2015-08-26T10:12:22Z</time>
      </trkpt>
      <trkpt lat="44.62574" lon="2.14808">
        <ele>322</ele>
        <time>2015-08-26T10:12:32Z</time>
      </trkpt>
      <trkpt lat="44.62579" lon="2.14796">
        <ele>321</ele>
        <time>2015-08-26T10:12:43Z</time>
      </trkpt>
      <trkpt lat="44.62581" lon="2.14791">
        <ele>320</ele>
        <time>2015-08-26T10:12:49Z</time>
      </trkpt>
      <trkpt lat="44.62584" lon="2.14783">
        <ele>319</ele>
        <time>2015-08-26T10:12:56Z</time>
      </trkpt>
      <trkpt lat="44.62588" lon="2.14771">
        <ele>319</ele>
        <time>2015-08-26T10:13:06Z</time>
      </trkpt>
      <trkpt lat="44.62589" lon="2.14765">
        <ele>319</ele>
        <time>2015-08-26T10:13:12Z</time>
      </trkpt>
      <trkpt lat="44.62593" lon="2.14753">
        <ele>317</ele>
        <time>2015-08-26T10:13:21Z</time>
      </trkpt>
      <trkpt lat="44.62595" lon="2.14746">
        <ele>316</ele>
        <time>2015-08-26T10:13:27Z</time>
      </trkpt>
      <trkpt lat="44.62597" lon="2.14733">
        <ele>316</ele>
        <time>2015-08-26T10:13:38Z</time>
      </trkpt>
      <trkpt lat="44.62598" lon="2.14726">
        <ele>316</ele>
        <time>2015-08-26T10:13:44Z</time>
      </trkpt>
      <trkpt lat="44.62598" lon="2.14719">
        <ele>315</ele>
        <time>2015-08-26T10:13:50Z</time>
      </trkpt>
      <trkpt lat="44.62598" lon="2.14712">
        <ele>314</ele>
        <time>2015-08-26T10:13:56Z</time>
      </trkpt>
      <trkpt lat="44.62598" lon="2.14705">
        <ele>314</ele>
        <time>2015-08-26T10:14:02Z</time>
      </trkpt>
      <trkpt lat="44.62598" lon="2.14698">
        <ele>313</ele>
        <time>2015-08-26T10:14:08Z</time>
      </trkpt>
      <trkpt lat="44.62599" lon="2.14691">
        <ele>312</ele>
        <time>2015-08-26T10:14:14Z</time>
      </trkpt>
      <trkpt lat="44.626" lon="2.14684">
        <ele>312</ele>
        <time>2015-08-26T10:14:20Z</time>
      </trkpt>
      <trkpt lat="44.62601" lon="2.14677">
        <ele>312</ele>
        <time>2015-08-26T10:14:26Z</time>
      </trkpt>
      <trkpt lat="44.62602" lon="2.14662">
        <ele>311</ele>
        <time>2015-08-26T10:14:37Z</time>
      </trkpt>
      <trkpt lat="44.62603" lon="2.14648">
        <ele>310</ele>
        <time>2015-08-26T10:14:46Z</time>
      </trkpt>
      <trkpt lat="44.62604" lon="2.14636">
        <ele>309</ele>
        <time>2015-08-26T10:14:55Z</time>
      </trkpt>
      <trkpt lat="44.62605" lon="2.14622">
        <ele>308</ele>
        <time>2015-08-26T10:15:04Z</time>
      </trkpt>
      <trkpt lat="44.62606" lon="2.14607">
        <ele>308</ele>
        <time>2015-08-26T10:15:14Z</time>
      </trkpt>
      <trkpt lat="44.62607" lon="2.14593">
        <ele>307</ele>
        <time>2015-08-26T10:15:23Z</time>
      </trkpt>
      <trkpt lat="44.62608" lon="2.14578">
        <ele>305</ele>
        <time>2015-08-26T10:15:33Z</time>
      </trkpt>
      <trkpt lat="44.62608" lon="2.14564">
        <ele>305</ele>
        <time>2015-08-26T10:15:43Z</time>
      </trkpt>
      <trkpt lat="44.62609" lon="2.14554">
        <ele>304</ele>
        <time>2015-08-26T10:15:50Z</time>
      </trkpt>
      <trkpt lat="44.6261" lon="2.14539">
        <ele>304</ele>
        <time>2015-08-26T10:16:00Z</time>
      </trkpt>
      <trkpt lat="44.62611" lon="2.14525">
        <ele>303</ele>
        <time>2015-08-26T10:16:10Z</time>
      </trkpt>
      <trkpt lat="44.62613" lon="2.1451">
        <ele>302</ele>
        <time>2015-08-26T10:16:20Z</time>
      </trkpt>
      <trkpt lat="44.62614" lon="2.14495">
        <ele>301</ele>
        <time>2015-08-26T10:16:30Z</time>
      </trkpt>
      <trkpt lat="44.62615" lon="2.14481">
        <ele>300</ele>
        <time>2015-08-26T10:16:41Z</time>
      </trkpt>
      <trkpt lat="44.62614" lon="2.14468">
        <ele>300</ele>
        <time>2015-08-26T10:16:50Z</time>
      </trkpt>
      <trkpt lat="44.62616" lon="2.14454">
        <ele>300</ele>
        <time>2015-08-26T10:16:59Z</time>
      </trkpt>
      <trkpt lat="44.62618" lon="2.14441">
        <ele>298</ele>
        <time>2015-08-26T10:17:08Z</time>
      </trkpt>
      <trkpt lat="44.62621" lon="2.14429">
        <ele>297</ele>
        <time>2015-08-26T10:17:18Z</time>
      </trkpt>
      <trkpt lat="44.62621" lon="2.14418">
        <ele>297</ele>
        <time>2015-08-26T10:18:00Z</time>
      </trkpt>
      <trkpt lat="44.62622" lon="2.14411">
        <ele>297</ele>
        <time>2015-08-26T10:18:06Z</time>
      </trkpt>
      <trkpt lat="44.62624" lon="2.14397">
        <ele>295</ele>
        <time>2015-08-26T10:18:17Z</time>
      </trkpt>
      <trkpt lat="44.62625" lon="2.14384">
        <ele>296</ele>
        <time>2015-08-26T10:18:27Z</time>
      </trkpt>
      <trkpt lat="44.62623" lon="2.14369">
        <ele>296</ele>
        <time>2015-08-26T10:18:37Z</time>
      </trkpt>
      <trkpt lat="44.62621" lon="2.14355">
        <ele>295</ele>
        <time>2015-08-26T10:18:46Z</time>
      </trkpt>
      <trkpt lat="44.62618" lon="2.14342">
        <ele>296</ele>
        <time>2015-08-26T10:18:55Z</time>
      </trkpt>
      <trkpt lat="44.62614" lon="2.14329">
        <ele>295</ele>
        <time>2015-08-26T10:19:05Z</time>
      </trkpt>
      <trkpt lat="44.6261" lon="2.14315">
        <ele>295</ele>
        <time>2015-08-26T10:19:15Z</time>
      </trkpt>
      <trkpt lat="44.62606" lon="2.14303">
        <ele>296</ele>
        <time>2015-08-26T10:19:25Z</time>
      </trkpt>
      <trkpt lat="44.62602" lon="2.1429">
        <ele>297</ele>
        <time>2015-08-26T10:19:35Z</time>
      </trkpt>
      <trkpt lat="44.62598" lon="2.14276">
        <ele>297</ele>
        <time>2015-08-26T10:19:45Z</time>
      </trkpt>
      <trkpt lat="44.62593" lon="2.14263">
        <ele>297</ele>
        <time>2015-08-26T10:19:55Z</time>
      </trkpt>
      <trkpt lat="44.62588" lon="2.14251">
        <ele>296</ele>
        <time>2015-08-26T10:20:05Z</time>
      </trkpt>
      <trkpt lat="44.62581" lon="2.14241">
        <ele>297</ele>
        <time>2015-08-26T10:20:15Z</time>
      </trkpt>
      <trkpt lat="44.62574" lon="2.14229">
        <ele>298</ele>
        <time>2015-08-26T10:20:25Z</time>
      </trkpt>
      <trkpt lat="44.62568" lon="2.14218">
        <ele>299</ele>
        <time>2015-08-26T10:20:34Z</time>
      </trkpt>
      <trkpt lat="44.62565" lon="2.14212">
        <ele>299</ele>
        <time>2015-08-26T10:20:40Z</time>
      </trkpt>
      <trkpt lat="44.62562" lon="2.14207">
        <ele>299</ele>
        <time>2015-08-26T10:20:46Z</time>
      </trkpt>
      <trkpt lat="44.62556" lon="2.14197">
        <ele>299</ele>
        <time>2015-08-26T10:20:55Z</time>
      </trkpt>
      <trkpt lat="44.6255" lon="2.14187">
        <ele>300</ele>
        <time>2015-08-26T10:21:05Z</time>
      </trkpt>
      <trkpt lat="44.62547" lon="2.14174">
        <ele>301</ele>
        <time>2015-08-26T10:21:16Z</time>
      </trkpt>
      <trkpt lat="44.62545" lon="2.14167">
        <ele>301</ele>
        <time>2015-08-26T10:21:22Z</time>
      </trkpt>
      <trkpt lat="44.62543" lon="2.14153">
        <ele>303</ele>
        <time>2015-08-26T10:21:32Z</time>
      </trkpt>
      <trkpt lat="44.62542" lon="2.1414">
        <ele>304</ele>
        <time>2015-08-26T10:21:42Z</time>
      </trkpt>
      <trkpt lat="44.62541" lon="2.14133">
        <ele>306</ele>
        <time>2015-08-26T10:21:49Z</time>
      </trkpt>
      <trkpt lat="44.62541" lon="2.14124">
        <ele>306</ele>
        <time>2015-08-26T10:21:56Z</time>
      </trkpt>
      <trkpt lat="44.62539" lon="2.14112">
        <ele>307</ele>
        <time>2015-08-26T10:22:06Z</time>
      </trkpt>
      <trkpt lat="44.62538" lon="2.14098">
        <ele>309</ele>
        <time>2015-08-26T10:22:17Z</time>
      </trkpt>
      <trkpt lat="44.62536" lon="2.14084">
        <ele>309</ele>
        <time>2015-08-26T10:22:27Z</time>
      </trkpt>
      <trkpt lat="44.62533" lon="2.1407">
        <ele>307</ele>
        <time>2015-08-26T10:22:38Z</time>
      </trkpt>
      <trkpt lat="44.62528" lon="2.14058">
        <ele>306</ele>
        <time>2015-08-26T10:22:49Z</time>
      </trkpt>
      <trkpt lat="44.62527" lon="2.1405">
        <ele>305</ele>
        <time>2015-08-26T10:22:58Z</time>
      </trkpt>
      <trkpt lat="44.62526" lon="2.14042">
        <ele>305</ele>
        <time>2015-08-26T10:23:04Z</time>
      </trkpt>
      <trkpt lat="44.62524" lon="2.14028">
        <ele>307</ele>
        <time>2015-08-26T10:23:14Z</time>
      </trkpt>
      <trkpt lat="44.62524" lon="2.14015">
        <ele>307</ele>
        <time>2015-08-26T10:23:26Z</time>
      </trkpt>
      <trkpt lat="44.62526" lon="2.14005">
        <ele>308</ele>
        <time>2015-08-26T10:31:35Z</time>
      </trkpt>
      <trkpt lat="44.62524" lon="2.13998">
        <ele>309</ele>
        <time>2015-08-26T10:31:43Z</time>
      </trkpt>
      <trkpt lat="44.62524" lon="2.13991">
        <ele>308</ele>
        <time>2015-08-26T10:31:50Z</time>
      </trkpt>
      <trkpt lat="44.62523" lon="2.13984">
        <ele>306</ele>
        <time>2015-08-26T10:31:57Z</time>
      </trkpt>
      <trkpt lat="44.62523" lon="2.1397">
        <ele>305</ele>
        <time>2015-08-26T10:32:07Z</time>
      </trkpt>
      <trkpt lat="44.62521" lon="2.13963">
        <ele>305</ele>
        <time>2015-08-26T10:32:13Z</time>
      </trkpt>
      <trkpt lat="44.6252" lon="2.1395">
        <ele>304</ele>
        <time>2015-08-26T10:32:23Z</time>
      </trkpt>
      <trkpt lat="44.62517" lon="2.13937">
        <ele>302</ele>
        <time>2015-08-26T10:32:32Z</time>
      </trkpt>
      <trkpt lat="44.62514" lon="2.13924">
        <ele>301</ele>
        <time>2015-08-26T10:32:42Z</time>
      </trkpt>
      <trkpt lat="44.6251" lon="2.13913">
        <ele>300</ele>
        <time>2015-08-26T10:32:50Z</time>
      </trkpt>
      <trkpt lat="44.62507" lon="2.13901">
        <ele>299</ele>
        <time>2015-08-26T10:33:00Z</time>
      </trkpt>
      <trkpt lat="44.62502" lon="2.13888">
        <ele>299</ele>
        <time>2015-08-26T10:33:10Z</time>
      </trkpt>
      <trkpt lat="44.62498" lon="2.13876">
        <ele>297</ele>
        <time>2015-08-26T10:33:20Z</time>
      </trkpt>
      <trkpt lat="44.62495" lon="2.13864">
        <ele>297</ele>
        <time>2015-08-26T10:33:30Z</time>
      </trkpt>
      <trkpt lat="44.62493" lon="2.13857">
        <ele>297</ele>
        <time>2015-08-26T10:33:36Z</time>
      </trkpt>
      <trkpt lat="44.62491" lon="2.1385">
        <ele>298</ele>
        <time>2015-08-26T10:33:42Z</time>
      </trkpt>
      <trkpt lat="44.62488" lon="2.13844">
        <ele>298</ele>
        <time>2015-08-26T10:33:48Z</time>
      </trkpt>
      <trkpt lat="44.62485" lon="2.13837">
        <ele>298</ele>
        <time>2015-08-26T10:33:54Z</time>
      </trkpt>
      <trkpt lat="44.62482" lon="2.13825">
        <ele>297</ele>
        <time>2015-08-26T10:34:03Z</time>
      </trkpt>
      <trkpt lat="44.62479" lon="2.13813">
        <ele>297</ele>
        <time>2015-08-26T10:34:13Z</time>
      </trkpt>
      <trkpt lat="44.62474" lon="2.13801">
        <ele>298</ele>
        <time>2015-08-26T10:34:24Z</time>
      </trkpt>
      <trkpt lat="44.62469" lon="2.13788">
        <ele>296</ele>
        <time>2015-08-26T10:34:34Z</time>
      </trkpt>
      <trkpt lat="44.62465" lon="2.13776">
        <ele>297</ele>
        <time>2015-08-26T10:34:43Z</time>
      </trkpt>
      <trkpt lat="44.62462" lon="2.13768">
        <ele>297</ele>
        <time>2015-08-26T10:34:50Z</time>
      </trkpt>
      <trkpt lat="44.62459" lon="2.13755">
        <ele>297</ele>
        <time>2015-08-26T10:34:59Z</time>
      </trkpt>
      <trkpt lat="44.62457" lon="2.13742">
        <ele>297</ele>
        <time>2015-08-26T10:35:07Z</time>
      </trkpt>
      <trkpt lat="44.62454" lon="2.13726">
        <ele>297</ele>
        <time>2015-08-26T10:35:18Z</time>
      </trkpt>
      <trkpt lat="44.62453" lon="2.13712">
        <ele>296</ele>
        <time>2015-08-26T10:35:28Z</time>
      </trkpt>
      <trkpt lat="44.62449" lon="2.13697">
        <ele>296</ele>
        <time>2015-08-26T10:35:38Z</time>
      </trkpt>
      <trkpt lat="44.62447" lon="2.13685">
        <ele>296</ele>
        <time>2015-08-26T10:35:47Z</time>
      </trkpt>
      <trkpt lat="44.62443" lon="2.13674">
        <ele>294</ele>
        <time>2015-08-26T10:35:55Z</time>
      </trkpt>
      <trkpt lat="44.62437" lon="2.13662">
        <ele>294</ele>
        <time>2015-08-26T10:36:05Z</time>
      </trkpt>
      <trkpt lat="44.62429" lon="2.13654">
        <ele>293</ele>
        <time>2015-08-26T10:36:15Z</time>
      </trkpt>
      <trkpt lat="44.62426" lon="2.13648">
        <ele>294</ele>
        <time>2015-08-26T10:36:21Z</time>
      </trkpt>
      <trkpt lat="44.6242" lon="2.13638">
        <ele>295</ele>
        <time>2015-08-26T10:36:31Z</time>
      </trkpt>
      <trkpt lat="44.62418" lon="2.13632">
        <ele>296</ele>
        <time>2015-08-26T10:36:37Z</time>
      </trkpt>
      <trkpt lat="44.62415" lon="2.13618">
        <ele>299</ele>
        <time>2015-08-26T10:36:48Z</time>
      </trkpt>
      <trkpt lat="44.62409" lon="2.13612">
        <ele>299</ele>
        <time>2015-08-26T10:36:55Z</time>
      </trkpt>
      <trkpt lat="44.62399" lon="2.13612">
        <ele>298</ele>
        <time>2015-08-26T10:37:04Z</time>
      </trkpt>
      <trkpt lat="44.62388" lon="2.13613">
        <ele>298</ele>
        <time>2015-08-26T10:37:14Z</time>
      </trkpt>
      <trkpt lat="44.62378" lon="2.13615">
        <ele>299</ele>
        <time>2015-08-26T10:37:24Z</time>
      </trkpt>
      <trkpt lat="44.62368" lon="2.13615">
        <ele>298</ele>
        <time>2015-08-26T10:37:34Z</time>
      </trkpt>
      <trkpt lat="44.62359" lon="2.13617">
        <ele>298</ele>
        <time>2015-08-26T10:37:44Z</time>
      </trkpt>
      <trkpt lat="44.62353" lon="2.13616">
        <ele>299</ele>
        <time>2015-08-26T10:37:50Z</time>
      </trkpt>
      <trkpt lat="44.62343" lon="2.13617">
        <ele>299</ele>
        <time>2015-08-26T10:37:59Z</time>
      </trkpt>
      <trkpt lat="44.62333" lon="2.13617">
        <ele>300</ele>
        <time>2015-08-26T10:38:09Z</time>
      </trkpt>
      <trkpt lat="44.62323" lon="2.13617">
        <ele>301</ele>
        <time>2015-08-26T10:38:19Z</time>
      </trkpt>
      <trkpt lat="44.62312" lon="2.13617">
        <ele>301</ele>
        <time>2015-08-26T10:38:29Z</time>
      </trkpt>
      <trkpt lat="44.62303" lon="2.13618">
        <ele>302</ele>
        <time>2015-08-26T10:38:39Z</time>
      </trkpt>
      <trkpt lat="44.62292" lon="2.13616">
        <ele>302</ele>
        <time>2015-08-26T10:38:49Z</time>
      </trkpt>
      <trkpt lat="44.62286" lon="2.13616">
        <ele>303</ele>
        <time>2015-08-26T10:38:55Z</time>
      </trkpt>
      <trkpt lat="44.62276" lon="2.13616">
        <ele>304</ele>
        <time>2015-08-26T10:39:05Z</time>
      </trkpt>
      <trkpt lat="44.62266" lon="2.13617">
        <ele>305</ele>
        <time>2015-08-26T10:39:14Z</time>
      </trkpt>
      <trkpt lat="44.62256" lon="2.13617">
        <ele>305</ele>
        <time>2015-08-26T10:39:23Z</time>
      </trkpt>
      <trkpt lat="44.62247" lon="2.13617">
        <ele>305</ele>
        <time>2015-08-26T10:39:32Z</time>
      </trkpt>
      <trkpt lat="44.62236" lon="2.13617">
        <ele>305</ele>
        <time>2015-08-26T10:39:42Z</time>
      </trkpt>
      <trkpt lat="44.62228" lon="2.1362">
        <ele>305</ele>
        <time>2015-08-26T10:39:50Z</time>
      </trkpt>
      <trkpt lat="44.62221" lon="2.1363">
        <ele>305</ele>
        <time>2015-08-26T10:40:00Z</time>
      </trkpt>
      <trkpt lat="44.62216" lon="2.13643">
        <ele>304</ele>
        <time>2015-08-26T10:40:09Z</time>
      </trkpt>
      <trkpt lat="44.62209" lon="2.13653">
        <ele>303</ele>
        <time>2015-08-26T10:40:18Z</time>
      </trkpt>
      <trkpt lat="44.62202" lon="2.13662">
        <ele>303</ele>
        <time>2015-08-26T10:40:27Z</time>
      </trkpt>
      <trkpt lat="44.62192" lon="2.13667">
        <ele>303</ele>
        <time>2015-08-26T10:40:37Z</time>
      </trkpt>
      <trkpt lat="44.62182" lon="2.13669">
        <ele>304</ele>
        <time>2015-08-26T10:40:47Z</time>
      </trkpt>
      <trkpt lat="44.62173" lon="2.13669">
        <ele>304</ele>
        <time>2015-08-26T10:40:55Z</time>
      </trkpt>
      <trkpt lat="44.62164" lon="2.1367">
        <ele>304</ele>
        <time>2015-08-26T10:41:04Z</time>
      </trkpt>
      <trkpt lat="44.62152" lon="2.1367">
        <ele>304</ele>
        <time>2015-08-26T10:41:14Z</time>
      </trkpt>
      <trkpt lat="44.62143" lon="2.13669">
        <ele>304</ele>
        <time>2015-08-26T10:41:24Z</time>
      </trkpt>
      <trkpt lat="44.62132" lon="2.13667">
        <ele>305</ele>
        <time>2015-08-26T10:41:34Z</time>
      </trkpt>
      <trkpt lat="44.62122" lon="2.13667">
        <ele>305</ele>
        <time>2015-08-26T10:41:44Z</time>
      </trkpt>
      <trkpt lat="44.62115" lon="2.13666">
        <ele>305</ele>
        <time>2015-08-26T10:41:50Z</time>
      </trkpt>
      <trkpt lat="44.62105" lon="2.13664">
        <ele>306</ele>
        <time>2015-08-26T10:42:00Z</time>
      </trkpt>
      <trkpt lat="44.62095" lon="2.13663">
        <ele>306</ele>
        <time>2015-08-26T10:42:10Z</time>
      </trkpt>
      <trkpt lat="44.62085" lon="2.13664">
        <ele>305</ele>
        <time>2015-08-26T10:42:20Z</time>
      </trkpt>
      <trkpt lat="44.62074" lon="2.13666">
        <ele>305</ele>
        <time>2015-08-26T10:42:30Z</time>
      </trkpt>
      <trkpt lat="44.62064" lon="2.13668">
        <ele>306</ele>
        <time>2015-08-26T10:42:40Z</time>
      </trkpt>
      <trkpt lat="44.62053" lon="2.13671">
        <ele>306</ele>
        <time>2015-08-26T10:42:50Z</time>
      </trkpt>
      <trkpt lat="44.62043" lon="2.13673">
        <ele>307</ele>
        <time>2015-08-26T10:43:00Z</time>
      </trkpt>
      <trkpt lat="44.62033" lon="2.13675">
        <ele>307</ele>
        <time>2015-08-26T10:43:10Z</time>
      </trkpt>
      <trkpt lat="44.62023" lon="2.13674">
        <ele>307</ele>
        <time>2015-08-26T10:43:20Z</time>
      </trkpt>
      <trkpt lat="44.62012" lon="2.13676">
        <ele>308</ele>
        <time>2015-08-26T10:43:30Z</time>
      </trkpt>
      <trkpt lat="44.62002" lon="2.13676">
        <ele>308</ele>
        <time>2015-08-26T10:43:40Z</time>
      </trkpt>
      <trkpt lat="44.61993" lon="2.13677">
        <ele>309</ele>
        <time>2015-08-26T10:43:50Z</time>
      </trkpt>
      <trkpt lat="44.61982" lon="2.13678">
        <ele>308</ele>
        <time>2015-08-26T10:44:00Z</time>
      </trkpt>
      <trkpt lat="44.61977" lon="2.13679">
        <ele>310</ele>
        <time>2015-08-26T10:44:39Z</time>
      </trkpt>
      <trkpt lat="44.61968" lon="2.13676">
        <ele>309</ele>
        <time>2015-08-26T10:44:48Z</time>
      </trkpt>
      <trkpt lat="44.61961" lon="2.13675">
        <ele>309</ele>
        <time>2015-08-26T10:44:54Z</time>
      </trkpt>
      <trkpt lat="44.61951" lon="2.13673">
        <ele>309</ele>
        <time>2015-08-26T10:45:04Z</time>
      </trkpt>
      <trkpt lat="44.61941" lon="2.13669">
        <ele>309</ele>
        <time>2015-08-26T10:45:14Z</time>
      </trkpt>
      <trkpt lat="44.6193" lon="2.13664">
        <ele>309</ele>
        <time>2015-08-26T10:45:24Z</time>
      </trkpt>
      <trkpt lat="44.6192" lon="2.13658">
        <ele>309</ele>
        <time>2015-08-26T10:45:34Z</time>
      </trkpt>
      <trkpt lat="44.61911" lon="2.13655">
        <ele>308</ele>
        <time>2015-08-26T10:45:43Z</time>
      </trkpt>
      <trkpt lat="44.61905" lon="2.1365">
        <ele>308</ele>
        <time>2015-08-26T10:45:50Z</time>
      </trkpt>
      <trkpt lat="44.61896" lon="2.13647">
        <ele>308</ele>
        <time>2015-08-26T10:45:58Z</time>
      </trkpt>
      <trkpt lat="44.61887" lon="2.13642">
        <ele>309</ele>
        <time>2015-08-26T10:46:08Z</time>
      </trkpt>
      <trkpt lat="44.61877" lon="2.13638">
        <ele>310</ele>
        <time>2015-08-26T10:46:19Z</time>
      </trkpt>
      <trkpt lat="44.61871" lon="2.13634">
        <ele>310</ele>
        <time>2015-08-26T10:46:50Z</time>
      </trkpt>
      <trkpt lat="44.61866" lon="2.13631">
        <ele>312</ele>
        <time>2015-08-26T10:49:42Z</time>
      </trkpt>
      <trkpt lat="44.6186" lon="2.13623">
        <ele>312</ele>
        <time>2015-08-26T10:49:50Z</time>
      </trkpt>
      <trkpt lat="44.61853" lon="2.13613">
        <ele>313</ele>
        <time>2015-08-26T10:50:00Z</time>
      </trkpt>
      <trkpt lat="44.61845" lon="2.13603">
        <ele>312</ele>
        <time>2015-08-26T10:50:11Z</time>
      </trkpt>
      <trkpt lat="44.61837" lon="2.13593">
        <ele>313</ele>
        <time>2015-08-26T10:50:21Z</time>
      </trkpt>
      <trkpt lat="44.61829" lon="2.13584">
        <ele>314</ele>
        <time>2015-08-26T10:50:30Z</time>
      </trkpt>
      <trkpt lat="44.61823" lon="2.13575">
        <ele>314</ele>
        <time>2015-08-26T10:50:39Z</time>
      </trkpt>
      <trkpt lat="44.61815" lon="2.13564">
        <ele>315</ele>
        <time>2015-08-26T10:50:49Z</time>
      </trkpt>
      <trkpt lat="44.61811" lon="2.13557">
        <ele>316</ele>
        <time>2015-08-26T10:50:55Z</time>
      </trkpt>
      <trkpt lat="44.61805" lon="2.13547">
        <ele>316</ele>
        <time>2015-08-26T10:51:04Z</time>
      </trkpt>
      <trkpt lat="44.61798" lon="2.13537">
        <ele>317</ele>
        <time>2015-08-26T10:51:12Z</time>
      </trkpt>
      <trkpt lat="44.6179" lon="2.13527">
        <ele>316</ele>
        <time>2015-08-26T10:51:21Z</time>
      </trkpt>
      <trkpt lat="44.61785" lon="2.13515">
        <ele>316</ele>
        <time>2015-08-26T10:51:30Z</time>
      </trkpt>
      <trkpt lat="44.6178" lon="2.13504">
        <ele>317</ele>
        <time>2015-08-26T10:51:38Z</time>
      </trkpt>
      <trkpt lat="44.61776" lon="2.13493">
        <ele>317</ele>
        <time>2015-08-26T10:51:46Z</time>
      </trkpt>
      <trkpt lat="44.61775" lon="2.1348">
        <ele>318</ele>
        <time>2015-08-26T10:51:55Z</time>
      </trkpt>
      <trkpt lat="44.61778" lon="2.13474">
        <ele>319</ele>
        <time>2015-08-26T10:52:38Z</time>
      </trkpt>
      <trkpt lat="44.61787" lon="2.1347">
        <ele>319</ele>
        <time>2015-08-26T10:52:47Z</time>
      </trkpt>
      <trkpt lat="44.61794" lon="2.13464">
        <ele>318</ele>
        <time>2015-08-26T10:52:55Z</time>
      </trkpt>
      <trkpt lat="44.61801" lon="2.13455">
        <ele>318</ele>
        <time>2015-08-26T10:53:03Z</time>
      </trkpt>
      <trkpt lat="44.61807" lon="2.13444">
        <ele>318</ele>
        <time>2015-08-26T10:53:13Z</time>
      </trkpt>
      <trkpt lat="44.61809" lon="2.13436">
        <ele>317</ele>
        <time>2015-08-26T10:54:35Z</time>
      </trkpt>
      <trkpt lat="44.61815" lon="2.13426">
        <ele>318</ele>
        <time>2015-08-26T10:54:45Z</time>
      </trkpt>
      <trkpt lat="44.61821" lon="2.13415">
        <ele>319</ele>
        <time>2015-08-26T10:54:55Z</time>
      </trkpt>
      <trkpt lat="44.61828" lon="2.13405">
        <ele>319</ele>
        <time>2015-08-26T10:55:05Z</time>
      </trkpt>
      <trkpt lat="44.61835" lon="2.13393">
        <ele>318</ele>
        <time>2015-08-26T10:55:15Z</time>
      </trkpt>
      <trkpt lat="44.61842" lon="2.13383">
        <ele>320</ele>
        <time>2015-08-26T10:55:24Z</time>
      </trkpt>
      <trkpt lat="44.6185" lon="2.13373">
        <ele>320</ele>
        <time>2015-08-26T10:55:34Z</time>
      </trkpt>
      <trkpt lat="44.61857" lon="2.13365">
        <ele>321</ele>
        <time>2015-08-26T10:55:42Z</time>
      </trkpt>
      <trkpt lat="44.61864" lon="2.13359">
        <ele>320</ele>
        <time>2015-08-26T10:55:50Z</time>
      </trkpt>
      <trkpt lat="44.61873" lon="2.1335">
        <ele>321</ele>
        <time>2015-08-26T10:56:00Z</time>
      </trkpt>
      <trkpt lat="44.61883" lon="2.13343">
        <ele>322</ele>
        <time>2015-08-26T10:56:10Z</time>
      </trkpt>
      <trkpt lat="44.61891" lon="2.13336">
        <ele>323</ele>
        <time>2015-08-26T10:56:19Z</time>
      </trkpt>
      <trkpt lat="44.61898" lon="2.13325">
        <ele>322</ele>
        <time>2015-08-26T10:56:28Z</time>
      </trkpt>
      <trkpt lat="44.61905" lon="2.13315">
        <ele>321</ele>
        <time>2015-08-26T10:56:37Z</time>
      </trkpt>
      <trkpt lat="44.61911" lon="2.13304">
        <ele>320</ele>
        <time>2015-08-26T10:56:46Z</time>
      </trkpt>
      <trkpt lat="44.61916" lon="2.13294">
        <ele>320</ele>
        <time>2015-08-26T10:56:54Z</time>
      </trkpt>
      <trkpt lat="44.61923" lon="2.13283">
        <ele>320</ele>
        <time>2015-08-26T10:57:04Z</time>
      </trkpt>
      <trkpt lat="44.6193" lon="2.13273">
        <ele>318</ele>
        <time>2015-08-26T10:57:13Z</time>
      </trkpt>
      <trkpt lat="44.61938" lon="2.13263">
        <ele>317</ele>
        <time>2015-08-26T10:57:23Z</time>
      </trkpt>
      <trkpt lat="44.61945" lon="2.13253">
        <ele>317</ele>
        <time>2015-08-26T10:57:33Z</time>
      </trkpt>
      <trkpt lat="44.61951" lon="2.13242">
        <ele>317</ele>
        <time>2015-08-26T10:57:43Z</time>
      </trkpt>
      <trkpt lat="44.61957" lon="2.13233">
        <ele>317</ele>
        <time>2015-08-26T10:57:51Z</time>
      </trkpt>
      <trkpt lat="44.61965" lon="2.13225">
        <ele>316</ele>
        <time>2015-08-26T10:58:01Z</time>
      </trkpt>
      <trkpt lat="44.61974" lon="2.13222">
        <ele>316</ele>
        <time>2015-08-26T10:58:11Z</time>
      </trkpt>
      <trkpt lat="44.61983" lon="2.13223">
        <ele>316</ele>
        <time>2015-08-26T10:58:21Z</time>
      </trkpt>
      <trkpt lat="44.61993" lon="2.13223">
        <ele>316</ele>
        <time>2015-08-26T10:58:32Z</time>
      </trkpt>
      <trkpt lat="44.62003" lon="2.13222">
        <ele>315</ele>
        <time>2015-08-26T10:58:42Z</time>
      </trkpt>
      <trkpt lat="44.62011" lon="2.13221">
        <ele>314</ele>
        <time>2015-08-26T10:58:50Z</time>
      </trkpt>
      <trkpt lat="44.62022" lon="2.1322">
        <ele>313</ele>
        <time>2015-08-26T10:59:00Z</time>
      </trkpt>
      <trkpt lat="44.62032" lon="2.13219">
        <ele>313</ele>
        <time>2015-08-26T10:59:09Z</time>
      </trkpt>
      <trkpt lat="44.62042" lon="2.13218">
        <ele>311</ele>
        <time>2015-08-26T10:59:19Z</time>
      </trkpt>
      <trkpt lat="44.62051" lon="2.13213">
        <ele>310</ele>
        <time>2015-08-26T10:59:31Z</time>
      </trkpt>
      <trkpt lat="44.62047" lon="2.132">
        <ele>310</ele>
        <time>2015-08-26T10:59:41Z</time>
      </trkpt>
      <trkpt lat="44.62043" lon="2.13191">
        <ele>311</ele>
        <time>2015-08-26T11:00:11Z</time>
      </trkpt>
      <trkpt lat="44.6204" lon="2.13186">
        <ele>310</ele>
        <time>2015-08-26T11:00:17Z</time>
      </trkpt>
      <trkpt lat="44.62036" lon="2.13182">
        <ele>310</ele>
        <time>2015-08-26T11:00:23Z</time>
      </trkpt>
      <trkpt lat="44.62032" lon="2.13177">
        <ele>311</ele>
        <time>2015-08-26T11:00:30Z</time>
      </trkpt>
      <trkpt lat="44.62025" lon="2.13167">
        <ele>307</ele>
        <time>2015-08-26T11:00:40Z</time>
      </trkpt>
      <trkpt lat="44.62019" lon="2.13153">
        <ele>305</ele>
        <time>2015-08-26T11:00:50Z</time>
      </trkpt>
      <trkpt lat="44.62013" lon="2.13143">
        <ele>306</ele>
        <time>2015-08-26T11:00:58Z</time>
      </trkpt>
      <trkpt lat="44.62005" lon="2.13134">
        <ele>306</ele>
        <time>2015-08-26T11:01:08Z</time>
      </trkpt>
      <trkpt lat="44.61997" lon="2.13126">
        <ele>306</ele>
        <time>2015-08-26T11:01:18Z</time>
      </trkpt>
      <trkpt lat="44.61989" lon="2.13118">
        <ele>305</ele>
        <time>2015-08-26T11:01:28Z</time>
      </trkpt>
      <trkpt lat="44.61986" lon="2.13113">
        <ele>304</ele>
        <time>2015-08-26T11:01:34Z</time>
      </trkpt>
      <trkpt lat="44.61983" lon="2.13106">
        <ele>305</ele>
        <time>2015-08-26T11:01:40Z</time>
      </trkpt>
      <trkpt lat="44.61983" lon="2.13099">
        <ele>306</ele>
        <time>2015-08-26T11:02:22Z</time>
      </trkpt>
      <trkpt lat="44.61985" lon="2.13093">
        <ele>304</ele>
        <time>2015-08-26T11:02:29Z</time>
      </trkpt>
      <trkpt lat="44.6199" lon="2.1308">
        <ele>304</ele>
        <time>2015-08-26T11:02:39Z</time>
      </trkpt>
      <trkpt lat="44.61995" lon="2.1307">
        <ele>304</ele>
        <time>2015-08-26T11:02:48Z</time>
      </trkpt>
      <trkpt lat="44.61998" lon="2.13063">
        <ele>306</ele>
        <time>2015-08-26T11:02:55Z</time>
      </trkpt>
      <trkpt lat="44.62005" lon="2.13052">
        <ele>308</ele>
        <time>2015-08-26T11:03:06Z</time>
      </trkpt>
      <trkpt lat="44.62009" lon="2.13039">
        <ele>307</ele>
        <time>2015-08-26T11:03:17Z</time>
      </trkpt>
      <trkpt lat="44.6201" lon="2.13032">
        <ele>307</ele>
        <time>2015-08-26T11:03:23Z</time>
      </trkpt>
      <trkpt lat="44.62012" lon="2.13019">
        <ele>307</ele>
        <time>2015-08-26T11:03:33Z</time>
      </trkpt>
      <trkpt lat="44.62012" lon="2.13005">
        <ele>309</ele>
        <time>2015-08-26T11:03:43Z</time>
      </trkpt>
      <trkpt lat="44.62011" lon="2.12996">
        <ele>308</ele>
        <time>2015-08-26T11:03:50Z</time>
      </trkpt>
      <trkpt lat="44.6201" lon="2.12982">
        <ele>307</ele>
        <time>2015-08-26T11:04:00Z</time>
      </trkpt>
      <trkpt lat="44.62008" lon="2.12976">
        <ele>308</ele>
        <time>2015-08-26T11:04:09Z</time>
      </trkpt>
      <trkpt lat="44.62007" lon="2.12962">
        <ele>311</ele>
        <time>2015-08-26T11:04:19Z</time>
      </trkpt>
      <trkpt lat="44.62008" lon="2.12948">
        <ele>310</ele>
        <time>2015-08-26T11:04:28Z</time>
      </trkpt>
      <trkpt lat="44.62009" lon="2.12934">
        <ele>311</ele>
        <time>2015-08-26T11:04:38Z</time>
      </trkpt>
      <trkpt lat="44.62011" lon="2.1292">
        <ele>312</ele>
        <time>2015-08-26T11:04:48Z</time>
      </trkpt>
      <trkpt lat="44.62013" lon="2.1291">
        <ele>313</ele>
        <time>2015-08-26T11:04:55Z</time>
      </trkpt>
      <trkpt lat="44.62013" lon="2.12897">
        <ele>316</ele>
        <time>2015-08-26T11:05:05Z</time>
      </trkpt>
      <trkpt lat="44.62016" lon="2.12883">
        <ele>317</ele>
        <time>2015-08-26T11:05:15Z</time>
      </trkpt>
      <trkpt lat="44.62017" lon="2.12876">
        <ele>318</ele>
        <time>2015-08-26T11:05:21Z</time>
      </trkpt>
      <trkpt lat="44.62019" lon="2.12862">
        <ele>318</ele>
        <time>2015-08-26T11:05:31Z</time>
      </trkpt>
      <trkpt lat="44.62022" lon="2.12848">
        <ele>318</ele>
        <time>2015-08-26T11:05:41Z</time>
      </trkpt>
      <trkpt lat="44.62024" lon="2.12833">
        <ele>319</ele>
        <time>2015-08-26T11:05:51Z</time>
      </trkpt>
      <trkpt lat="44.62025" lon="2.12818">
        <ele>319</ele>
        <time>2015-08-26T11:06:01Z</time>
      </trkpt>
      <trkpt lat="44.62026" lon="2.12804">
        <ele>319</ele>
        <time>2015-08-26T11:06:11Z</time>
      </trkpt>
      <trkpt lat="44.62028" lon="2.12789">
        <ele>319</ele>
        <time>2015-08-26T11:06:21Z</time>
      </trkpt>
      <trkpt lat="44.62029" lon="2.12775">
        <ele>320</ele>
        <time>2015-08-26T11:06:30Z</time>
      </trkpt>
      <trkpt lat="44.62029" lon="2.1276">
        <ele>321</ele>
        <time>2015-08-26T11:06:40Z</time>
      </trkpt>
      <trkpt lat="44.62029" lon="2.12748">
        <ele>321</ele>
        <time>2015-08-26T11:08:42Z</time>
      </trkpt>
      <trkpt lat="44.62029" lon="2.12736">
        <ele>321</ele>
        <time>2015-08-26T11:08:50Z</time>
      </trkpt>
      <trkpt lat="44.6203" lon="2.12723">
        <ele>321</ele>
        <time>2015-08-26T11:09:00Z</time>
      </trkpt>
      <trkpt lat="44.62029" lon="2.12709">
        <ele>322</ele>
        <time>2015-08-26T11:09:09Z</time>
      </trkpt>
      <trkpt lat="44.62028" lon="2.12695">
        <ele>323</ele>
        <time>2015-08-26T11:09:19Z</time>
      </trkpt>
      <trkpt lat="44.62027" lon="2.1268">
        <ele>323</ele>
        <time>2015-08-26T11:09:29Z</time>
      </trkpt>
      <trkpt lat="44.62026" lon="2.12667">
        <ele>323</ele>
        <time>2015-08-26T11:09:39Z</time>
      </trkpt>
      <trkpt lat="44.62024" lon="2.12652">
        <ele>324</ele>
        <time>2015-08-26T11:09:49Z</time>
      </trkpt>
      <trkpt lat="44.62021" lon="2.12644">
        <ele>322</ele>
        <time>2015-08-26T11:09:55Z</time>
      </trkpt>
      <trkpt lat="44.62017" lon="2.12631">
        <ele>325</ele>
        <time>2015-08-26T11:10:05Z</time>
      </trkpt>
      <trkpt lat="44.62015" lon="2.12618">
        <ele>321</ele>
        <time>2015-08-26T11:10:15Z</time>
      </trkpt>
      <trkpt lat="44.62013" lon="2.1261">
        <ele>323</ele>
        <time>2015-08-26T11:10:21Z</time>
      </trkpt>
      <trkpt lat="44.6201" lon="2.12597">
        <ele>322</ele>
        <time>2015-08-26T11:10:43Z</time>
      </trkpt>
      <trkpt lat="44.62007" lon="2.12586">
        <ele>323</ele>
        <time>2015-08-26T11:10:56Z</time>
      </trkpt>
      <trkpt lat="44.62003" lon="2.12573">
        <ele>322</ele>
        <time>2015-08-26T11:11:07Z</time>
      </trkpt>
      <trkpt lat="44.62001" lon="2.12566">
        <ele>322</ele>
        <time>2015-08-26T11:11:13Z</time>
      </trkpt>
      <trkpt lat="44.61999" lon="2.12559">
        <ele>322</ele>
        <time>2015-08-26T11:11:19Z</time>
      </trkpt>
      <trkpt lat="44.61996" lon="2.12546">
        <ele>323</ele>
        <time>2015-08-26T11:11:29Z</time>
      </trkpt>
      <trkpt lat="44.61991" lon="2.12533">
        <ele>326</ele>
        <time>2015-08-26T11:11:39Z</time>
      </trkpt>
      <trkpt lat="44.61987" lon="2.12521">
        <ele>327</ele>
        <time>2015-08-26T11:11:49Z</time>
      </trkpt>
      <trkpt lat="44.6198" lon="2.12509">
        <ele>329</ele>
        <time>2015-08-26T11:11:59Z</time>
      </trkpt>
      <trkpt lat="44.61973" lon="2.12499">
        <ele>332</ele>
        <time>2015-08-26T11:12:10Z</time>
      </trkpt>
      <trkpt lat="44.61969" lon="2.12494">
        <ele>331</ele>
        <time>2015-08-26T11:12:16Z</time>
      </trkpt>
      <trkpt lat="44.61963" lon="2.12485">
        <ele>330</ele>
        <time>2015-08-26T11:12:26Z</time>
      </trkpt>
      <trkpt lat="44.61954" lon="2.12475">
        <ele>330</ele>
        <time>2015-08-26T11:12:36Z</time>
      </trkpt>
      <trkpt lat="44.61946" lon="2.12466">
        <ele>331</ele>
        <time>2015-08-26T11:12:46Z</time>
      </trkpt>
      <trkpt lat="44.61938" lon="2.12457">
        <ele>330</ele>
        <time>2015-08-26T11:12:56Z</time>
      </trkpt>
      <trkpt lat="44.61929" lon="2.12449">
        <ele>328</ele>
        <time>2015-08-26T11:13:07Z</time>
      </trkpt>
      <trkpt lat="44.6192" lon="2.12443">
        <ele>329</ele>
        <time>2015-08-26T11:13:16Z</time>
      </trkpt>
      <trkpt lat="44.6191" lon="2.12441">
        <ele>333</ele>
        <time>2015-08-26T11:13:40Z</time>
      </trkpt>
      <trkpt lat="44.61899" lon="2.12443">
        <ele>331</ele>
        <time>2015-08-26T11:13:50Z</time>
      </trkpt>
      <trkpt lat="44.61889" lon="2.12447">
        <ele>331</ele>
        <time>2015-08-26T11:14:00Z</time>
      </trkpt>
      <trkpt lat="44.61879" lon="2.12448">
        <ele>332</ele>
        <time>2015-08-26T11:14:09Z</time>
      </trkpt>
      <trkpt lat="44.61869" lon="2.12449">
        <ele>332</ele>
        <time>2015-08-26T11:14:19Z</time>
      </trkpt>
      <trkpt lat="44.61864" lon="2.12449">
        <ele>331</ele>
        <time>2015-08-26T11:14:25Z</time>
      </trkpt>
      <trkpt lat="44.61853" lon="2.12454">
        <ele>333</ele>
        <time>2015-08-26T11:14:35Z</time>
      </trkpt>
      <trkpt lat="44.61843" lon="2.12454">
        <ele>334</ele>
        <time>2015-08-26T11:14:45Z</time>
      </trkpt>
      <trkpt lat="44.61837" lon="2.12453">
        <ele>334</ele>
        <time>2015-08-26T11:14:51Z</time>
      </trkpt>
      <trkpt lat="44.61826" lon="2.1245">
        <ele>335</ele>
        <time>2015-08-26T11:15:01Z</time>
      </trkpt>
      <trkpt lat="44.61817" lon="2.12446">
        <ele>337</ele>
        <time>2015-08-26T11:15:11Z</time>
      </trkpt>
      <trkpt lat="44.61808" lon="2.1244">
        <ele>337</ele>
        <time>2015-08-26T11:15:20Z</time>
      </trkpt>
      <trkpt lat="44.61801" lon="2.1243">
        <ele>336</ele>
        <time>2015-08-26T11:15:30Z</time>
      </trkpt>
      <trkpt lat="44.61793" lon="2.12422">
        <ele>335</ele>
        <time>2015-08-26T11:15:39Z</time>
      </trkpt>
      <trkpt lat="44.61787" lon="2.12411">
        <ele>335</ele>
        <time>2015-08-26T11:15:48Z</time>
      </trkpt>
      <trkpt lat="44.61782" lon="2.12403">
        <ele>335</ele>
        <time>2015-08-26T11:15:55Z</time>
      </trkpt>
      <trkpt lat="44.61775" lon="2.12393">
        <ele>336</ele>
        <time>2015-08-26T11:16:04Z</time>
      </trkpt>
      <trkpt lat="44.61768" lon="2.12381">
        <ele>336</ele>
        <time>2015-08-26T11:16:14Z</time>
      </trkpt>
      <trkpt lat="44.61761" lon="2.1237">
        <ele>337</ele>
        <time>2015-08-26T11:16:23Z</time>
      </trkpt>
      <trkpt lat="44.61755" lon="2.12358">
        <ele>337</ele>
        <time>2015-08-26T11:16:33Z</time>
      </trkpt>
      <trkpt lat="44.61747" lon="2.12349">
        <ele>336</ele>
        <time>2015-08-26T11:16:43Z</time>
      </trkpt>
      <trkpt lat="44.61742" lon="2.12347">
        <ele>336</ele>
        <time>2015-08-26T11:16:49Z</time>
      </trkpt>
      <trkpt lat="44.61735" lon="2.12345">
        <ele>336</ele>
        <time>2015-08-26T11:20:02Z</time>
      </trkpt>
      <trkpt lat="44.61726" lon="2.12344">
        <ele>337</ele>
        <time>2015-08-26T11:21:28Z</time>
      </trkpt>
      <trkpt lat="44.61721" lon="2.12342">
        <ele>338</ele>
        <time>2015-08-26T11:21:34Z</time>
      </trkpt>
      <trkpt lat="44.61713" lon="2.12338">
        <ele>338</ele>
        <time>2015-08-26T11:21:44Z</time>
      </trkpt>
      <trkpt lat="44.61708" lon="2.12336">
        <ele>339</ele>
        <time>2015-08-26T11:21:50Z</time>
      </trkpt>
      <trkpt lat="44.61699" lon="2.1233">
        <ele>339</ele>
        <time>2015-08-26T11:22:00Z</time>
      </trkpt>
      <trkpt lat="44.61689" lon="2.12323">
        <ele>339</ele>
        <time>2015-08-26T11:22:10Z</time>
      </trkpt>
      <trkpt lat="44.61681" lon="2.12316">
        <ele>339</ele>
        <time>2015-08-26T11:22:20Z</time>
      </trkpt>
      <trkpt lat="44.61673" lon="2.12307">
        <ele>339</ele>
        <time>2015-08-26T11:22:30Z</time>
      </trkpt>
      <trkpt lat="44.61669" lon="2.12305">
        <ele>337</ele>
        <time>2015-08-26T11:22:38Z</time>
      </trkpt>
      <trkpt lat="44.6166" lon="2.12303">
        <ele>336</ele>
        <time>2015-08-26T11:22:50Z</time>
      </trkpt>
      <trkpt lat="44.61655" lon="2.12298">
        <ele>336</ele>
        <time>2015-08-26T11:23:27Z</time>
      </trkpt>
      <trkpt lat="44.61653" lon="2.12291">
        <ele>335</ele>
        <time>2015-08-26T11:23:33Z</time>
      </trkpt>
      <trkpt lat="44.61646" lon="2.12281">
        <ele>330</ele>
        <time>2015-08-26T11:23:44Z</time>
      </trkpt>
      <trkpt lat="44.61643" lon="2.12275">
        <ele>329</ele>
        <time>2015-08-26T11:23:50Z</time>
      </trkpt>
      <trkpt lat="44.61636" lon="2.12263">
        <ele>327</ele>
        <time>2015-08-26T11:24:00Z</time>
      </trkpt>
      <trkpt lat="44.61633" lon="2.12258">
        <ele>326</ele>
        <time>2015-08-26T11:24:06Z</time>
      </trkpt>
      <trkpt lat="44.61626" lon="2.12249">
        <ele>325</ele>
        <time>2015-08-26T11:24:16Z</time>
      </trkpt>
      <trkpt lat="44.61622" lon="2.12245">
        <ele>324</ele>
        <time>2015-08-26T11:24:22Z</time>
      </trkpt>
      <trkpt lat="44.61616" lon="2.12234">
        <ele>323</ele>
        <time>2015-08-26T11:24:32Z</time>
      </trkpt>
      <trkpt lat="44.61613" lon="2.12229">
        <ele>324</ele>
        <time>2015-08-26T11:24:38Z</time>
      </trkpt>
      <trkpt lat="44.61609" lon="2.12224">
        <ele>321</ele>
        <time>2015-08-26T11:24:45Z</time>
      </trkpt>
      <trkpt lat="44.61602" lon="2.12213">
        <ele>322</ele>
        <time>2015-08-26T11:24:55Z</time>
      </trkpt>
      <trkpt lat="44.61596" lon="2.12202">
        <ele>323</ele>
        <time>2015-08-26T11:25:04Z</time>
      </trkpt>
      <trkpt lat="44.61589" lon="2.12191">
        <ele>322</ele>
        <time>2015-08-26T11:25:14Z</time>
      </trkpt>
      <trkpt lat="44.61582" lon="2.12179">
        <ele>321</ele>
        <time>2015-08-26T11:25:24Z</time>
      </trkpt>
      <trkpt lat="44.61575" lon="2.12169">
        <ele>321</ele>
        <time>2015-08-26T11:25:33Z</time>
      </trkpt>
      <trkpt lat="44.61569" lon="2.12159">
        <ele>321</ele>
        <time>2015-08-26T11:25:42Z</time>
      </trkpt>
      <trkpt lat="44.61562" lon="2.12151">
        <ele>321</ele>
        <time>2015-08-26T11:25:50Z</time>
      </trkpt>
      <trkpt lat="44.61555" lon="2.12142">
        <ele>320</ele>
        <time>2015-08-26T11:26:00Z</time>
      </trkpt>
      <trkpt lat="44.61551" lon="2.12128">
        <ele>321</ele>
        <time>2015-08-26T11:26:10Z</time>
      </trkpt>
      <trkpt lat="44.61549" lon="2.12114">
        <ele>319</ele>
        <time>2015-08-26T11:26:20Z</time>
      </trkpt>
      <trkpt lat="44.61547" lon="2.12108">
        <ele>319</ele>
        <time>2015-08-26T11:26:26Z</time>
      </trkpt>
      <trkpt lat="44.61546" lon="2.12095">
        <ele>319</ele>
        <time>2015-08-26T11:26:36Z</time>
      </trkpt>
      <trkpt lat="44.61545" lon="2.12081">
        <ele>318</ele>
        <time>2015-08-26T11:26:46Z</time>
      </trkpt>
      <trkpt lat="44.61543" lon="2.12068">
        <ele>319</ele>
        <time>2015-08-26T11:26:57Z</time>
      </trkpt>
      <trkpt lat="44.61542" lon="2.12061">
        <ele>318</ele>
        <time>2015-08-26T11:27:03Z</time>
      </trkpt>
      <trkpt lat="44.6154" lon="2.12048">
        <ele>317</ele>
        <time>2015-08-26T11:27:12Z</time>
      </trkpt>
      <trkpt lat="44.61539" lon="2.12041">
        <ele>318</ele>
        <time>2015-08-26T11:27:18Z</time>
      </trkpt>
      <trkpt lat="44.61538" lon="2.12034">
        <ele>318</ele>
        <time>2015-08-26T11:27:24Z</time>
      </trkpt>
      <trkpt lat="44.61536" lon="2.12021">
        <ele>317</ele>
        <time>2015-08-26T11:27:35Z</time>
      </trkpt>
      <trkpt lat="44.61534" lon="2.12007">
        <ele>317</ele>
        <time>2015-08-26T11:27:45Z</time>
      </trkpt>
      <trkpt lat="44.61531" lon="2.11995">
        <ele>318</ele>
        <time>2015-08-26T11:27:55Z</time>
      </trkpt>
      <trkpt lat="44.6153" lon="2.1198">
        <ele>318</ele>
        <time>2015-08-26T11:28:05Z</time>
      </trkpt>
      <trkpt lat="44.61528" lon="2.11965">
        <ele>321</ele>
        <time>2015-08-26T11:28:16Z</time>
      </trkpt>
      <trkpt lat="44.61527" lon="2.11958">
        <ele>324</ele>
        <time>2015-08-26T11:28:25Z</time>
      </trkpt>
      <trkpt lat="44.61526" lon="2.1195">
        <ele>324</ele>
        <time>2015-08-26T11:28:31Z</time>
      </trkpt>
      <trkpt lat="44.61526" lon="2.11944">
        <ele>326</ele>
        <time>2015-08-26T11:28:37Z</time>
      </trkpt>
      <trkpt lat="44.61525" lon="2.11937">
        <ele>327</ele>
        <time>2015-08-26T11:28:43Z</time>
      </trkpt>
      <trkpt lat="44.61525" lon="2.1193">
        <ele>327</ele>
        <time>2015-08-26T11:28:50Z</time>
      </trkpt>
      <trkpt lat="44.61522" lon="2.11917">
        <ele>328</ele>
        <time>2015-08-26T11:29:10Z</time>
      </trkpt>
      <trkpt lat="44.6152" lon="2.11911">
        <ele>327</ele>
        <time>2015-08-26T11:29:19Z</time>
      </trkpt>
      <trkpt lat="44.61518" lon="2.11904">
        <ele>325</ele>
        <time>2015-08-26T11:29:26Z</time>
      </trkpt>
      <trkpt lat="44.61513" lon="2.11893">
        <ele>326</ele>
        <time>2015-08-26T11:29:38Z</time>
      </trkpt>
      <trkpt lat="44.6151" lon="2.11887">
        <ele>328</ele>
        <time>2015-08-26T11:29:44Z</time>
      </trkpt>
      <trkpt lat="44.61508" lon="2.11882">
        <ele>327</ele>
        <time>2015-08-26T11:29:50Z</time>
      </trkpt>
      <trkpt lat="44.61502" lon="2.11882">
        <ele>327</ele>
        <time>2015-08-26T11:29:56Z</time>
      </trkpt>
      <trkpt lat="44.61492" lon="2.11887">
        <ele>326</ele>
        <time>2015-08-26T11:30:06Z</time>
      </trkpt>
      <trkpt lat="44.61483" lon="2.11891">
        <ele>326</ele>
        <time>2015-08-26T11:30:16Z</time>
      </trkpt>
      <trkpt lat="44.61478" lon="2.1189">
        <ele>328</ele>
        <time>2015-08-26T11:30:22Z</time>
      </trkpt>
      <trkpt lat="44.61468" lon="2.11885">
        <ele>328</ele>
        <time>2015-08-26T11:30:32Z</time>
      </trkpt>
      <trkpt lat="44.61463" lon="2.11884">
        <ele>326</ele>
        <time>2015-08-26T11:30:38Z</time>
      </trkpt>
      <trkpt lat="44.61455" lon="2.11878">
        <ele>326</ele>
        <time>2015-08-26T11:30:48Z</time>
      </trkpt>
      <trkpt lat="44.61448" lon="2.11874">
        <ele>326</ele>
        <time>2015-08-26T11:30:57Z</time>
      </trkpt>
      <trkpt lat="44.61443" lon="2.11873">
        <ele>325</ele>
        <time>2015-08-26T11:31:03Z</time>
      </trkpt>
      <trkpt lat="44.61438" lon="2.1187">
        <ele>327</ele>
        <time>2015-08-26T11:31:10Z</time>
      </trkpt>
      <trkpt lat="44.61433" lon="2.11869">
        <ele>326</ele>
        <time>2015-08-26T11:31:16Z</time>
      </trkpt>
      <trkpt lat="44.61428" lon="2.11866">
        <ele>326</ele>
        <time>2015-08-26T11:31:23Z</time>
      </trkpt>
      <trkpt lat="44.61418" lon="2.11861">
        <ele>326</ele>
        <time>2015-08-26T11:31:33Z</time>
      </trkpt>
      <trkpt lat="44.61414" lon="2.11857">
        <ele>324</ele>
        <time>2015-08-26T11:31:40Z</time>
      </trkpt>
      <trkpt lat="44.61406" lon="2.11852">
        <ele>324</ele>
        <time>2015-08-26T11:31:50Z</time>
      </trkpt>
      <trkpt lat="44.61396" lon="2.11847">
        <ele>323</ele>
        <time>2015-08-26T11:32:01Z</time>
      </trkpt>
      <trkpt lat="44.61391" lon="2.11845">
        <ele>323</ele>
        <time>2015-08-26T11:32:07Z</time>
      </trkpt>
      <trkpt lat="44.61382" lon="2.11839">
        <ele>323</ele>
        <time>2015-08-26T11:32:19Z</time>
      </trkpt>
      <trkpt lat="44.61372" lon="2.11836">
        <ele>324</ele>
        <time>2015-08-26T11:32:30Z</time>
      </trkpt>
      <trkpt lat="44.61368" lon="2.11833">
        <ele>323</ele>
        <time>2015-08-26T11:32:36Z</time>
      </trkpt>
      <trkpt lat="44.61357" lon="2.11832">
        <ele>323</ele>
        <time>2015-08-26T11:32:46Z</time>
      </trkpt>
      <trkpt lat="44.61349" lon="2.11841">
        <ele>321</ele>
        <time>2015-08-26T11:32:56Z</time>
      </trkpt>
      <trkpt lat="44.61342" lon="2.11851">
        <ele>320</ele>
        <time>2015-08-26T11:33:06Z</time>
      </trkpt>
      <trkpt lat="44.61334" lon="2.11862">
        <ele>318</ele>
        <time>2015-08-26T11:33:16Z</time>
      </trkpt>
      <trkpt lat="44.61326" lon="2.11873">
        <ele>318</ele>
        <time>2015-08-26T11:33:26Z</time>
      </trkpt>
      <trkpt lat="44.6132" lon="2.11884">
        <ele>318</ele>
        <time>2015-08-26T11:33:36Z</time>
      </trkpt>
      <trkpt lat="44.61313" lon="2.11893">
        <ele>318</ele>
        <time>2015-08-26T11:33:44Z</time>
      </trkpt>
      <trkpt lat="44.61308" lon="2.11901">
        <ele>318</ele>
        <time>2015-08-26T11:33:51Z</time>
      </trkpt>
      <trkpt lat="44.613" lon="2.11911">
        <ele>317</ele>
        <time>2015-08-26T11:34:00Z</time>
      </trkpt>
      <trkpt lat="44.61292" lon="2.11922">
        <ele>317</ele>
        <time>2015-08-26T11:34:10Z</time>
      </trkpt>
      <trkpt lat="44.61284" lon="2.11932">
        <ele>317</ele>
        <time>2015-08-26T11:34:20Z</time>
      </trkpt>
      <trkpt lat="44.61277" lon="2.11942">
        <ele>316</ele>
        <time>2015-08-26T11:34:29Z</time>
      </trkpt>
      <trkpt lat="44.61269" lon="2.11952">
        <ele>315</ele>
        <time>2015-08-26T11:34:39Z</time>
      </trkpt>
      <trkpt lat="44.61261" lon="2.11961">
        <ele>315</ele>
        <time>2015-08-26T11:34:48Z</time>
      </trkpt>
      <trkpt lat="44.61255" lon="2.11967">
        <ele>314</ele>
        <time>2015-08-26T11:34:56Z</time>
      </trkpt>
      <trkpt lat="44.61251" lon="2.1197">
        <ele>315</ele>
        <time>2015-08-26T11:35:33Z</time>
      </trkpt>
      <trkpt lat="44.61244" lon="2.11966">
        <ele>314</ele>
        <time>2015-08-26T11:36:02Z</time>
      </trkpt>
      <trkpt lat="44.61239" lon="2.11964">
        <ele>313</ele>
        <time>2015-08-26T11:36:08Z</time>
      </trkpt>
      <trkpt lat="44.61234" lon="2.1196">
        <ele>314</ele>
        <time>2015-08-26T11:36:14Z</time>
      </trkpt>
      <trkpt lat="44.61226" lon="2.11954">
        <ele>316</ele>
        <time>2015-08-26T11:36:24Z</time>
      </trkpt>
      <trkpt lat="44.61216" lon="2.11957">
        <ele>316</ele>
        <time>2015-08-26T11:36:34Z</time>
      </trkpt>
      <trkpt lat="44.61207" lon="2.11962">
        <ele>316</ele>
        <time>2015-08-26T11:36:43Z</time>
      </trkpt>
      <trkpt lat="44.61199" lon="2.11967">
        <ele>316</ele>
        <time>2015-08-26T11:36:51Z</time>
      </trkpt>
      <trkpt lat="44.6119" lon="2.11975">
        <ele>316</ele>
        <time>2015-08-26T11:37:01Z</time>
      </trkpt>
      <trkpt lat="44.6118" lon="2.1198">
        <ele>318</ele>
        <time>2015-08-26T11:37:12Z</time>
      </trkpt>
      <trkpt lat="44.61175" lon="2.11979">
        <ele>319</ele>
        <time>2015-08-26T11:37:20Z</time>
      </trkpt>
      <trkpt lat="44.61171" lon="2.11967">
        <ele>319</ele>
        <time>2015-08-26T11:37:30Z</time>
      </trkpt>
      <trkpt lat="44.61167" lon="2.11953">
        <ele>322</ele>
        <time>2015-08-26T11:37:40Z</time>
      </trkpt>
      <trkpt lat="44.61163" lon="2.11941">
        <ele>322</ele>
        <time>2015-08-26T11:37:49Z</time>
      </trkpt>
      <trkpt lat="44.6116" lon="2.11932">
        <ele>322</ele>
        <time>2015-08-26T11:37:56Z</time>
      </trkpt>
      <trkpt lat="44.61156" lon="2.11919">
        <ele>323</ele>
        <time>2015-08-26T11:38:05Z</time>
      </trkpt>
      <trkpt lat="44.61151" lon="2.11906">
        <ele>325</ele>
        <time>2015-08-26T11:38:15Z</time>
      </trkpt>
      <trkpt lat="44.61152" lon="2.11894">
        <ele>325</ele>
        <time>2015-08-26T11:38:25Z</time>
      </trkpt>
      <trkpt lat="44.61147" lon="2.11882">
        <ele>326</ele>
        <time>2015-08-26T11:38:34Z</time>
      </trkpt>
      <trkpt lat="44.61144" lon="2.11867">
        <ele>326</ele>
        <time>2015-08-26T11:38:45Z</time>
      </trkpt>
      <trkpt lat="44.61143" lon="2.11858">
        <ele>325</ele>
        <time>2015-08-26T11:38:51Z</time>
      </trkpt>
      <trkpt lat="44.61141" lon="2.11844">
        <ele>325</ele>
        <time>2015-08-26T11:39:00Z</time>
      </trkpt>
      <trkpt lat="44.61141" lon="2.11837">
        <ele>324</ele>
        <time>2015-08-26T11:39:06Z</time>
      </trkpt>
      <trkpt lat="44.61147" lon="2.11825">
        <ele>326</ele>
        <time>2015-08-26T11:39:16Z</time>
      </trkpt>
      <trkpt lat="44.61155" lon="2.11815">
        <ele>325</ele>
        <time>2015-08-26T11:39:27Z</time>
      </trkpt>
      <trkpt lat="44.61158" lon="2.11809">
        <ele>321</ele>
        <time>2015-08-26T12:03:51Z</time>
      </trkpt>
      <trkpt lat="44.61153" lon="2.11808">
        <ele>324</ele>
        <time>2015-08-26T12:50:51Z</time>
      </trkpt>
      <trkpt lat="44.61148" lon="2.11809">
        <ele>324</ele>
        <time>2015-08-26T12:50:58Z</time>
      </trkpt>
      <trkpt lat="44.61139" lon="2.1181">
        <ele>323</ele>
        <time>2015-08-26T12:51:08Z</time>
      </trkpt>
      <trkpt lat="44.6113" lon="2.11809">
        <ele>321</ele>
        <time>2015-08-26T12:51:20Z</time>
      </trkpt>
      <trkpt lat="44.61126" lon="2.11798">
        <ele>321</ele>
        <time>2015-08-26T12:51:30Z</time>
      </trkpt>
      <trkpt lat="44.61123" lon="2.11791">
        <ele>321</ele>
        <time>2015-08-26T12:51:36Z</time>
      </trkpt>
      <trkpt lat="44.61121" lon="2.11784">
        <ele>322</ele>
        <time>2015-08-26T12:51:42Z</time>
      </trkpt>
      <trkpt lat="44.61119" lon="2.11778">
        <ele>324</ele>
        <time>2015-08-26T12:51:48Z</time>
      </trkpt>
      <trkpt lat="44.61115" lon="2.11771">
        <ele>325</ele>
        <time>2015-08-26T12:51:57Z</time>
      </trkpt>
      <trkpt lat="44.61111" lon="2.11765">
        <ele>324</ele>
        <time>2015-08-26T12:52:03Z</time>
      </trkpt>
      <trkpt lat="44.61107" lon="2.11763">
        <ele>325</ele>
        <time>2015-08-26T12:52:10Z</time>
      </trkpt>
      <trkpt lat="44.61103" lon="2.11767">
        <ele>326</ele>
        <time>2015-08-26T12:52:17Z</time>
      </trkpt>
      <trkpt lat="44.61102" lon="2.11774">
        <ele>330</ele>
        <time>2015-08-26T12:52:23Z</time>
      </trkpt>
      <trkpt lat="44.61099" lon="2.11778">
        <ele>327</ele>
        <time>2015-08-26T12:52:29Z</time>
      </trkpt>
      <trkpt lat="44.61092" lon="2.11786">
        <ele>327</ele>
        <time>2015-08-26T12:52:39Z</time>
      </trkpt>
      <trkpt lat="44.61087" lon="2.11791">
        <ele>328</ele>
        <time>2015-08-26T12:52:46Z</time>
      </trkpt>
      <trkpt lat="44.61081" lon="2.11799">
        <ele>327</ele>
        <time>2015-08-26T12:52:58Z</time>
      </trkpt>
      <trkpt lat="44.61072" lon="2.11805">
        <ele>327</ele>
        <time>2015-08-26T12:53:08Z</time>
      </trkpt>
      <trkpt lat="44.61062" lon="2.1181">
        <ele>327</ele>
        <time>2015-08-26T12:53:19Z</time>
      </trkpt>
      <trkpt lat="44.61053" lon="2.11813">
        <ele>327</ele>
        <time>2015-08-26T12:53:29Z</time>
      </trkpt>
      <trkpt lat="44.61048" lon="2.11816">
        <ele>328</ele>
        <time>2015-08-26T12:53:35Z</time>
      </trkpt>
      <trkpt lat="44.61044" lon="2.11817">
        <ele>329</ele>
        <time>2015-08-26T12:53:41Z</time>
      </trkpt>
      <trkpt lat="44.61035" lon="2.11819">
        <ele>327</ele>
        <time>2015-08-26T12:53:51Z</time>
      </trkpt>
      <trkpt lat="44.61029" lon="2.1182">
        <ele>327</ele>
        <time>2015-08-26T12:53:58Z</time>
      </trkpt>
      <trkpt lat="44.6102" lon="2.11823">
        <ele>328</ele>
        <time>2015-08-26T12:54:09Z</time>
      </trkpt>
      <trkpt lat="44.61016" lon="2.11825">
        <ele>330</ele>
        <time>2015-08-26T12:54:16Z</time>
      </trkpt>
      <trkpt lat="44.61011" lon="2.11827">
        <ele>330</ele>
        <time>2015-08-26T12:54:23Z</time>
      </trkpt>
      <trkpt lat="44.61006" lon="2.11828">
        <ele>329</ele>
        <time>2015-08-26T12:54:30Z</time>
      </trkpt>
      <trkpt lat="44.61001" lon="2.11828">
        <ele>330</ele>
        <time>2015-08-26T12:54:37Z</time>
      </trkpt>
      <trkpt lat="44.60997" lon="2.1183">
        <ele>331</ele>
        <time>2015-08-26T12:54:44Z</time>
      </trkpt>
      <trkpt lat="44.60988" lon="2.11834">
        <ele>334</ele>
        <time>2015-08-26T12:54:57Z</time>
      </trkpt>
      <trkpt lat="44.60983" lon="2.11834">
        <ele>335</ele>
        <time>2015-08-26T12:55:04Z</time>
      </trkpt>
      <trkpt lat="44.60979" lon="2.1183">
        <ele>335</ele>
        <time>2015-08-26T12:55:29Z</time>
      </trkpt>
      <trkpt lat="44.60976" lon="2.11824">
        <ele>336</ele>
        <time>2015-08-26T12:55:35Z</time>
      </trkpt>
      <trkpt lat="44.60975" lon="2.11818">
        <ele>339</ele>
        <time>2015-08-26T12:55:42Z</time>
      </trkpt>
      <trkpt lat="44.60972" lon="2.11813">
        <ele>341</ele>
        <time>2015-08-26T12:55:48Z</time>
      </trkpt>
      <trkpt lat="44.60969" lon="2.11804">
        <ele>342</ele>
        <time>2015-08-26T12:55:56Z</time>
      </trkpt>
      <trkpt lat="44.60966" lon="2.11798">
        <ele>340</ele>
        <time>2015-08-26T12:56:02Z</time>
      </trkpt>
      <trkpt lat="44.60963" lon="2.11784">
        <ele>341</ele>
        <time>2015-08-26T12:56:12Z</time>
      </trkpt>
      <trkpt lat="44.60958" lon="2.11772">
        <ele>342</ele>
        <time>2015-08-26T12:56:21Z</time>
      </trkpt>
      <trkpt lat="44.60957" lon="2.11758">
        <ele>340</ele>
        <time>2015-08-26T12:56:32Z</time>
      </trkpt>
      <trkpt lat="44.60956" lon="2.11751">
        <ele>340</ele>
        <time>2015-08-26T12:56:40Z</time>
      </trkpt>
      <trkpt lat="44.60955" lon="2.11744">
        <ele>340</ele>
        <time>2015-08-26T12:56:46Z</time>
      </trkpt>
      <trkpt lat="44.60954" lon="2.1173">
        <ele>339</ele>
        <time>2015-08-26T12:56:56Z</time>
      </trkpt>
      <trkpt lat="44.60951" lon="2.11723">
        <ele>339</ele>
        <time>2015-08-26T12:57:02Z</time>
      </trkpt>
      <trkpt lat="44.60951" lon="2.11717">
        <ele>338</ele>
        <time>2015-08-26T12:57:08Z</time>
      </trkpt>
      <trkpt lat="44.60951" lon="2.11702">
        <ele>336</ele>
        <time>2015-08-26T12:57:16Z</time>
      </trkpt>
      <trkpt lat="44.60951" lon="2.11687">
        <ele>335</ele>
        <time>2015-08-26T12:57:25Z</time>
      </trkpt>
      <trkpt lat="44.60956" lon="2.11676">
        <ele>333</ele>
        <time>2015-08-26T12:57:33Z</time>
      </trkpt>
      <trkpt lat="44.60963" lon="2.11664">
        <ele>333</ele>
        <time>2015-08-26T12:57:42Z</time>
      </trkpt>
      <trkpt lat="44.60968" lon="2.11654">
        <ele>334</ele>
        <time>2015-08-26T12:57:51Z</time>
      </trkpt>
      <trkpt lat="44.60973" lon="2.11643">
        <ele>333</ele>
        <time>2015-08-26T12:58:01Z</time>
      </trkpt>
      <trkpt lat="44.60978" lon="2.11631">
        <ele>334</ele>
        <time>2015-08-26T12:58:11Z</time>
      </trkpt>
      <trkpt lat="44.60983" lon="2.11619">
        <ele>335</ele>
        <time>2015-08-26T12:58:21Z</time>
      </trkpt>
      <trkpt lat="44.60987" lon="2.11608">
        <ele>335</ele>
        <time>2015-08-26T12:58:31Z</time>
      </trkpt>
      <trkpt lat="44.60992" lon="2.11595">
        <ele>335</ele>
        <time>2015-08-26T12:58:41Z</time>
      </trkpt>
      <trkpt lat="44.60998" lon="2.11584">
        <ele>334</ele>
        <time>2015-08-26T12:58:51Z</time>
      </trkpt>
      <trkpt lat="44.61004" lon="2.11573">
        <ele>334</ele>
        <time>2015-08-26T12:59:00Z</time>
      </trkpt>
      <trkpt lat="44.61011" lon="2.11562">
        <ele>335</ele>
        <time>2015-08-26T12:59:10Z</time>
      </trkpt>
      <trkpt lat="44.61018" lon="2.11552">
        <ele>335</ele>
        <time>2015-08-26T12:59:20Z</time>
      </trkpt>
      <trkpt lat="44.61025" lon="2.11541">
        <ele>336</ele>
        <time>2015-08-26T12:59:30Z</time>
      </trkpt>
      <trkpt lat="44.61032" lon="2.1153">
        <ele>336</ele>
        <time>2015-08-26T12:59:40Z</time>
      </trkpt>
      <trkpt lat="44.61032" lon="2.11523">
        <ele>335</ele>
        <time>2015-08-26T12:59:46Z</time>
      </trkpt>
      <trkpt lat="44.61026" lon="2.11512">
        <ele>336</ele>
        <time>2015-08-26T12:59:57Z</time>
      </trkpt>
      <trkpt lat="44.61023" lon="2.11499">
        <ele>335</ele>
        <time>2015-08-26T13:00:07Z</time>
      </trkpt>
      <trkpt lat="44.6102" lon="2.11485">
        <ele>336</ele>
        <time>2015-08-26T13:00:17Z</time>
      </trkpt>
      <trkpt lat="44.6102" lon="2.11471">
        <ele>336</ele>
        <time>2015-08-26T13:00:27Z</time>
      </trkpt>
      <trkpt lat="44.6102" lon="2.11457">
        <ele>335</ele>
        <time>2015-08-26T13:00:37Z</time>
      </trkpt>
      <trkpt lat="44.61023" lon="2.11443">
        <ele>335</ele>
        <time>2015-08-26T13:00:48Z</time>
      </trkpt>
      <trkpt lat="44.61024" lon="2.11433">
        <ele>334</ele>
        <time>2015-08-26T13:00:57Z</time>
      </trkpt>
      <trkpt lat="44.61029" lon="2.11431">
        <ele>333</ele>
        <time>2015-08-26T13:01:03Z</time>
      </trkpt>
      <trkpt lat="44.61039" lon="2.11426">
        <ele>335</ele>
        <time>2015-08-26T13:01:12Z</time>
      </trkpt>
      <trkpt lat="44.61049" lon="2.11422">
        <ele>336</ele>
        <time>2015-08-26T13:01:21Z</time>
      </trkpt>
      <trkpt lat="44.61058" lon="2.11419">
        <ele>337</ele>
        <time>2015-08-26T13:01:31Z</time>
      </trkpt>
      <trkpt lat="44.61068" lon="2.11415">
        <ele>338</ele>
        <time>2015-08-26T13:01:42Z</time>
      </trkpt>
      <trkpt lat="44.61072" lon="2.11413">
        <ele>339</ele>
        <time>2015-08-26T13:01:48Z</time>
      </trkpt>
      <trkpt lat="44.61081" lon="2.1141">
        <ele>340</ele>
        <time>2015-08-26T13:01:56Z</time>
      </trkpt>
      <trkpt lat="44.6109" lon="2.11407">
        <ele>340</ele>
        <time>2015-08-26T13:02:06Z</time>
      </trkpt>
      <trkpt lat="44.61099" lon="2.11403">
        <ele>339</ele>
        <time>2015-08-26T13:02:16Z</time>
      </trkpt>
      <trkpt lat="44.61105" lon="2.11401">
        <ele>340</ele>
        <time>2015-08-26T13:02:22Z</time>
      </trkpt>
      <trkpt lat="44.61115" lon="2.11397">
        <ele>342</ele>
        <time>2015-08-26T13:02:33Z</time>
      </trkpt>
      <trkpt lat="44.6112" lon="2.11396">
        <ele>341</ele>
        <time>2015-08-26T13:02:39Z</time>
      </trkpt>
      <trkpt lat="44.61124" lon="2.11393">
        <ele>342</ele>
        <time>2015-08-26T13:02:45Z</time>
      </trkpt>
      <trkpt lat="44.61129" lon="2.11387">
        <ele>342</ele>
        <time>2015-08-26T13:02:51Z</time>
      </trkpt>
      <trkpt lat="44.61137" lon="2.11379">
        <ele>344</ele>
        <time>2015-08-26T13:03:02Z</time>
      </trkpt>
      <trkpt lat="44.6114" lon="2.11373">
        <ele>346</ele>
        <time>2015-08-26T13:03:08Z</time>
      </trkpt>
      <trkpt lat="44.61146" lon="2.11364">
        <ele>345</ele>
        <time>2015-08-26T13:03:19Z</time>
      </trkpt>
      <trkpt lat="44.6115" lon="2.1136">
        <ele>346</ele>
        <time>2015-08-26T13:03:25Z</time>
      </trkpt>
      <trkpt lat="44.61156" lon="2.11351">
        <ele>345</ele>
        <time>2015-08-26T13:03:35Z</time>
      </trkpt>
      <trkpt lat="44.61164" lon="2.11342">
        <ele>348</ele>
        <time>2015-08-26T13:03:44Z</time>
      </trkpt>
      <trkpt lat="44.6117" lon="2.11336">
        <ele>350</ele>
        <time>2015-08-26T13:03:51Z</time>
      </trkpt>
      <trkpt lat="44.61177" lon="2.11326">
        <ele>352</ele>
        <time>2015-08-26T13:04:03Z</time>
      </trkpt>
      <trkpt lat="44.6118" lon="2.11321">
        <ele>351</ele>
        <time>2015-08-26T13:04:09Z</time>
      </trkpt>
      <trkpt lat="44.61184" lon="2.11315">
        <ele>349</ele>
        <time>2015-08-26T13:04:15Z</time>
      </trkpt>
      <trkpt lat="44.6119" lon="2.11305">
        <ele>349</ele>
        <time>2015-08-26T13:04:25Z</time>
      </trkpt>
      <trkpt lat="44.61197" lon="2.11295">
        <ele>350</ele>
        <time>2015-08-26T13:04:35Z</time>
      </trkpt>
      <trkpt lat="44.612" lon="2.11282">
        <ele>351</ele>
        <time>2015-08-26T13:04:45Z</time>
      </trkpt>
      <trkpt lat="44.61202" lon="2.11274">
        <ele>350</ele>
        <time>2015-08-26T13:04:51Z</time>
      </trkpt>
      <trkpt lat="44.61206" lon="2.11261">
        <ele>351</ele>
        <time>2015-08-26T13:05:01Z</time>
      </trkpt>
      <trkpt lat="44.61211" lon="2.1125">
        <ele>354</ele>
        <time>2015-08-26T13:05:11Z</time>
      </trkpt>
      <trkpt lat="44.61219" lon="2.11238">
        <ele>356</ele>
        <time>2015-08-26T13:05:21Z</time>
      </trkpt>
      <trkpt lat="44.61226" lon="2.11228">
        <ele>357</ele>
        <time>2015-08-26T13:05:31Z</time>
      </trkpt>
      <trkpt lat="44.61235" lon="2.11226">
        <ele>357</ele>
        <time>2015-08-26T13:05:40Z</time>
      </trkpt>
      <trkpt lat="44.61245" lon="2.11226">
        <ele>357</ele>
        <time>2015-08-26T13:05:48Z</time>
      </trkpt>
      <trkpt lat="44.61252" lon="2.11224">
        <ele>357</ele>
        <time>2015-08-26T13:05:55Z</time>
      </trkpt>
      <trkpt lat="44.61262" lon="2.11221">
        <ele>358</ele>
        <time>2015-08-26T13:06:05Z</time>
      </trkpt>
      <trkpt lat="44.61272" lon="2.11218">
        <ele>358</ele>
        <time>2015-08-26T13:06:15Z</time>
      </trkpt>
      <trkpt lat="44.61281" lon="2.11213">
        <ele>357</ele>
        <time>2015-08-26T13:06:25Z</time>
      </trkpt>
      <trkpt lat="44.61291" lon="2.11209">
        <ele>358</ele>
        <time>2015-08-26T13:06:35Z</time>
      </trkpt>
      <trkpt lat="44.61301" lon="2.11203">
        <ele>360</ele>
        <time>2015-08-26T13:06:45Z</time>
      </trkpt>
      <trkpt lat="44.61307" lon="2.11199">
        <ele>360</ele>
        <time>2015-08-26T13:06:51Z</time>
      </trkpt>
      <trkpt lat="44.61311" lon="2.11195">
        <ele>361</ele>
        <time>2015-08-26T13:06:58Z</time>
      </trkpt>
      <trkpt lat="44.6132" lon="2.11188">
        <ele>362</ele>
        <time>2015-08-26T13:07:08Z</time>
      </trkpt>
      <trkpt lat="44.61324" lon="2.11185">
        <ele>363</ele>
        <time>2015-08-26T13:07:14Z</time>
      </trkpt>
      <trkpt lat="44.61329" lon="2.11181">
        <ele>363</ele>
        <time>2015-08-26T13:07:20Z</time>
      </trkpt>
      <trkpt lat="44.61338" lon="2.11176">
        <ele>362</ele>
        <time>2015-08-26T13:07:29Z</time>
      </trkpt>
      <trkpt lat="44.61347" lon="2.1117">
        <ele>363</ele>
        <time>2015-08-26T13:07:39Z</time>
      </trkpt>
      <trkpt lat="44.61356" lon="2.11165">
        <ele>365</ele>
        <time>2015-08-26T13:07:49Z</time>
      </trkpt>
      <trkpt lat="44.61362" lon="2.11161">
        <ele>365</ele>
        <time>2015-08-26T13:07:56Z</time>
      </trkpt>
      <trkpt lat="44.61371" lon="2.11155">
        <ele>365</ele>
        <time>2015-08-26T13:08:06Z</time>
      </trkpt>
      <trkpt lat="44.6138" lon="2.11149">
        <ele>366</ele>
        <time>2015-08-26T13:08:16Z</time>
      </trkpt>
      <trkpt lat="44.61389" lon="2.11144">
        <ele>365</ele>
        <time>2015-08-26T13:08:25Z</time>
      </trkpt>
      <trkpt lat="44.61398" lon="2.11139">
        <ele>366</ele>
        <time>2015-08-26T13:08:35Z</time>
      </trkpt>
      <trkpt lat="44.61403" lon="2.11137">
        <ele>367</ele>
        <time>2015-08-26T13:08:41Z</time>
      </trkpt>
      <trkpt lat="44.61412" lon="2.11131">
        <ele>368</ele>
        <time>2015-08-26T13:08:51Z</time>
      </trkpt>
      <trkpt lat="44.61421" lon="2.11125">
        <ele>368</ele>
        <time>2015-08-26T13:09:01Z</time>
      </trkpt>
      <trkpt lat="44.61429" lon="2.11118">
        <ele>371</ele>
        <time>2015-08-26T13:09:12Z</time>
      </trkpt>
      <trkpt lat="44.61438" lon="2.11112">
        <ele>373</ele>
        <time>2015-08-26T13:09:48Z</time>
      </trkpt>
      <trkpt lat="44.61445" lon="2.11108">
        <ele>373</ele>
        <time>2015-08-26T13:09:56Z</time>
      </trkpt>
      <trkpt lat="44.61453" lon="2.11101">
        <ele>373</ele>
        <time>2015-08-26T13:10:06Z</time>
      </trkpt>
      <trkpt lat="44.61462" lon="2.11094">
        <ele>373</ele>
        <time>2015-08-26T13:10:16Z</time>
      </trkpt>
      <trkpt lat="44.6147" lon="2.11088">
        <ele>373</ele>
        <time>2015-08-26T13:10:27Z</time>
      </trkpt>
      <trkpt lat="44.61475" lon="2.11084">
        <ele>375</ele>
        <time>2015-08-26T13:10:33Z</time>
      </trkpt>
      <trkpt lat="44.61479" lon="2.1108">
        <ele>376</ele>
        <time>2015-08-26T13:10:39Z</time>
      </trkpt>
      <trkpt lat="44.61484" lon="2.11077">
        <ele>377</ele>
        <time>2015-08-26T13:10:45Z</time>
      </trkpt>
      <trkpt lat="44.61489" lon="2.11073">
        <ele>378</ele>
        <time>2015-08-26T13:10:51Z</time>
      </trkpt>
      <trkpt lat="44.61493" lon="2.11069">
        <ele>379</ele>
        <time>2015-08-26T13:10:57Z</time>
      </trkpt>
      <trkpt lat="44.61497" lon="2.11065">
        <ele>379</ele>
        <time>2015-08-26T13:11:03Z</time>
      </trkpt>
      <trkpt lat="44.61501" lon="2.11062">
        <ele>380</ele>
        <time>2015-08-26T13:11:09Z</time>
      </trkpt>
      <trkpt lat="44.61505" lon="2.1106">
        <ele>381</ele>
        <time>2015-08-26T13:11:15Z</time>
      </trkpt>
      <trkpt lat="44.61509" lon="2.11056">
        <ele>381</ele>
        <time>2015-08-26T13:11:21Z</time>
      </trkpt>
      <trkpt lat="44.61517" lon="2.11049">
        <ele>380</ele>
        <time>2015-08-26T13:11:32Z</time>
      </trkpt>
      <trkpt lat="44.61525" lon="2.11041">
        <ele>380</ele>
        <time>2015-08-26T13:11:42Z</time>
      </trkpt>
      <trkpt lat="44.61533" lon="2.11037">
        <ele>381</ele>
        <time>2015-08-26T13:11:51Z</time>
      </trkpt>
      <trkpt lat="44.61543" lon="2.11031">
        <ele>382</ele>
        <time>2015-08-26T13:12:01Z</time>
      </trkpt>
      <trkpt lat="44.61553" lon="2.11025">
        <ele>383</ele>
        <time>2015-08-26T13:12:11Z</time>
      </trkpt>
      <trkpt lat="44.61562" lon="2.11019">
        <ele>383</ele>
        <time>2015-08-26T13:12:21Z</time>
      </trkpt>
      <trkpt lat="44.61572" lon="2.11013">
        <ele>384</ele>
        <time>2015-08-26T13:12:31Z</time>
      </trkpt>
      <trkpt lat="44.61581" lon="2.11008">
        <ele>385</ele>
        <time>2015-08-26T13:12:41Z</time>
      </trkpt>
      <trkpt lat="44.6159" lon="2.11002">
        <ele>385</ele>
        <time>2015-08-26T13:12:51Z</time>
      </trkpt>
      <trkpt lat="44.61594" lon="2.11">
        <ele>387</ele>
        <time>2015-08-26T13:13:23Z</time>
      </trkpt>
      <trkpt lat="44.616" lon="2.10995">
        <ele>387</ele>
        <time>2015-08-26T13:14:03Z</time>
      </trkpt>
      <trkpt lat="44.61605" lon="2.10993">
        <ele>387</ele>
        <time>2015-08-26T13:14:09Z</time>
      </trkpt>
      <trkpt lat="44.61613" lon="2.10988">
        <ele>387</ele>
        <time>2015-08-26T13:14:19Z</time>
      </trkpt>
      <trkpt lat="44.61622" lon="2.10983">
        <ele>387</ele>
        <time>2015-08-26T13:14:29Z</time>
      </trkpt>
      <trkpt lat="44.61632" lon="2.10979">
        <ele>386</ele>
        <time>2015-08-26T13:14:39Z</time>
      </trkpt>
      <trkpt lat="44.61642" lon="2.10974">
        <ele>387</ele>
        <time>2015-08-26T13:14:49Z</time>
      </trkpt>
      <trkpt lat="44.61647" lon="2.10969">
        <ele>386</ele>
        <time>2015-08-26T13:14:57Z</time>
      </trkpt>
      <trkpt lat="44.61653" lon="2.10959">
        <ele>385</ele>
        <time>2015-08-26T13:15:07Z</time>
      </trkpt>
      <trkpt lat="44.61659" lon="2.10947">
        <ele>385</ele>
        <time>2015-08-26T13:15:17Z</time>
      </trkpt>
      <trkpt lat="44.61666" lon="2.10937">
        <ele>385</ele>
        <time>2015-08-26T13:15:27Z</time>
      </trkpt>
      <trkpt lat="44.61672" lon="2.10926">
        <ele>384</ele>
        <time>2015-08-26T13:15:37Z</time>
      </trkpt>
      <trkpt lat="44.61678" lon="2.10914">
        <ele>384</ele>
        <time>2015-08-26T13:15:47Z</time>
      </trkpt>
      <trkpt lat="44.61685" lon="2.10905">
        <ele>383</ele>
        <time>2015-08-26T13:15:56Z</time>
      </trkpt>
      <trkpt lat="44.61692" lon="2.10895">
        <ele>383</ele>
        <time>2015-08-26T13:16:06Z</time>
      </trkpt>
      <trkpt lat="44.61697" lon="2.10884">
        <ele>384</ele>
        <time>2015-08-26T13:16:14Z</time>
      </trkpt>
      <trkpt lat="44.61704" lon="2.10874">
        <ele>384</ele>
        <time>2015-08-26T13:16:22Z</time>
      </trkpt>
      <trkpt lat="44.61712" lon="2.10866">
        <ele>385</ele>
        <time>2015-08-26T13:16:32Z</time>
      </trkpt>
      <trkpt lat="44.61718" lon="2.10857">
        <ele>385</ele>
        <time>2015-08-26T13:16:45Z</time>
      </trkpt>
      <trkpt lat="44.61721" lon="2.1085">
        <ele>385</ele>
        <time>2015-08-26T13:16:51Z</time>
      </trkpt>
      <trkpt lat="44.61725" lon="2.10846">
        <ele>385</ele>
        <time>2015-08-26T13:16:57Z</time>
      </trkpt>
      <trkpt lat="44.6173" lon="2.10844">
        <ele>386</ele>
        <time>2015-08-26T13:17:05Z</time>
      </trkpt>
      <trkpt lat="44.6174" lon="2.1084">
        <ele>385</ele>
        <time>2015-08-26T13:17:16Z</time>
      </trkpt>
      <trkpt lat="44.61749" lon="2.10838">
        <ele>386</ele>
        <time>2015-08-26T13:17:25Z</time>
      </trkpt>
      <trkpt lat="44.6176" lon="2.10838">
        <ele>387</ele>
        <time>2015-08-26T13:17:36Z</time>
      </trkpt>
      <trkpt lat="44.61769" lon="2.1084">
        <ele>385</ele>
        <time>2015-08-26T13:17:47Z</time>
      </trkpt>
      <trkpt lat="44.61777" lon="2.10839">
        <ele>387</ele>
        <time>2015-08-26T13:17:57Z</time>
      </trkpt>
      <trkpt lat="44.61787" lon="2.10839">
        <ele>387</ele>
        <time>2015-08-26T13:18:07Z</time>
      </trkpt>
      <trkpt lat="44.61797" lon="2.10837">
        <ele>388</ele>
        <time>2015-08-26T13:18:17Z</time>
      </trkpt>
      <trkpt lat="44.61802" lon="2.10838">
        <ele>388</ele>
        <time>2015-08-26T13:18:23Z</time>
      </trkpt>
      <trkpt lat="44.61807" lon="2.10838">
        <ele>387</ele>
        <time>2015-08-26T13:18:29Z</time>
      </trkpt>
      <trkpt lat="44.61816" lon="2.10838">
        <ele>388</ele>
        <time>2015-08-26T13:18:39Z</time>
      </trkpt>
      <trkpt lat="44.61821" lon="2.10838">
        <ele>387</ele>
        <time>2015-08-26T13:18:45Z</time>
      </trkpt>
      <trkpt lat="44.61826" lon="2.10837">
        <ele>387</ele>
        <time>2015-08-26T13:18:51Z</time>
      </trkpt>
      <trkpt lat="44.61836" lon="2.10835">
        <ele>387</ele>
        <time>2015-08-26T13:19:02Z</time>
      </trkpt>
      <trkpt lat="44.61846" lon="2.10834">
        <ele>386</ele>
        <time>2015-08-26T13:19:12Z</time>
      </trkpt>
      <trkpt lat="44.61855" lon="2.10831">
        <ele>387</ele>
        <time>2015-08-26T13:19:21Z</time>
      </trkpt>
      <trkpt lat="44.61865" lon="2.10827">
        <ele>387</ele>
        <time>2015-08-26T13:19:31Z</time>
      </trkpt>
      <trkpt lat="44.61875" lon="2.10827">
        <ele>388</ele>
        <time>2015-08-26T13:19:41Z</time>
      </trkpt>
      <trkpt lat="44.61884" lon="2.10822">
        <ele>387</ele>
        <time>2015-08-26T13:19:51Z</time>
      </trkpt>
      <trkpt lat="44.61894" lon="2.10817">
        <ele>386</ele>
        <time>2015-08-26T13:20:01Z</time>
      </trkpt>
      <trkpt lat="44.61904" lon="2.10812">
        <ele>387</ele>
        <time>2015-08-26T13:20:11Z</time>
      </trkpt>
      <trkpt lat="44.61913" lon="2.10806">
        <ele>388</ele>
        <time>2015-08-26T13:20:21Z</time>
      </trkpt>
      <trkpt lat="44.61923" lon="2.10801">
        <ele>387</ele>
        <time>2015-08-26T13:20:31Z</time>
      </trkpt>
      <trkpt lat="44.61932" lon="2.10795">
        <ele>387</ele>
        <time>2015-08-26T13:20:41Z</time>
      </trkpt>
      <trkpt lat="44.61942" lon="2.10788">
        <ele>388</ele>
        <time>2015-08-26T13:20:51Z</time>
      </trkpt>
      <trkpt lat="44.61951" lon="2.10782">
        <ele>388</ele>
        <time>2015-08-26T13:21:01Z</time>
      </trkpt>
      <trkpt lat="44.61961" lon="2.10776">
        <ele>389</ele>
        <time>2015-08-26T13:21:11Z</time>
      </trkpt>
      <trkpt lat="44.61971" lon="2.10773">
        <ele>390</ele>
        <time>2015-08-26T13:21:21Z</time>
      </trkpt>
      <trkpt lat="44.61981" lon="2.10772">
        <ele>391</ele>
        <time>2015-08-26T13:21:31Z</time>
      </trkpt>
      <trkpt lat="44.61986" lon="2.10769">
        <ele>390</ele>
        <time>2015-08-26T13:26:49Z</time>
      </trkpt>
      <trkpt lat="44.61992" lon="2.10765">
        <ele>391</ele>
        <time>2015-08-26T13:26:57Z</time>
      </trkpt>
      <trkpt lat="44.61996" lon="2.1076">
        <ele>391</ele>
        <time>2015-08-26T13:27:03Z</time>
      </trkpt>
      <trkpt lat="44.62" lon="2.10756">
        <ele>391</ele>
        <time>2015-08-26T13:27:10Z</time>
      </trkpt>
      <trkpt lat="44.61998" lon="2.1075">
        <ele>392</ele>
        <time>2015-08-26T13:27:28Z</time>
      </trkpt>
      <trkpt lat="44.61996" lon="2.10744">
        <ele>393</ele>
        <time>2015-08-26T13:27:34Z</time>
      </trkpt>
      <trkpt lat="44.61994" lon="2.10737">
        <ele>393</ele>
        <time>2015-08-26T13:27:41Z</time>
      </trkpt>
      <trkpt lat="44.6199" lon="2.10732">
        <ele>394</ele>
        <time>2015-08-26T13:27:47Z</time>
      </trkpt>
      <trkpt lat="44.61987" lon="2.10721">
        <ele>395</ele>
        <time>2015-08-26T13:27:57Z</time>
      </trkpt>
      <trkpt lat="44.61983" lon="2.10714">
        <ele>395</ele>
        <time>2015-08-26T13:28:03Z</time>
      </trkpt>
      <trkpt lat="44.61979" lon="2.10702">
        <ele>396</ele>
        <time>2015-08-26T13:28:13Z</time>
      </trkpt>
      <trkpt lat="44.61974" lon="2.10689">
        <ele>397</ele>
        <time>2015-08-26T13:28:23Z</time>
      </trkpt>
      <trkpt lat="44.61972" lon="2.10682">
        <ele>397</ele>
        <time>2015-08-26T13:28:29Z</time>
      </trkpt>
      <trkpt lat="44.61967" lon="2.10671">
        <ele>399</ele>
        <time>2015-08-26T13:28:39Z</time>
      </trkpt>
      <trkpt lat="44.61963" lon="2.10659">
        <ele>400</ele>
        <time>2015-08-26T13:28:50Z</time>
      </trkpt>
      <trkpt lat="44.61961" lon="2.10651">
        <ele>402</ele>
        <time>2015-08-26T13:28:57Z</time>
      </trkpt>
      <trkpt lat="44.61956" lon="2.10637">
        <ele>402</ele>
        <time>2015-08-26T13:29:07Z</time>
      </trkpt>
      <trkpt lat="44.6195" lon="2.10627">
        <ele>401</ele>
        <time>2015-08-26T13:29:17Z</time>
      </trkpt>
      <trkpt lat="44.61945" lon="2.10616">
        <ele>400</ele>
        <time>2015-08-26T13:29:27Z</time>
      </trkpt>
      <trkpt lat="44.6194" lon="2.10606">
        <ele>400</ele>
        <time>2015-08-26T13:29:37Z</time>
      </trkpt>
      <trkpt lat="44.61933" lon="2.10595">
        <ele>398</ele>
        <time>2015-08-26T13:29:47Z</time>
      </trkpt>
      <trkpt lat="44.61927" lon="2.10586">
        <ele>397</ele>
        <time>2015-08-26T13:29:56Z</time>
      </trkpt>
      <trkpt lat="44.61925" lon="2.1058">
        <ele>395</ele>
        <time>2015-08-26T13:30:02Z</time>
      </trkpt>
      <trkpt lat="44.61922" lon="2.10575">
        <ele>394</ele>
        <time>2015-08-26T13:30:13Z</time>
      </trkpt>
      <trkpt lat="44.61919" lon="2.10569">
        <ele>394</ele>
        <time>2015-08-26T13:30:19Z</time>
      </trkpt>
      <trkpt lat="44.61912" lon="2.10559">
        <ele>395</ele>
        <time>2015-08-26T13:30:29Z</time>
      </trkpt>
      <trkpt lat="44.61905" lon="2.10548">
        <ele>394</ele>
        <time>2015-08-26T13:30:39Z</time>
      </trkpt>
      <trkpt lat="44.61899" lon="2.10539">
        <ele>394</ele>
        <time>2015-08-26T13:30:49Z</time>
      </trkpt>
      <trkpt lat="44.61895" lon="2.10532">
        <ele>393</ele>
        <time>2015-08-26T13:30:56Z</time>
      </trkpt>
      <trkpt lat="44.61888" lon="2.10521">
        <ele>390</ele>
        <time>2015-08-26T13:31:07Z</time>
      </trkpt>
      <trkpt lat="44.61884" lon="2.10516">
        <ele>390</ele>
        <time>2015-08-26T13:31:13Z</time>
      </trkpt>
      <trkpt lat="44.61876" lon="2.10506">
        <ele>390</ele>
        <time>2015-08-26T13:31:23Z</time>
      </trkpt>
      <trkpt lat="44.61869" lon="2.10496">
        <ele>390</ele>
        <time>2015-08-26T13:31:33Z</time>
      </trkpt>
      <trkpt lat="44.61861" lon="2.10486">
        <ele>390</ele>
        <time>2015-08-26T13:31:44Z</time>
      </trkpt>
      <trkpt lat="44.61856" lon="2.1048">
        <ele>391</ele>
        <time>2015-08-26T13:31:51Z</time>
      </trkpt>
      <trkpt lat="44.61851" lon="2.10469">
        <ele>391</ele>
        <time>2015-08-26T13:32:02Z</time>
      </trkpt>
      <trkpt lat="44.61844" lon="2.10459">
        <ele>391</ele>
        <time>2015-08-26T13:32:12Z</time>
      </trkpt>
      <trkpt lat="44.6184" lon="2.10445">
        <ele>390</ele>
        <time>2015-08-26T13:32:21Z</time>
      </trkpt>
      <trkpt lat="44.61839" lon="2.10432">
        <ele>389</ele>
        <time>2015-08-26T13:32:30Z</time>
      </trkpt>
      <trkpt lat="44.61835" lon="2.10419">
        <ele>389</ele>
        <time>2015-08-26T13:32:40Z</time>
      </trkpt>
      <trkpt lat="44.61832" lon="2.10406">
        <ele>389</ele>
        <time>2015-08-26T13:32:49Z</time>
      </trkpt>
      <trkpt lat="44.6183" lon="2.10397">
        <ele>389</ele>
        <time>2015-08-26T13:32:56Z</time>
      </trkpt>
      <trkpt lat="44.61827" lon="2.10383">
        <ele>389</ele>
        <time>2015-08-26T13:33:06Z</time>
      </trkpt>
      <trkpt lat="44.61824" lon="2.1037">
        <ele>389</ele>
        <time>2015-08-26T13:33:16Z</time>
      </trkpt>
      <trkpt lat="44.6182" lon="2.10356">
        <ele>389</ele>
        <time>2015-08-26T13:33:26Z</time>
      </trkpt>
      <trkpt lat="44.61816" lon="2.10343">
        <ele>389</ele>
        <time>2015-08-26T13:33:36Z</time>
      </trkpt>
      <trkpt lat="44.61812" lon="2.10329">
        <ele>389</ele>
        <time>2015-08-26T13:33:46Z</time>
      </trkpt>
      <trkpt lat="44.61809" lon="2.10315">
        <ele>390</ele>
        <time>2015-08-26T13:33:56Z</time>
      </trkpt>
      <trkpt lat="44.61805" lon="2.10301">
        <ele>390</ele>
        <time>2015-08-26T13:34:06Z</time>
      </trkpt>
      <trkpt lat="44.61802" lon="2.10289">
        <ele>389</ele>
        <time>2015-08-26T13:34:16Z</time>
      </trkpt>
      <trkpt lat="44.61798" lon="2.10274">
        <ele>389</ele>
        <time>2015-08-26T13:34:26Z</time>
      </trkpt>
      <trkpt lat="44.61795" lon="2.1026">
        <ele>389</ele>
        <time>2015-08-26T13:34:36Z</time>
      </trkpt>
      <trkpt lat="44.61791" lon="2.10246">
        <ele>389</ele>
        <time>2015-08-26T13:34:46Z</time>
      </trkpt>
      <trkpt lat="44.61787" lon="2.10232">
        <ele>389</ele>
        <time>2015-08-26T13:34:56Z</time>
      </trkpt>
      <trkpt lat="44.61783" lon="2.10218">
        <ele>388</ele>
        <time>2015-08-26T13:35:06Z</time>
      </trkpt>
      <trkpt lat="44.6178" lon="2.10205">
        <ele>389</ele>
        <time>2015-08-26T13:35:16Z</time>
      </trkpt>
      <trkpt lat="44.61778" lon="2.10191">
        <ele>389</ele>
        <time>2015-08-26T13:35:26Z</time>
      </trkpt>
      <trkpt lat="44.61774" lon="2.10178">
        <ele>389</ele>
        <time>2015-08-26T13:35:36Z</time>
      </trkpt>
      <trkpt lat="44.61771" lon="2.10163">
        <ele>389</ele>
        <time>2015-08-26T13:35:46Z</time>
      </trkpt>
      <trkpt lat="44.61767" lon="2.10149">
        <ele>389</ele>
        <time>2015-08-26T13:35:56Z</time>
      </trkpt>
      <trkpt lat="44.61764" lon="2.10136">
        <ele>390</ele>
        <time>2015-08-26T13:36:05Z</time>
      </trkpt>
      <trkpt lat="44.6176" lon="2.10122">
        <ele>390</ele>
        <time>2015-08-26T13:36:15Z</time>
      </trkpt>
      <trkpt lat="44.61756" lon="2.10109">
        <ele>390</ele>
        <time>2015-08-26T13:36:25Z</time>
      </trkpt>
      <trkpt lat="44.61751" lon="2.10095">
        <ele>391</ele>
        <time>2015-08-26T13:36:35Z</time>
      </trkpt>
      <trkpt lat="44.61747" lon="2.10082">
        <ele>391</ele>
        <time>2015-08-26T13:36:45Z</time>
      </trkpt>
      <trkpt lat="44.61744" lon="2.10074">
        <ele>392</ele>
        <time>2015-08-26T13:36:51Z</time>
      </trkpt>
      <trkpt lat="44.61738" lon="2.10062">
        <ele>392</ele>
        <time>2015-08-26T13:37:01Z</time>
      </trkpt>
      <trkpt lat="44.61733" lon="2.1005">
        <ele>393</ele>
        <time>2015-08-26T13:37:10Z</time>
      </trkpt>
      <trkpt lat="44.61728" lon="2.10038">
        <ele>393</ele>
        <time>2015-08-26T13:37:19Z</time>
      </trkpt>
      <trkpt lat="44.61722" lon="2.10025">
        <ele>394</ele>
        <time>2015-08-26T13:37:29Z</time>
      </trkpt>
      <trkpt lat="44.61716" lon="2.10012">
        <ele>394</ele>
        <time>2015-08-26T13:37:39Z</time>
      </trkpt>
      <trkpt lat="44.6171" lon="2.1">
        <ele>394</ele>
        <time>2015-08-26T13:37:49Z</time>
      </trkpt>
      <trkpt lat="44.61707" lon="2.09991">
        <ele>395</ele>
        <time>2015-08-26T13:37:56Z</time>
      </trkpt>
      <trkpt lat="44.61702" lon="2.09978">
        <ele>396</ele>
        <time>2015-08-26T13:38:06Z</time>
      </trkpt>
      <trkpt lat="44.61695" lon="2.09966">
        <ele>396</ele>
        <time>2015-08-26T13:38:16Z</time>
      </trkpt>
      <trkpt lat="44.6169" lon="2.09953">
        <ele>396</ele>
        <time>2015-08-26T13:38:26Z</time>
      </trkpt>
      <trkpt lat="44.61685" lon="2.09941">
        <ele>396</ele>
        <time>2015-08-26T13:38:36Z</time>
      </trkpt>
      <trkpt lat="44.61679" lon="2.0993">
        <ele>396</ele>
        <time>2015-08-26T13:38:46Z</time>
      </trkpt>
      <trkpt lat="44.61678" lon="2.09919">
        <ele>394</ele>
        <time>2015-08-26T13:39:51Z</time>
      </trkpt>
      <trkpt lat="44.61672" lon="2.09915">
        <ele>394</ele>
        <time>2015-08-26T13:44:04Z</time>
      </trkpt>
      <trkpt lat="44.61666" lon="2.09904">
        <ele>395</ele>
        <time>2015-08-26T13:44:14Z</time>
      </trkpt>
      <trkpt lat="44.6166" lon="2.09893">
        <ele>396</ele>
        <time>2015-08-26T13:44:24Z</time>
      </trkpt>
      <trkpt lat="44.61654" lon="2.09882">
        <ele>395</ele>
        <time>2015-08-26T13:44:33Z</time>
      </trkpt>
      <trkpt lat="44.61647" lon="2.09872">
        <ele>396</ele>
        <time>2015-08-26T13:44:43Z</time>
      </trkpt>
      <trkpt lat="44.61642" lon="2.09863">
        <ele>397</ele>
        <time>2015-08-26T13:44:51Z</time>
      </trkpt>
      <trkpt lat="44.61635" lon="2.09852">
        <ele>397</ele>
        <time>2015-08-26T13:45:01Z</time>
      </trkpt>
      <trkpt lat="44.61631" lon="2.09852">
        <ele>398</ele>
        <time>2015-08-26T13:45:07Z</time>
      </trkpt>
      <trkpt lat="44.61622" lon="2.09846">
        <ele>398</ele>
        <time>2015-08-26T13:45:17Z</time>
      </trkpt>
      <trkpt lat="44.61614" lon="2.09837">
        <ele>398</ele>
        <time>2015-08-26T13:45:27Z</time>
      </trkpt>
      <trkpt lat="44.61607" lon="2.09828">
        <ele>398</ele>
        <time>2015-08-26T13:45:37Z</time>
      </trkpt>
      <trkpt lat="44.616" lon="2.09818">
        <ele>398</ele>
        <time>2015-08-26T13:45:47Z</time>
      </trkpt>
      <trkpt lat="44.61593" lon="2.09809">
        <ele>398</ele>
        <time>2015-08-26T13:45:56Z</time>
      </trkpt>
      <trkpt lat="44.61586" lon="2.09799">
        <ele>398</ele>
        <time>2015-08-26T13:46:06Z</time>
      </trkpt>
      <trkpt lat="44.61579" lon="2.09789">
        <ele>399</ele>
        <time>2015-08-26T13:46:16Z</time>
      </trkpt>
      <trkpt lat="44.61571" lon="2.09779">
        <ele>399</ele>
        <time>2015-08-26T13:46:26Z</time>
      </trkpt>
      <trkpt lat="44.61564" lon="2.09769">
        <ele>400</ele>
        <time>2015-08-26T13:46:36Z</time>
      </trkpt>
      <trkpt lat="44.61557" lon="2.09758">
        <ele>399</ele>
        <time>2015-08-26T13:46:46Z</time>
      </trkpt>
      <trkpt lat="44.61551" lon="2.09747">
        <ele>400</ele>
        <time>2015-08-26T13:46:56Z</time>
      </trkpt>
      <trkpt lat="44.61543" lon="2.09737">
        <ele>400</ele>
        <time>2015-08-26T13:47:06Z</time>
      </trkpt>
      <trkpt lat="44.61536" lon="2.09727">
        <ele>400</ele>
        <time>2015-08-26T13:47:15Z</time>
      </trkpt>
      <trkpt lat="44.61529" lon="2.09717">
        <ele>401</ele>
        <time>2015-08-26T13:47:25Z</time>
      </trkpt>
      <trkpt lat="44.61522" lon="2.09707">
        <ele>402</ele>
        <time>2015-08-26T13:47:35Z</time>
      </trkpt>
      <trkpt lat="44.61514" lon="2.09698">
        <ele>402</ele>
        <time>2015-08-26T13:47:45Z</time>
      </trkpt>
      <trkpt lat="44.6151" lon="2.09692">
        <ele>403</ele>
        <time>2015-08-26T13:47:51Z</time>
      </trkpt>
      <trkpt lat="44.61504" lon="2.09682">
        <ele>404</ele>
        <time>2015-08-26T13:48:01Z</time>
      </trkpt>
      <trkpt lat="44.61497" lon="2.09673">
        <ele>404</ele>
        <time>2015-08-26T13:48:11Z</time>
      </trkpt>
      <trkpt lat="44.61494" lon="2.09667">
        <ele>405</ele>
        <time>2015-08-26T13:48:17Z</time>
      </trkpt>
      <trkpt lat="44.61491" lon="2.09661">
        <ele>406</ele>
        <time>2015-08-26T13:48:23Z</time>
      </trkpt>
      <trkpt lat="44.61483" lon="2.09652">
        <ele>405</ele>
        <time>2015-08-26T13:48:33Z</time>
      </trkpt>
      <trkpt lat="44.61478" lon="2.0964">
        <ele>406</ele>
        <time>2015-08-26T13:48:43Z</time>
      </trkpt>
      <trkpt lat="44.61473" lon="2.09631">
        <ele>407</ele>
        <time>2015-08-26T13:48:51Z</time>
      </trkpt>
      <trkpt lat="44.6147" lon="2.09618">
        <ele>406</ele>
        <time>2015-08-26T13:49:01Z</time>
      </trkpt>
      <trkpt lat="44.61467" lon="2.09604">
        <ele>406</ele>
        <time>2015-08-26T13:49:11Z</time>
      </trkpt>
      <trkpt lat="44.61467" lon="2.09588">
        <ele>406</ele>
        <time>2015-08-26T13:49:21Z</time>
      </trkpt>
      <trkpt lat="44.61467" lon="2.09573">
        <ele>407</ele>
        <time>2015-08-26T13:49:31Z</time>
      </trkpt>
      <trkpt lat="44.61468" lon="2.09558">
        <ele>407</ele>
        <time>2015-08-26T13:49:41Z</time>
      </trkpt>
      <trkpt lat="44.61469" lon="2.09545">
        <ele>407</ele>
        <time>2015-08-26T13:49:50Z</time>
      </trkpt>
      <trkpt lat="44.6147" lon="2.09535">
        <ele>407</ele>
        <time>2015-08-26T13:49:56Z</time>
      </trkpt>
      <trkpt lat="44.61472" lon="2.09522">
        <ele>408</ele>
        <time>2015-08-26T13:50:06Z</time>
      </trkpt>
      <trkpt lat="44.61472" lon="2.09508">
        <ele>408</ele>
        <time>2015-08-26T13:50:16Z</time>
      </trkpt>
      <trkpt lat="44.61473" lon="2.09501">
        <ele>410</ele>
        <time>2015-08-26T13:50:39Z</time>
      </trkpt>
      <trkpt lat="44.61474" lon="2.09488">
        <ele>410</ele>
        <time>2015-08-26T13:50:49Z</time>
      </trkpt>
      <trkpt lat="44.61475" lon="2.09478">
        <ele>410</ele>
        <time>2015-08-26T13:50:56Z</time>
      </trkpt>
      <trkpt lat="44.61476" lon="2.09464">
        <ele>412</ele>
        <time>2015-08-26T13:51:06Z</time>
      </trkpt>
      <trkpt lat="44.61477" lon="2.09451">
        <ele>413</ele>
        <time>2015-08-26T13:51:16Z</time>
      </trkpt>
      <trkpt lat="44.61478" lon="2.09437">
        <ele>412</ele>
        <time>2015-08-26T13:51:26Z</time>
      </trkpt>
      <trkpt lat="44.61479" lon="2.09423">
        <ele>413</ele>
        <time>2015-08-26T13:51:36Z</time>
      </trkpt>
      <trkpt lat="44.61481" lon="2.0941">
        <ele>413</ele>
        <time>2015-08-26T13:51:46Z</time>
      </trkpt>
      <trkpt lat="44.61481" lon="2.09396">
        <ele>414</ele>
        <time>2015-08-26T13:51:56Z</time>
      </trkpt>
      <trkpt lat="44.61483" lon="2.09382">
        <ele>415</ele>
        <time>2015-08-26T13:52:15Z</time>
      </trkpt>
      <trkpt lat="44.61483" lon="2.09374">
        <ele>415</ele>
        <time>2015-08-26T13:52:21Z</time>
      </trkpt>
      <trkpt lat="44.61484" lon="2.0936">
        <ele>416</ele>
        <time>2015-08-26T13:52:31Z</time>
      </trkpt>
      <trkpt lat="44.61485" lon="2.09354">
        <ele>416</ele>
        <time>2015-08-26T13:52:47Z</time>
      </trkpt>
      <trkpt lat="44.61486" lon="2.09343">
        <ele>417</ele>
        <time>2015-08-26T13:52:56Z</time>
      </trkpt>
      <trkpt lat="44.61487" lon="2.09328">
        <ele>417</ele>
        <time>2015-08-26T13:53:06Z</time>
      </trkpt>
      <trkpt lat="44.61489" lon="2.09314">
        <ele>417</ele>
        <time>2015-08-26T13:53:16Z</time>
      </trkpt>
      <trkpt lat="44.61489" lon="2.09299">
        <ele>417</ele>
        <time>2015-08-26T13:53:26Z</time>
      </trkpt>
      <trkpt lat="44.61491" lon="2.09285">
        <ele>417</ele>
        <time>2015-08-26T13:53:36Z</time>
      </trkpt>
      <trkpt lat="44.61492" lon="2.09272">
        <ele>416</ele>
        <time>2015-08-26T13:53:46Z</time>
      </trkpt>
      <trkpt lat="44.61493" lon="2.09258">
        <ele>416</ele>
        <time>2015-08-26T13:53:56Z</time>
      </trkpt>
      <trkpt lat="44.61494" lon="2.09244">
        <ele>418</ele>
        <time>2015-08-26T13:54:06Z</time>
      </trkpt>
      <trkpt lat="44.61495" lon="2.09229">
        <ele>418</ele>
        <time>2015-08-26T13:54:16Z</time>
      </trkpt>
      <trkpt lat="44.61497" lon="2.09214">
        <ele>419</ele>
        <time>2015-08-26T13:54:26Z</time>
      </trkpt>
      <trkpt lat="44.61498" lon="2.092">
        <ele>418</ele>
        <time>2015-08-26T13:54:36Z</time>
      </trkpt>
      <trkpt lat="44.61499" lon="2.09186">
        <ele>420</ele>
        <time>2015-08-26T13:54:46Z</time>
      </trkpt>
      <trkpt lat="44.615" lon="2.09172">
        <ele>421</ele>
        <time>2015-08-26T13:54:56Z</time>
      </trkpt>
      <trkpt lat="44.61501" lon="2.09158">
        <ele>422</ele>
        <time>2015-08-26T13:55:06Z</time>
      </trkpt>
      <trkpt lat="44.61502" lon="2.09144">
        <ele>423</ele>
        <time>2015-08-26T13:55:16Z</time>
      </trkpt>
      <trkpt lat="44.61502" lon="2.09138">
        <ele>423</ele>
        <time>2015-08-26T13:55:22Z</time>
      </trkpt>
      <trkpt lat="44.615" lon="2.09132">
        <ele>424</ele>
        <time>2015-08-26T13:56:51Z</time>
      </trkpt>
      <trkpt lat="44.61502" lon="2.09126">
        <ele>424</ele>
        <time>2015-08-26T13:57:00Z</time>
      </trkpt>
      <trkpt lat="44.61503" lon="2.09113">
        <ele>425</ele>
        <time>2015-08-26T13:57:11Z</time>
      </trkpt>
      <trkpt lat="44.61504" lon="2.09106">
        <ele>424</ele>
        <time>2015-08-26T13:57:17Z</time>
      </trkpt>
      <trkpt lat="44.61505" lon="2.09099">
        <ele>425</ele>
        <time>2015-08-26T13:57:23Z</time>
      </trkpt>
      <trkpt lat="44.61506" lon="2.09092">
        <ele>425</ele>
        <time>2015-08-26T13:57:29Z</time>
      </trkpt>
      <trkpt lat="44.61506" lon="2.09085">
        <ele>425</ele>
        <time>2015-08-26T13:57:35Z</time>
      </trkpt>
      <trkpt lat="44.61507" lon="2.09078">
        <ele>425</ele>
        <time>2015-08-26T13:57:41Z</time>
      </trkpt>
      <trkpt lat="44.61509" lon="2.09072">
        <ele>424</ele>
        <time>2015-08-26T13:57:47Z</time>
      </trkpt>
      <trkpt lat="44.61509" lon="2.09061">
        <ele>424</ele>
        <time>2015-08-26T13:57:56Z</time>
      </trkpt>
      <trkpt lat="44.61509" lon="2.09054">
        <ele>424</ele>
        <time>2015-08-26T13:58:02Z</time>
      </trkpt>
      <trkpt lat="44.6151" lon="2.0904">
        <ele>424</ele>
        <time>2015-08-26T13:58:12Z</time>
      </trkpt>
      <trkpt lat="44.6151" lon="2.09026">
        <ele>424</ele>
        <time>2015-08-26T13:58:22Z</time>
      </trkpt>
      <trkpt lat="44.6151" lon="2.09012">
        <ele>426</ele>
        <time>2015-08-26T13:58:32Z</time>
      </trkpt>
      <trkpt lat="44.61507" lon="2.09">
        <ele>426</ele>
        <time>2015-08-26T13:58:42Z</time>
      </trkpt>
      <trkpt lat="44.61504" lon="2.08993">
        <ele>427</ele>
        <time>2015-08-26T13:58:48Z</time>
      </trkpt>
      <trkpt lat="44.615" lon="2.08985">
        <ele>428</ele>
        <time>2015-08-26T13:58:56Z</time>
      </trkpt>
      <trkpt lat="44.61496" lon="2.0898">
        <ele>429</ele>
        <time>2015-08-26T13:59:02Z</time>
      </trkpt>
      <trkpt lat="44.61489" lon="2.08969">
        <ele>429</ele>
        <time>2015-08-26T13:59:13Z</time>
      </trkpt>
      <trkpt lat="44.61483" lon="2.08958">
        <ele>430</ele>
        <time>2015-08-26T13:59:23Z</time>
      </trkpt>
      <trkpt lat="44.61476" lon="2.08949">
        <ele>430</ele>
        <time>2015-08-26T13:59:34Z</time>
      </trkpt>
      <trkpt lat="44.61473" lon="2.08943">
        <ele>431</ele>
        <time>2015-08-26T13:59:40Z</time>
      </trkpt>
      <trkpt lat="44.6147" lon="2.08938">
        <ele>430</ele>
        <time>2015-08-26T13:59:46Z</time>
      </trkpt>
      <trkpt lat="44.61464" lon="2.08927">
        <ele>431</ele>
        <time>2015-08-26T13:59:58Z</time>
      </trkpt>
      <trkpt lat="44.6146" lon="2.08923">
        <ele>431</ele>
        <time>2015-08-26T14:00:04Z</time>
      </trkpt>
      <trkpt lat="44.61454" lon="2.08912">
        <ele>433</ele>
        <time>2015-08-26T14:00:14Z</time>
      </trkpt>
      <trkpt lat="44.61448" lon="2.08901">
        <ele>434</ele>
        <time>2015-08-26T14:00:25Z</time>
      </trkpt>
      <trkpt lat="44.61441" lon="2.08893">
        <ele>432</ele>
        <time>2015-08-26T14:00:35Z</time>
      </trkpt>
      <trkpt lat="44.61433" lon="2.08886">
        <ele>433</ele>
        <time>2015-08-26T14:00:46Z</time>
      </trkpt>
      <trkpt lat="44.61427" lon="2.08875">
        <ele>432</ele>
        <time>2015-08-26T14:00:57Z</time>
      </trkpt>
      <trkpt lat="44.61423" lon="2.08862">
        <ele>432</ele>
        <time>2015-08-26T14:01:07Z</time>
      </trkpt>
      <trkpt lat="44.6142" lon="2.08849">
        <ele>431</ele>
        <time>2015-08-26T14:01:18Z</time>
      </trkpt>
      <trkpt lat="44.61418" lon="2.08842">
        <ele>432</ele>
        <time>2015-08-26T14:01:24Z</time>
      </trkpt>
      <trkpt lat="44.61416" lon="2.08836">
        <ele>432</ele>
        <time>2015-08-26T14:01:30Z</time>
      </trkpt>
      <trkpt lat="44.61414" lon="2.08829">
        <ele>431</ele>
        <time>2015-08-26T14:01:36Z</time>
      </trkpt>
      <trkpt lat="44.61411" lon="2.08816">
        <ele>432</ele>
        <time>2015-08-26T14:01:46Z</time>
      </trkpt>
      <trkpt lat="44.61409" lon="2.08804">
        <ele>432</ele>
        <time>2015-08-26T14:01:56Z</time>
      </trkpt>
      <trkpt lat="44.61408" lon="2.08791">
        <ele>430</ele>
        <time>2015-08-26T14:02:07Z</time>
      </trkpt>
      <trkpt lat="44.61406" lon="2.08777">
        <ele>431</ele>
        <time>2015-08-26T14:02:18Z</time>
      </trkpt>
      <trkpt lat="44.61405" lon="2.08763">
        <ele>430</ele>
        <time>2015-08-26T14:02:28Z</time>
      </trkpt>
      <trkpt lat="44.61403" lon="2.08757">
        <ele>428</ele>
        <time>2015-08-26T14:02:34Z</time>
      </trkpt>
      <trkpt lat="44.61402" lon="2.0875">
        <ele>429</ele>
        <time>2015-08-26T14:02:40Z</time>
      </trkpt>
      <trkpt lat="44.61399" lon="2.08738">
        <ele>430</ele>
        <time>2015-08-26T14:02:50Z</time>
      </trkpt>
      <trkpt lat="44.61396" lon="2.08729">
        <ele>430</ele>
        <time>2015-08-26T14:02:57Z</time>
      </trkpt>
      <trkpt lat="44.61394" lon="2.08724">
        <ele>430</ele>
        <time>2015-08-26T14:03:03Z</time>
      </trkpt>
      <trkpt lat="44.61392" lon="2.08718">
        <ele>432</ele>
        <time>2015-08-26T14:03:09Z</time>
      </trkpt>
      <trkpt lat="44.61387" lon="2.08707">
        <ele>431</ele>
        <time>2015-08-26T14:03:19Z</time>
      </trkpt>
      <trkpt lat="44.61384" lon="2.08701">
        <ele>431</ele>
        <time>2015-08-26T14:03:26Z</time>
      </trkpt>
      <trkpt lat="44.61377" lon="2.08701">
        <ele>434</ele>
        <time>2015-08-26T14:03:57Z</time>
      </trkpt>
      <trkpt lat="44.61372" lon="2.08705">
        <ele>433</ele>
        <time>2015-08-26T14:04:03Z</time>
      </trkpt>
      <trkpt lat="44.61368" lon="2.08707">
        <ele>433</ele>
        <time>2015-08-26T14:04:09Z</time>
      </trkpt>
      <trkpt lat="44.61358" lon="2.08712">
        <ele>432</ele>
        <time>2015-08-26T14:04:20Z</time>
      </trkpt>
      <trkpt lat="44.61354" lon="2.08715">
        <ele>432</ele>
        <time>2015-08-26T14:04:26Z</time>
      </trkpt>
      <trkpt lat="44.61345" lon="2.0872">
        <ele>431</ele>
        <time>2015-08-26T14:04:36Z</time>
      </trkpt>
      <trkpt lat="44.61336" lon="2.08726">
        <ele>430</ele>
        <time>2015-08-26T14:04:49Z</time>
      </trkpt>
      <trkpt lat="44.6133" lon="2.08729">
        <ele>431</ele>
        <time>2015-08-26T14:04:57Z</time>
      </trkpt>
      <trkpt lat="44.6132" lon="2.08731">
        <ele>433</ele>
        <time>2015-08-26T14:05:07Z</time>
      </trkpt>
      <trkpt lat="44.61316" lon="2.08728">
        <ele>433</ele>
        <time>2015-08-26T14:05:13Z</time>
      </trkpt>
      <trkpt lat="44.61312" lon="2.08724">
        <ele>433</ele>
        <time>2015-08-26T14:05:19Z</time>
      </trkpt>
      <trkpt lat="44.61309" lon="2.08719">
        <ele>434</ele>
        <time>2015-08-26T14:05:25Z</time>
      </trkpt>
      <trkpt lat="44.61306" lon="2.08714">
        <ele>434</ele>
        <time>2015-08-26T14:05:31Z</time>
      </trkpt>
      <trkpt lat="44.61303" lon="2.08708">
        <ele>434</ele>
        <time>2015-08-26T14:05:38Z</time>
      </trkpt>
      <trkpt lat="44.613" lon="2.08702">
        <ele>434</ele>
        <time>2015-08-26T14:05:44Z</time>
      </trkpt>
      <trkpt lat="44.61296" lon="2.08698">
        <ele>433</ele>
        <time>2015-08-26T14:05:50Z</time>
      </trkpt>
      <trkpt lat="44.61293" lon="2.08693">
        <ele>434</ele>
        <time>2015-08-26T14:12:35Z</time>
      </trkpt>
      <trkpt lat="44.61288" lon="2.08692">
        <ele>433</ele>
        <time>2015-08-26T14:12:41Z</time>
      </trkpt>
      <trkpt lat="44.6128" lon="2.08692">
        <ele>433</ele>
        <time>2015-08-26T14:12:51Z</time>
      </trkpt>
      <trkpt lat="44.61271" lon="2.08692">
        <ele>432</ele>
        <time>2015-08-26T14:13:02Z</time>
      </trkpt>
      <trkpt lat="44.61266" lon="2.08693">
        <ele>433</ele>
        <time>2015-08-26T14:13:08Z</time>
      </trkpt>
      <trkpt lat="44.61261" lon="2.08691">
        <ele>433</ele>
        <time>2015-08-26T14:13:14Z</time>
      </trkpt>
      <trkpt lat="44.61256" lon="2.08692">
        <ele>433</ele>
        <time>2015-08-26T14:13:20Z</time>
      </trkpt>
      <trkpt lat="44.61246" lon="2.0869">
        <ele>432</ele>
        <time>2015-08-26T14:13:31Z</time>
      </trkpt>
      <trkpt lat="44.61241" lon="2.08689">
        <ele>431</ele>
        <time>2015-08-26T14:13:37Z</time>
      </trkpt>
      <trkpt lat="44.61231" lon="2.08688">
        <ele>431</ele>
        <time>2015-08-26T14:13:47Z</time>
      </trkpt>
      <trkpt lat="44.61221" lon="2.08686">
        <ele>430</ele>
        <time>2015-08-26T14:13:57Z</time>
      </trkpt>
      <trkpt lat="44.61212" lon="2.08683">
        <ele>430</ele>
        <time>2015-08-26T14:14:08Z</time>
      </trkpt>
      <trkpt lat="44.61207" lon="2.08682">
        <ele>429</ele>
        <time>2015-08-26T14:14:14Z</time>
      </trkpt>
      <trkpt lat="44.61202" lon="2.08681">
        <ele>429</ele>
        <time>2015-08-26T14:14:20Z</time>
      </trkpt>
      <trkpt lat="44.61197" lon="2.08679">
        <ele>428</ele>
        <time>2015-08-26T14:14:26Z</time>
      </trkpt>
      <trkpt lat="44.61192" lon="2.08677">
        <ele>427</ele>
        <time>2015-08-26T14:14:32Z</time>
      </trkpt>
      <trkpt lat="44.61187" lon="2.08676">
        <ele>427</ele>
        <time>2015-08-26T14:14:38Z</time>
      </trkpt>
      <trkpt lat="44.61182" lon="2.08674">
        <ele>426</ele>
        <time>2015-08-26T14:14:45Z</time>
      </trkpt>
      <trkpt lat="44.61174" lon="2.08672">
        <ele>424</ele>
        <time>2015-08-26T14:14:58Z</time>
      </trkpt>
      <trkpt lat="44.61169" lon="2.08671">
        <ele>423</ele>
        <time>2015-08-26T14:15:05Z</time>
      </trkpt>
      <trkpt lat="44.61164" lon="2.08669">
        <ele>422</ele>
        <time>2015-08-26T14:15:13Z</time>
      </trkpt>
      <trkpt lat="44.61161" lon="2.08664">
        <ele>420</ele>
        <time>2015-08-26T14:15:24Z</time>
      </trkpt>
      <trkpt lat="44.61164" lon="2.08659">
        <ele>420</ele>
        <time>2015-08-26T14:15:33Z</time>
      </trkpt>
      <trkpt lat="44.61166" lon="2.08653">
        <ele>420</ele>
        <time>2015-08-26T14:15:41Z</time>
      </trkpt>
      <trkpt lat="44.61169" lon="2.08648">
        <ele>421</ele>
        <time>2015-08-26T14:15:47Z</time>
      </trkpt>
      <trkpt lat="44.61174" lon="2.0864">
        <ele>420</ele>
        <time>2015-08-26T14:15:57Z</time>
      </trkpt>
      <trkpt lat="44.61181" lon="2.0863">
        <ele>421</ele>
        <time>2015-08-26T14:16:08Z</time>
      </trkpt>
      <trkpt lat="44.61184" lon="2.08625">
        <ele>422</ele>
        <time>2015-08-26T14:16:14Z</time>
      </trkpt>
      <trkpt lat="44.6119" lon="2.08615">
        <ele>424</ele>
        <time>2015-08-26T14:16:25Z</time>
      </trkpt>
      <trkpt lat="44.61193" lon="2.08609">
        <ele>424</ele>
        <time>2015-08-26T14:16:31Z</time>
      </trkpt>
      <trkpt lat="44.61197" lon="2.08604">
        <ele>425</ele>
        <time>2015-08-26T14:16:37Z</time>
      </trkpt>
      <trkpt lat="44.61203" lon="2.08593">
        <ele>424</ele>
        <time>2015-08-26T14:16:48Z</time>
      </trkpt>
      <trkpt lat="44.61208" lon="2.08583">
        <ele>425</ele>
        <time>2015-08-26T14:16:58Z</time>
      </trkpt>
      <trkpt lat="44.61209" lon="2.08577">
        <ele>426</ele>
        <time>2015-08-26T14:17:05Z</time>
      </trkpt>
      <trkpt lat="44.61211" lon="2.0857">
        <ele>427</ele>
        <time>2015-08-26T14:17:11Z</time>
      </trkpt>
      <trkpt lat="44.61212" lon="2.08563">
        <ele>427</ele>
        <time>2015-08-26T14:17:17Z</time>
      </trkpt>
      <trkpt lat="44.61212" lon="2.08556">
        <ele>427</ele>
        <time>2015-08-26T14:17:24Z</time>
      </trkpt>
      <trkpt lat="44.61211" lon="2.08543">
        <ele>426</ele>
        <time>2015-08-26T14:17:34Z</time>
      </trkpt>
      <trkpt lat="44.61209" lon="2.08537">
        <ele>426</ele>
        <time>2015-08-26T14:17:40Z</time>
      </trkpt>
      <trkpt lat="44.61206" lon="2.08532">
        <ele>425</ele>
        <time>2015-08-26T14:17:50Z</time>
      </trkpt>
      <trkpt lat="44.61204" lon="2.08524">
        <ele>426</ele>
        <time>2015-08-26T14:18:10Z</time>
      </trkpt>
      <trkpt lat="44.61202" lon="2.08519">
        <ele>427</ele>
        <time>2015-08-26T14:18:32Z</time>
      </trkpt>
      <trkpt lat="44.61198" lon="2.08514">
        <ele>428</ele>
        <time>2015-08-26T14:18:41Z</time>
      </trkpt>
      <trkpt lat="44.61195" lon="2.08509">
        <ele>428</ele>
        <time>2015-08-26T14:18:50Z</time>
      </trkpt>
      <trkpt lat="44.61194" lon="2.08501">
        <ele>428</ele>
        <time>2015-08-26T14:18:59Z</time>
      </trkpt>
      <trkpt lat="44.61193" lon="2.08494">
        <ele>428</ele>
        <time>2015-08-26T14:19:06Z</time>
      </trkpt>
      <trkpt lat="44.61193" lon="2.08487">
        <ele>427</ele>
        <time>2015-08-26T14:19:13Z</time>
      </trkpt>
      <trkpt lat="44.61192" lon="2.0848">
        <ele>428</ele>
        <time>2015-08-26T14:19:19Z</time>
      </trkpt>
      <trkpt lat="44.6119" lon="2.08473">
        <ele>429</ele>
        <time>2015-08-26T14:19:25Z</time>
      </trkpt>
      <trkpt lat="44.6119" lon="2.08465">
        <ele>429</ele>
        <time>2015-08-26T14:19:32Z</time>
      </trkpt>
      <trkpt lat="44.61189" lon="2.08458">
        <ele>429</ele>
        <time>2015-08-26T14:19:38Z</time>
      </trkpt>
      <trkpt lat="44.61189" lon="2.08451">
        <ele>429</ele>
        <time>2015-08-26T14:19:44Z</time>
      </trkpt>
      <trkpt lat="44.61189" lon="2.08444">
        <ele>429</ele>
        <time>2015-08-26T14:19:50Z</time>
      </trkpt>
      <trkpt lat="44.61189" lon="2.08435">
        <ele>430</ele>
        <time>2015-08-26T14:19:57Z</time>
      </trkpt>
      <trkpt lat="44.6119" lon="2.08428">
        <ele>430</ele>
        <time>2015-08-26T14:20:03Z</time>
      </trkpt>
      <trkpt lat="44.61189" lon="2.08421">
        <ele>430</ele>
        <time>2015-08-26T14:20:09Z</time>
      </trkpt>
      <trkpt lat="44.6119" lon="2.08414">
        <ele>430</ele>
        <time>2015-08-26T14:20:15Z</time>
      </trkpt>
      <trkpt lat="44.61191" lon="2.08408">
        <ele>430</ele>
        <time>2015-08-26T14:20:21Z</time>
      </trkpt>
      <trkpt lat="44.61193" lon="2.08395">
        <ele>431</ele>
        <time>2015-08-26T14:20:31Z</time>
      </trkpt>
      <trkpt lat="44.61194" lon="2.08388">
        <ele>431</ele>
        <time>2015-08-26T14:20:37Z</time>
      </trkpt>
      <trkpt lat="44.61195" lon="2.08381">
        <ele>431</ele>
        <time>2015-08-26T14:20:44Z</time>
      </trkpt>
      <trkpt lat="44.61195" lon="2.08374">
        <ele>431</ele>
        <time>2015-08-26T14:20:50Z</time>
      </trkpt>
      <trkpt lat="44.61195" lon="2.08365">
        <ele>430</ele>
        <time>2015-08-26T14:20:59Z</time>
      </trkpt>
      <trkpt lat="44.61195" lon="2.08358">
        <ele>431</ele>
        <time>2015-08-26T14:21:06Z</time>
      </trkpt>
      <trkpt lat="44.61196" lon="2.08345">
        <ele>430</ele>
        <time>2015-08-26T14:21:18Z</time>
      </trkpt>
      <trkpt lat="44.61197" lon="2.08338">
        <ele>429</ele>
        <time>2015-08-26T14:21:24Z</time>
      </trkpt>
      <trkpt lat="44.61197" lon="2.08331">
        <ele>429</ele>
        <time>2015-08-26T14:21:30Z</time>
      </trkpt>
      <trkpt lat="44.61197" lon="2.08325">
        <ele>430</ele>
        <time>2015-08-26T14:21:36Z</time>
      </trkpt>
      <trkpt lat="44.61199" lon="2.08316">
        <ele>428</ele>
        <time>2015-08-26T14:22:10Z</time>
      </trkpt>
      <trkpt lat="44.612" lon="2.08309">
        <ele>427</ele>
        <time>2015-08-26T14:22:18Z</time>
      </trkpt>
      <trkpt lat="44.61205" lon="2.08297">
        <ele>426</ele>
        <time>2015-08-26T14:22:30Z</time>
      </trkpt>
      <trkpt lat="44.61206" lon="2.0829">
        <ele>426</ele>
        <time>2015-08-26T14:22:36Z</time>
      </trkpt>
      <trkpt lat="44.61208" lon="2.08283">
        <ele>426</ele>
        <time>2015-08-26T14:22:42Z</time>
      </trkpt>
      <trkpt lat="44.6121" lon="2.08273">
        <ele>426</ele>
        <time>2015-08-26T14:22:51Z</time>
      </trkpt>
      <trkpt lat="44.61211" lon="2.08266">
        <ele>426</ele>
        <time>2015-08-26T14:22:57Z</time>
      </trkpt>
      <trkpt lat="44.61214" lon="2.08254">
        <ele>426</ele>
        <time>2015-08-26T14:23:08Z</time>
      </trkpt>
      <trkpt lat="44.61216" lon="2.08248">
        <ele>426</ele>
        <time>2015-08-26T14:23:14Z</time>
      </trkpt>
      <trkpt lat="44.61217" lon="2.08241">
        <ele>426</ele>
        <time>2015-08-26T14:23:20Z</time>
      </trkpt>
      <trkpt lat="44.61219" lon="2.08235">
        <ele>426</ele>
        <time>2015-08-26T14:23:26Z</time>
      </trkpt>
      <trkpt lat="44.61221" lon="2.08229">
        <ele>426</ele>
        <time>2015-08-26T14:23:32Z</time>
      </trkpt>
      <trkpt lat="44.61221" lon="2.08222">
        <ele>426</ele>
        <time>2015-08-26T14:23:41Z</time>
      </trkpt>
      <trkpt lat="44.61222" lon="2.08215">
        <ele>428</ele>
        <time>2015-08-26T14:23:49Z</time>
      </trkpt>
      <trkpt lat="44.61224" lon="2.08206">
        <ele>428</ele>
        <time>2015-08-26T14:23:58Z</time>
      </trkpt>
      <trkpt lat="44.61224" lon="2.08199">
        <ele>427</ele>
        <time>2015-08-26T14:24:05Z</time>
      </trkpt>
      <trkpt lat="44.61224" lon="2.08192">
        <ele>426</ele>
        <time>2015-08-26T14:24:11Z</time>
      </trkpt>
      <trkpt lat="44.61224" lon="2.08185">
        <ele>425</ele>
        <time>2015-08-26T14:24:17Z</time>
      </trkpt>
      <trkpt lat="44.61223" lon="2.08179">
        <ele>425</ele>
        <time>2015-08-26T14:24:23Z</time>
      </trkpt>
      <trkpt lat="44.61221" lon="2.08173">
        <ele>424</ele>
        <time>2015-08-26T14:24:29Z</time>
      </trkpt>
      <trkpt lat="44.61218" lon="2.08168">
        <ele>424</ele>
        <time>2015-08-26T14:24:36Z</time>
      </trkpt>
      <trkpt lat="44.61216" lon="2.08161">
        <ele>424</ele>
        <time>2015-08-26T14:24:42Z</time>
      </trkpt>
      <trkpt lat="44.61214" lon="2.08155">
        <ele>424</ele>
        <time>2015-08-26T14:24:48Z</time>
      </trkpt>
      <trkpt lat="44.61211" lon="2.08145">
        <ele>424</ele>
        <time>2015-08-26T14:24:57Z</time>
      </trkpt>
      <trkpt lat="44.61209" lon="2.08138">
        <ele>424</ele>
        <time>2015-08-26T14:25:03Z</time>
      </trkpt>
      <trkpt lat="44.61203" lon="2.08127">
        <ele>423</ele>
        <time>2015-08-26T14:25:14Z</time>
      </trkpt>
      <trkpt lat="44.612" lon="2.08122">
        <ele>424</ele>
        <time>2015-08-26T14:25:20Z</time>
      </trkpt>
      <trkpt lat="44.61194" lon="2.08111">
        <ele>423</ele>
        <time>2015-08-26T14:25:30Z</time>
      </trkpt>
      <trkpt lat="44.61192" lon="2.08105">
        <ele>423</ele>
        <time>2015-08-26T14:25:36Z</time>
      </trkpt>
      <trkpt lat="44.61188" lon="2.08101">
        <ele>424</ele>
        <time>2015-08-26T14:25:44Z</time>
      </trkpt>
      <trkpt lat="44.61184" lon="2.08095">
        <ele>424</ele>
        <time>2015-08-26T14:25:50Z</time>
      </trkpt>
      <trkpt lat="44.6118" lon="2.08088">
        <ele>425</ele>
        <time>2015-08-26T14:25:56Z</time>
      </trkpt>
      <trkpt lat="44.61176" lon="2.08083">
        <ele>425</ele>
        <time>2015-08-26T14:26:02Z</time>
      </trkpt>
      <trkpt lat="44.61173" lon="2.08077">
        <ele>425</ele>
        <time>2015-08-26T14:26:08Z</time>
      </trkpt>
      <trkpt lat="44.61169" lon="2.08072">
        <ele>424</ele>
        <time>2015-08-26T14:26:14Z</time>
      </trkpt>
      <trkpt lat="44.61164" lon="2.08061">
        <ele>424</ele>
        <time>2015-08-26T14:26:24Z</time>
      </trkpt>
      <trkpt lat="44.61159" lon="2.08049">
        <ele>424</ele>
        <time>2015-08-26T14:26:35Z</time>
      </trkpt>
      <trkpt lat="44.61156" lon="2.08044">
        <ele>423</ele>
        <time>2015-08-26T14:26:41Z</time>
      </trkpt>
      <trkpt lat="44.6115" lon="2.08035">
        <ele>424</ele>
        <time>2015-08-26T14:26:51Z</time>
      </trkpt>
      <trkpt lat="44.61147" lon="2.0803">
        <ele>424</ele>
        <time>2015-08-26T14:26:57Z</time>
      </trkpt>
      <trkpt lat="44.61143" lon="2.08025">
        <ele>423</ele>
        <time>2015-08-26T14:27:03Z</time>
      </trkpt>
      <trkpt lat="44.6114" lon="2.08019">
        <ele>423</ele>
        <time>2015-08-26T14:27:09Z</time>
      </trkpt>
      <trkpt lat="44.61137" lon="2.08015">
        <ele>424</ele>
        <time>2015-08-26T14:27:17Z</time>
      </trkpt>
      <trkpt lat="44.61134" lon="2.08008">
        <ele>426</ele>
        <time>2015-08-26T14:27:23Z</time>
      </trkpt>
      <trkpt lat="44.61132" lon="2.07995">
        <ele>428</ele>
        <time>2015-08-26T14:27:33Z</time>
      </trkpt>
      <trkpt lat="44.61132" lon="2.07988">
        <ele>428</ele>
        <time>2015-08-26T14:27:40Z</time>
      </trkpt>
      <trkpt lat="44.61131" lon="2.07981">
        <ele>429</ele>
        <time>2015-08-26T14:27:46Z</time>
      </trkpt>
      <trkpt lat="44.6113" lon="2.0797">
        <ele>429</ele>
        <time>2015-08-26T14:27:57Z</time>
      </trkpt>
      <trkpt lat="44.6113" lon="2.07963">
        <ele>430</ele>
        <time>2015-08-26T14:28:03Z</time>
      </trkpt>
      <trkpt lat="44.61129" lon="2.07956">
        <ele>431</ele>
        <time>2015-08-26T14:28:10Z</time>
      </trkpt>
      <trkpt lat="44.6113" lon="2.0795">
        <ele>431</ele>
        <time>2015-08-26T14:28:24Z</time>
      </trkpt>
      <trkpt lat="44.61137" lon="2.07946">
        <ele>431</ele>
        <time>2015-08-26T14:42:56Z</time>
      </trkpt>
      <trkpt lat="44.61141" lon="2.07944">
        <ele>431</ele>
        <time>2015-08-26T14:43:02Z</time>
      </trkpt>
      <trkpt lat="44.61147" lon="2.07943">
        <ele>431</ele>
        <time>2015-08-26T14:43:08Z</time>
      </trkpt>
      <trkpt lat="44.61152" lon="2.07941">
        <ele>431</ele>
        <time>2015-08-26T14:43:14Z</time>
      </trkpt>
      <trkpt lat="44.61161" lon="2.07938">
        <ele>431</ele>
        <time>2015-08-26T14:43:24Z</time>
      </trkpt>
      <trkpt lat="44.61166" lon="2.07936">
        <ele>432</ele>
        <time>2015-08-26T14:43:30Z</time>
      </trkpt>
      <trkpt lat="44.61175" lon="2.07933">
        <ele>432</ele>
        <time>2015-08-26T14:43:40Z</time>
      </trkpt>
      <trkpt lat="44.61184" lon="2.0793">
        <ele>432</ele>
        <time>2015-08-26T14:43:50Z</time>
      </trkpt>
      <trkpt lat="44.6119" lon="2.07928">
        <ele>432</ele>
        <time>2015-08-26T14:43:56Z</time>
      </trkpt>
      <trkpt lat="44.612" lon="2.07925">
        <ele>432</ele>
        <time>2015-08-26T14:44:06Z</time>
      </trkpt>
      <trkpt lat="44.6121" lon="2.07921">
        <ele>433</ele>
        <time>2015-08-26T14:44:19Z</time>
      </trkpt>
      <trkpt lat="44.6122" lon="2.0792">
        <ele>433</ele>
        <time>2015-08-26T14:44:29Z</time>
      </trkpt>
      <trkpt lat="44.61224" lon="2.07915">
        <ele>433</ele>
        <time>2015-08-26T14:44:35Z</time>
      </trkpt>
      <trkpt lat="44.61228" lon="2.07912">
        <ele>433</ele>
        <time>2015-08-26T14:44:41Z</time>
      </trkpt>
      <trkpt lat="44.61238" lon="2.07909">
        <ele>433</ele>
        <time>2015-08-26T14:44:51Z</time>
      </trkpt>
      <trkpt lat="44.61242" lon="2.07907">
        <ele>433</ele>
        <time>2015-08-26T14:45:30Z</time>
      </trkpt>
      <trkpt lat="44.61246" lon="2.07911">
        <ele>434</ele>
        <time>2015-08-26T14:46:51Z</time>
      </trkpt>
      <trkpt lat="44.61241" lon="2.07914">
        <ele>434</ele>
        <time>2015-08-26T14:47:42Z</time>
      </trkpt>
      <trkpt lat="44.612" lon="2.07918">
        <ele>433</ele>
        <time>2015-08-26T14:47:48Z</time>
      </trkpt>
      <trkpt lat="44.61143" lon="2.07937">
        <ele>431</ele>
        <time>2015-08-26T14:47:54Z</time>
      </trkpt>
      <trkpt lat="44.61089" lon="2.0791">
        <ele>429</ele>
        <time>2015-08-26T14:48:00Z</time>
      </trkpt>
      <trkpt lat="44.61033" lon="2.07822">
        <ele>425</ele>
        <time>2015-08-26T14:48:06Z</time>
      </trkpt>
      <trkpt lat="44.60978" lon="2.07735">
        <ele>423</ele>
        <time>2015-08-26T14:48:12Z</time>
      </trkpt>
      <trkpt lat="44.60934" lon="2.0764">
        <ele>419</ele>
        <time>2015-08-26T14:48:18Z</time>
      </trkpt>
      <trkpt lat="44.60903" lon="2.07526">
        <ele>413</ele>
        <time>2015-08-26T14:48:24Z</time>
      </trkpt>
      <trkpt lat="44.60867" lon="2.07431">
        <ele>408</ele>
        <time>2015-08-26T14:48:30Z</time>
      </trkpt>
      <trkpt lat="44.6079" lon="2.07387">
        <ele>405</ele>
        <time>2015-08-26T14:48:36Z</time>
      </trkpt>
      <trkpt lat="44.60699" lon="2.07346">
        <ele>404</ele>
        <time>2015-08-26T14:48:42Z</time>
      </trkpt>
      <trkpt lat="44.60639" lon="2.07294">
        <ele>403</ele>
        <time>2015-08-26T14:48:48Z</time>
      </trkpt>
      <trkpt lat="44.60604" lon="2.07199">
        <ele>401</ele>
        <time>2015-08-26T14:48:54Z</time>
      </trkpt>
      <trkpt lat="44.60569" lon="2.07098">
        <ele>399</ele>
        <time>2015-08-26T14:49:00Z</time>
      </trkpt>
      <trkpt lat="44.60571" lon="2.0699">
        <ele>396</ele>
        <time>2015-08-26T14:49:06Z</time>
      </trkpt>
      <trkpt lat="44.60611" lon="2.06887">
        <ele>393</ele>
        <time>2015-08-26T14:49:12Z</time>
      </trkpt>
      <trkpt lat="44.60627" lon="2.06779">
        <ele>390</ele>
        <time>2015-08-26T14:49:18Z</time>
      </trkpt>
      <trkpt lat="44.60596" lon="2.06669">
        <ele>384</ele>
        <time>2015-08-26T14:49:24Z</time>
      </trkpt>
      <trkpt lat="44.60553" lon="2.06556">
        <ele>377</ele>
        <time>2015-08-26T14:49:30Z</time>
      </trkpt>
      <trkpt lat="44.60496" lon="2.06445">
        <ele>370</ele>
        <time>2015-08-26T14:49:36Z</time>
      </trkpt>
      <trkpt lat="44.60473" lon="2.06302">
        <ele>363</ele>
        <time>2015-08-26T14:49:42Z</time>
      </trkpt>
      <trkpt lat="44.60486" lon="2.06157">
        <ele>356</ele>
        <time>2015-08-26T14:49:48Z</time>
      </trkpt>
      <trkpt lat="44.60514" lon="2.06034">
        <ele>346</ele>
        <time>2015-08-26T14:49:54Z</time>
      </trkpt>
      <trkpt lat="44.60517" lon="2.05914">
        <ele>337</ele>
        <time>2015-08-26T14:50:00Z</time>
      </trkpt>
      <trkpt lat="44.60537" lon="2.05799">
        <ele>329</ele>
        <time>2015-08-26T14:50:06Z</time>
      </trkpt>
      <trkpt lat="44.60569" lon="2.05681">
        <ele>320</ele>
        <time>2015-08-26T14:50:12Z</time>
      </trkpt>
      <trkpt lat="44.6057" lon="2.05566">
        <ele>312</ele>
        <time>2015-08-26T14:50:18Z</time>
      </trkpt>
      <trkpt lat="44.60513" lon="2.05498">
        <ele>304</ele>
        <time>2015-08-26T14:50:24Z</time>
      </trkpt>
      <trkpt lat="44.6048" lon="2.05443">
        <ele>304</ele>
        <time>2015-08-26T14:50:31Z</time>
      </trkpt>
      <trkpt lat="44.60473" lon="2.05425">
        <ele>301</ele>
        <time>2015-08-26T14:50:37Z</time>
      </trkpt>
      <trkpt lat="44.60457" lon="2.0535">
        <ele>298</ele>
        <time>2015-08-26T14:50:43Z</time>
      </trkpt>
      <trkpt lat="44.60507" lon="2.05296">
        <ele>299</ele>
        <time>2015-08-26T14:50:49Z</time>
      </trkpt>
      <trkpt lat="44.60582" lon="2.05276">
        <ele>302</ele>
        <time>2015-08-26T14:50:55Z</time>
      </trkpt>
      <trkpt lat="44.60643" lon="2.05223">
        <ele>303</ele>
        <time>2015-08-26T14:51:01Z</time>
      </trkpt>
      <trkpt lat="44.60708" lon="2.0521">
        <ele>302</ele>
        <time>2015-08-26T14:51:07Z</time>
      </trkpt>
      <trkpt lat="44.60771" lon="2.05201">
        <ele>302</ele>
        <time>2015-08-26T14:51:13Z</time>
      </trkpt>
      <trkpt lat="44.60775" lon="2.05129">
        <ele>299</ele>
        <time>2015-08-26T14:51:19Z</time>
      </trkpt>
      <trkpt lat="44.60727" lon="2.05062">
        <ele>297</ele>
        <time>2015-08-26T14:51:25Z</time>
      </trkpt>
      <trkpt lat="44.6072" lon="2.04973">
        <ele>294</ele>
        <time>2015-08-26T14:51:31Z</time>
      </trkpt>
      <trkpt lat="44.60699" lon="2.04889">
        <ele>290</ele>
        <time>2015-08-26T14:51:37Z</time>
      </trkpt>
      <trkpt lat="44.60692" lon="2.04812">
        <ele>288</ele>
        <time>2015-08-26T14:51:43Z</time>
      </trkpt>
      <trkpt lat="44.60702" lon="2.04727">
        <ele>283</ele>
        <time>2015-08-26T14:51:49Z</time>
      </trkpt>
      <trkpt lat="44.60716" lon="2.0465">
        <ele>279</ele>
        <time>2015-08-26T14:51:55Z</time>
      </trkpt>
      <trkpt lat="44.60714" lon="2.04576">
        <ele>275</ele>
        <time>2015-08-26T14:52:01Z</time>
      </trkpt>
      <trkpt lat="44.6071" lon="2.04514">
        <ele>273</ele>
        <time>2015-08-26T14:52:07Z</time>
      </trkpt>
      <trkpt lat="44.6071" lon="2.04466">
        <ele>269</ele>
        <time>2015-08-26T14:52:13Z</time>
      </trkpt>
      <trkpt lat="44.60711" lon="2.04446">
        <ele>269</ele>
        <time>2015-08-26T14:52:20Z</time>
      </trkpt>
      <trkpt lat="44.60711" lon="2.04439">
        <ele>268</ele>
        <time>2015-08-26T14:52:27Z</time>
      </trkpt>
      <trkpt lat="44.60712" lon="2.04432">
        <ele>268</ele>
        <time>2015-08-26T14:52:38Z</time>
      </trkpt>
      <trkpt lat="44.60712" lon="2.04415">
        <ele>267</ele>
        <time>2015-08-26T14:52:45Z</time>
      </trkpt>
      <trkpt lat="44.60704" lon="2.04368">
        <ele>264</ele>
        <time>2015-08-26T14:52:51Z</time>
      </trkpt>
      <trkpt lat="44.60691" lon="2.04323">
        <ele>261</ele>
        <time>2015-08-26T14:52:57Z</time>
      </trkpt>
      <trkpt lat="44.60705" lon="2.04285">
        <ele>258</ele>
        <time>2015-08-26T14:53:03Z</time>
      </trkpt>
      <trkpt lat="44.60709" lon="2.0423">
        <ele>257</ele>
        <time>2015-08-26T14:53:09Z</time>
      </trkpt>
      <trkpt lat="44.60701" lon="2.04156">
        <ele>256</ele>
        <time>2015-08-26T14:53:15Z</time>
      </trkpt>
      <trkpt lat="44.60693" lon="2.04068">
        <ele>257</ele>
        <time>2015-08-26T14:53:21Z</time>
      </trkpt>
      <trkpt lat="44.60684" lon="2.0398">
        <ele>257</ele>
        <time>2015-08-26T14:53:27Z</time>
      </trkpt>
      <trkpt lat="44.60674" lon="2.03895">
        <ele>256</ele>
        <time>2015-08-26T14:53:33Z</time>
      </trkpt>
      <trkpt lat="44.60666" lon="2.03811">
        <ele>256</ele>
        <time>2015-08-26T14:53:39Z</time>
      </trkpt>
      <trkpt lat="44.60656" lon="2.03718">
        <ele>254</ele>
        <time>2015-08-26T14:53:45Z</time>
      </trkpt>
      <trkpt lat="44.60646" lon="2.03626">
        <ele>252</ele>
        <time>2015-08-26T14:53:51Z</time>
      </trkpt>
      <trkpt lat="44.60638" lon="2.03541">
        <ele>253</ele>
        <time>2015-08-26T14:53:57Z</time>
      </trkpt>
      <trkpt lat="44.60634" lon="2.03488">
        <ele>253</ele>
        <time>2015-08-26T14:54:03Z</time>
      </trkpt>
      <trkpt lat="44.60636" lon="2.03477">
        <ele>255</ele>
        <time>2015-08-26T14:55:05Z</time>
      </trkpt>
      <trkpt lat="44.60633" lon="2.03465">
        <ele>251</ele>
        <time>2015-08-26T14:55:16Z</time>
      </trkpt>
      <trkpt lat="44.60632" lon="2.03459">
        <ele>252</ele>
        <time>2015-08-26T14:55:23Z</time>
      </trkpt>
      <trkpt lat="44.60632" lon="2.03444">
        <ele>251</ele>
        <time>2015-08-26T14:55:34Z</time>
      </trkpt>
      <trkpt lat="44.60631" lon="2.03429">
        <ele>249</ele>
        <time>2015-08-26T14:55:43Z</time>
      </trkpt>
      <trkpt lat="44.60631" lon="2.03422">
        <ele>250</ele>
        <time>2015-08-26T14:55:49Z</time>
      </trkpt>
      <trkpt lat="44.60634" lon="2.03414">
        <ele>250</ele>
        <time>2015-08-26T14:56:01Z</time>
      </trkpt>
      <trkpt lat="44.60636" lon="2.03408">
        <ele>249</ele>
        <time>2015-08-26T14:56:18Z</time>
      </trkpt>
      <trkpt lat="44.60641" lon="2.03405">
        <ele>250</ele>
        <time>2015-08-26T14:56:25Z</time>
      </trkpt>
      <trkpt lat="44.60649" lon="2.03401">
        <ele>251</ele>
        <time>2015-08-26T14:56:35Z</time>
      </trkpt>
      <trkpt lat="44.60654" lon="2.034">
        <ele>253</ele>
        <time>2015-08-26T14:56:43Z</time>
      </trkpt>
      <trkpt lat="44.60662" lon="2.034">
        <ele>253</ele>
        <time>2015-08-26T14:56:51Z</time>
      </trkpt>
      <trkpt lat="44.60667" lon="2.03399">
        <ele>252</ele>
        <time>2015-08-26T14:56:57Z</time>
      </trkpt>
      <trkpt lat="44.60677" lon="2.03397">
        <ele>250</ele>
        <time>2015-08-26T14:57:07Z</time>
      </trkpt>
      <trkpt lat="44.60687" lon="2.03395">
        <ele>249</ele>
        <time>2015-08-26T14:57:22Z</time>
      </trkpt>
      <trkpt lat="44.60692" lon="2.03394">
        <ele>248</ele>
        <time>2015-08-26T14:57:28Z</time>
      </trkpt>
      <trkpt lat="44.60702" lon="2.03393">
        <ele>248</ele>
        <time>2015-08-26T14:57:38Z</time>
      </trkpt>
      <trkpt lat="44.60706" lon="2.03397">
        <ele>249</ele>
        <time>2015-08-26T14:57:44Z</time>
      </trkpt>
      <trkpt lat="44.60712" lon="2.03399">
        <ele>248</ele>
        <time>2015-08-26T14:57:58Z</time>
      </trkpt>
      <trkpt lat="44.60714" lon="2.03394">
        <ele>247</ele>
        <time>2015-08-26T14:58:04Z</time>
      </trkpt>
      <trkpt lat="44.60715" lon="2.03387">
        <ele>245</ele>
        <time>2015-08-26T14:58:11Z</time>
      </trkpt>
      <trkpt lat="44.6072" lon="2.03383">
        <ele>245</ele>
        <time>2015-08-26T14:58:22Z</time>
      </trkpt>
      <trkpt lat="44.60724" lon="2.03381">
        <ele>246</ele>
        <time>2015-08-26T14:58:28Z</time>
      </trkpt>
      <trkpt lat="44.60727" lon="2.03376">
        <ele>247</ele>
        <time>2015-08-26T14:58:34Z</time>
      </trkpt>
      <trkpt lat="44.60732" lon="2.03375">
        <ele>248</ele>
        <time>2015-08-26T14:58:40Z</time>
      </trkpt>
      <trkpt lat="44.6074" lon="2.03373">
        <ele>249</ele>
        <time>2015-08-26T14:58:51Z</time>
      </trkpt>
      <trkpt lat="44.60745" lon="2.03371">
        <ele>253</ele>
        <time>2015-08-26T14:58:58Z</time>
      </trkpt>
      <trkpt lat="44.6075" lon="2.03371">
        <ele>252</ele>
        <time>2015-08-26T14:59:05Z</time>
      </trkpt>
      <trkpt lat="44.60754" lon="2.03373">
        <ele>256</ele>
        <time>2015-08-26T14:59:16Z</time>
      </trkpt>
      <trkpt lat="44.60765" lon="2.03371">
        <ele>254</ele>
        <time>2015-08-26T14:59:27Z</time>
      </trkpt>
      <trkpt lat="44.60775" lon="2.03367">
        <ele>250</ele>
        <time>2015-08-26T14:59:36Z</time>
      </trkpt>
      <trkpt lat="44.60784" lon="2.03367">
        <ele>253</ele>
        <time>2015-08-26T14:59:48Z</time>
      </trkpt>
      <trkpt lat="44.6079" lon="2.03369">
        <ele>254</ele>
        <time>2015-08-26T14:59:57Z</time>
      </trkpt>
      <trkpt lat="44.60799" lon="2.03372">
        <ele>252</ele>
        <time>2015-08-26T15:00:06Z</time>
      </trkpt>
      <trkpt lat="44.6081" lon="2.03374">
        <ele>250</ele>
        <time>2015-08-26T15:00:15Z</time>
      </trkpt>
      <trkpt lat="44.60819" lon="2.03379">
        <ele>243</ele>
        <time>2015-08-26T15:00:22Z</time>
      </trkpt>
      <trkpt lat="44.60827" lon="2.03387">
        <ele>250</ele>
        <time>2015-08-26T15:00:42Z</time>
      </trkpt>
      <trkpt lat="44.60833" lon="2.03385">
        <ele>261</ele>
        <time>2015-08-26T15:00:59Z</time>
      </trkpt>
      <trkpt lat="44.60838" lon="2.03384">
        <ele>261</ele>
        <time>2015-08-26T15:01:05Z</time>
      </trkpt>
      <trkpt lat="44.60848" lon="2.03381">
        <ele>255</ele>
        <time>2015-08-26T15:01:12Z</time>
      </trkpt>
      <trkpt lat="44.60857" lon="2.03389">
        <ele>249</ele>
        <time>2015-08-26T15:01:20Z</time>
      </trkpt>
      <trkpt lat="44.60857" lon="2.03382">
        <ele>246</ele>
        <time>2015-08-26T15:01:48Z</time>
      </trkpt>
      <trkpt lat="44.60855" lon="2.03374">
        <ele>246</ele>
        <time>2015-08-26T15:01:55Z</time>
      </trkpt>
      <trkpt lat="44.60855" lon="2.03367">
        <ele>246</ele>
        <time>2015-08-26T15:02:01Z</time>
      </trkpt>
      <trkpt lat="44.60855" lon="2.03361">
        <ele>247</ele>
        <time>2015-08-26T15:02:07Z</time>
      </trkpt>
      <trkpt lat="44.60856" lon="2.03354">
        <ele>248</ele>
        <time>2015-08-26T15:02:13Z</time>
      </trkpt>
      <trkpt lat="44.60854" lon="2.03341">
        <ele>246</ele>
        <time>2015-08-26T15:02:24Z</time>
      </trkpt>
      <trkpt lat="44.60854" lon="2.03334">
        <ele>248</ele>
        <time>2015-08-26T15:02:30Z</time>
      </trkpt>
      <trkpt lat="44.60854" lon="2.03321">
        <ele>250</ele>
        <time>2015-08-26T15:02:41Z</time>
      </trkpt>
      <trkpt lat="44.60854" lon="2.03308">
        <ele>250</ele>
        <time>2015-08-26T15:02:51Z</time>
      </trkpt>
      <trkpt lat="44.60855" lon="2.03295">
        <ele>251</ele>
        <time>2015-08-26T15:03:01Z</time>
      </trkpt>
      <trkpt lat="44.60855" lon="2.03281">
        <ele>252</ele>
        <time>2015-08-26T15:03:15Z</time>
      </trkpt>
      <trkpt lat="44.60852" lon="2.03276">
        <ele>254</ele>
        <time>2015-08-26T15:03:22Z</time>
      </trkpt>
      <trkpt lat="44.60843" lon="2.03278">
        <ele>252</ele>
        <time>2015-08-26T15:03:31Z</time>
      </trkpt>
      <trkpt lat="44.60833" lon="2.03278">
        <ele>252</ele>
        <time>2015-08-26T15:03:39Z</time>
      </trkpt>
      <trkpt lat="44.60823" lon="2.03275">
        <ele>251</ele>
        <time>2015-08-26T15:03:46Z</time>
      </trkpt>
      <trkpt lat="44.60814" lon="2.03267">
        <ele>252</ele>
        <time>2015-08-26T15:03:58Z</time>
      </trkpt>
      <trkpt lat="44.60805" lon="2.03262">
        <ele>254</ele>
        <time>2015-08-26T15:04:09Z</time>
      </trkpt>
      <trkpt lat="44.60801" lon="2.03258">
        <ele>255</ele>
        <time>2015-08-26T15:04:15Z</time>
      </trkpt>
      <trkpt lat="44.60802" lon="2.03251">
        <ele>249</ele>
        <time>2015-08-26T15:04:24Z</time>
      </trkpt>
      <trkpt lat="44.60799" lon="2.03239">
        <ele>247</ele>
        <time>2015-08-26T15:04:35Z</time>
      </trkpt>
      <trkpt lat="44.60791" lon="2.03235">
        <ele>248</ele>
        <time>2015-08-26T15:04:45Z</time>
      </trkpt>
      <trkpt lat="44.60786" lon="2.03231">
        <ele>248</ele>
        <time>2015-08-26T15:04:51Z</time>
      </trkpt>
      <trkpt lat="44.60779" lon="2.03237">
        <ele>251</ele>
        <time>2015-08-26T15:05:02Z</time>
      </trkpt>
      <trkpt lat="44.60783" lon="2.03245">
        <ele>244</ele>
        <time>2015-08-26T15:05:58Z</time>
      </trkpt>
      <trkpt lat="44.60779" lon="2.03252">
        <ele>245</ele>
        <time>2015-08-26T15:07:33Z</time>
      </trkpt>
      <trkpt lat="44.60779" lon="2.03258">
        <ele>245</ele>
        <time>2015-08-26T15:07:46Z</time>
      </trkpt>
      <trkpt lat="44.60779" lon="2.0327">
        <ele>244</ele>
        <time>2015-08-26T15:07:57Z</time>
      </trkpt>
      <trkpt lat="44.60777" lon="2.03277">
        <ele>244</ele>
        <time>2015-08-26T15:08:03Z</time>
      </trkpt>
      <trkpt lat="44.60777" lon="2.03283">
        <ele>243</ele>
        <time>2015-08-26T15:08:09Z</time>
      </trkpt>
      <trkpt lat="44.60778" lon="2.0329">
        <ele>243</ele>
        <time>2015-08-26T15:08:15Z</time>
      </trkpt>
      <trkpt lat="44.60778" lon="2.03296">
        <ele>242</ele>
        <time>2015-08-26T15:08:21Z</time>
      </trkpt>
      <trkpt lat="44.6078" lon="2.0331">
        <ele>241</ele>
        <time>2015-08-26T15:08:32Z</time>
      </trkpt>
      <trkpt lat="44.6078" lon="2.03316">
        <ele>241</ele>
        <time>2015-08-26T15:08:38Z</time>
      </trkpt>
      <trkpt lat="44.6078" lon="2.0333">
        <ele>240</ele>
        <time>2015-08-26T15:08:49Z</time>
      </trkpt>
      <trkpt lat="44.60781" lon="2.03339">
        <ele>239</ele>
        <time>2015-08-26T15:08:57Z</time>
      </trkpt>
      <trkpt lat="44.60783" lon="2.03344">
        <ele>242</ele>
        <time>2015-08-26T15:09:04Z</time>
      </trkpt>
      <trkpt lat="44.60779" lon="2.03358">
        <ele>241</ele>
        <time>2015-08-26T15:09:14Z</time>
      </trkpt>
      <trkpt lat="44.60783" lon="2.03368">
        <ele>244</ele>
        <time>2015-08-26T15:09:35Z</time>
      </trkpt>
      <trkpt lat="44.60788" lon="2.03368">
        <ele>246</ele>
        <time>2015-08-26T15:09:41Z</time>
      </trkpt>
      <trkpt lat="44.60797" lon="2.03372">
        <ele>245</ele>
        <time>2015-08-26T15:09:50Z</time>
      </trkpt>
      <trkpt lat="44.60802" lon="2.03373">
        <ele>248</ele>
        <time>2015-08-26T15:09:57Z</time>
      </trkpt>
      <trkpt lat="44.60807" lon="2.03371">
        <ele>250</ele>
        <time>2015-08-26T15:10:04Z</time>
      </trkpt>
      <trkpt lat="44.60816" lon="2.03377">
        <ele>251</ele>
        <time>2015-08-26T15:10:15Z</time>
      </trkpt>
      <trkpt lat="44.60822" lon="2.03385">
        <ele>246</ele>
        <time>2015-08-26T15:10:24Z</time>
      </trkpt>
      <trkpt lat="44.60824" lon="2.03392">
        <ele>247</ele>
        <time>2015-08-26T15:10:41Z</time>
      </trkpt>
      <trkpt lat="44.60827" lon="2.03403">
        <ele>249</ele>
        <time>2015-08-26T15:10:51Z</time>
      </trkpt>
      <trkpt lat="44.60829" lon="2.0341">
        <ele>248</ele>
        <time>2015-08-26T15:10:57Z</time>
      </trkpt>
      <trkpt lat="44.60833" lon="2.03422">
        <ele>248</ele>
        <time>2015-08-26T15:11:06Z</time>
      </trkpt>
      <trkpt lat="44.60836" lon="2.03435">
        <ele>246</ele>
        <time>2015-08-26T15:11:15Z</time>
      </trkpt>
      <trkpt lat="44.60839" lon="2.03441">
        <ele>244</ele>
        <time>2015-08-26T15:11:22Z</time>
      </trkpt>
      <trkpt lat="44.60836" lon="2.03451">
        <ele>242</ele>
        <time>2015-08-26T15:11:31Z</time>
      </trkpt>
      <trkpt lat="44.60832" lon="2.03464">
        <ele>245</ele>
        <time>2015-08-26T15:11:40Z</time>
      </trkpt>
      <trkpt lat="44.60833" lon="2.03472">
        <ele>247</ele>
        <time>2015-08-26T15:11:46Z</time>
      </trkpt>
      <trkpt lat="44.60833" lon="2.03483">
        <ele>246</ele>
        <time>2015-08-26T15:11:57Z</time>
      </trkpt>
      <trkpt lat="44.60835" lon="2.0349">
        <ele>247</ele>
        <time>2015-08-26T15:12:03Z</time>
      </trkpt>
      <trkpt lat="44.60842" lon="2.03499">
        <ele>247</ele>
        <time>2015-08-26T15:12:13Z</time>
      </trkpt>
      <trkpt lat="44.60849" lon="2.03507">
        <ele>248</ele>
        <time>2015-08-26T15:12:30Z</time>
      </trkpt>
      <trkpt lat="44.60854" lon="2.03507">
        <ele>248</ele>
        <time>2015-08-26T15:12:37Z</time>
      </trkpt>
      <trkpt lat="44.60859" lon="2.03507">
        <ele>249</ele>
        <time>2015-08-26T15:12:43Z</time>
      </trkpt>
      <trkpt lat="44.60863" lon="2.03509">
        <ele>247</ele>
        <time>2015-08-26T15:12:49Z</time>
      </trkpt>
      <trkpt lat="44.6087" lon="2.03514">
        <ele>250</ele>
        <time>2015-08-26T15:12:57Z</time>
      </trkpt>
      <trkpt lat="44.60874" lon="2.0352">
        <ele>250</ele>
        <time>2015-08-26T15:13:04Z</time>
      </trkpt>
      <trkpt lat="44.60872" lon="2.03526">
        <ele>254</ele>
        <time>2015-08-26T15:13:15Z</time>
      </trkpt>
      <trkpt lat="44.60873" lon="2.03534">
        <ele>257</ele>
        <time>2015-08-26T15:13:22Z</time>
      </trkpt>
      <trkpt lat="44.60881" lon="2.03546">
        <ele>255</ele>
        <time>2015-08-26T15:13:29Z</time>
      </trkpt>
      <trkpt lat="44.60875" lon="2.03557">
        <ele>252</ele>
        <time>2015-08-26T15:13:35Z</time>
      </trkpt>
      <trkpt lat="44.60873" lon="2.03568">
        <ele>254</ele>
        <time>2015-08-26T15:13:51Z</time>
      </trkpt>
    </trkseg>
  </trk>
</gpx>